<?xml version='1.0' encoding='UTF-8'?><gpx version="1.1" creator="JPX - https://github.com/jenetics/jpx" xmlns="http://www.topografix.com/GPX/1/1"><trk><trkseg><trkpt lat="42.0030167" lon="12.6542255"><ele>146.0</ele><time>2026-05-03T09:02:31.449Z</time></trkpt><trkpt lat="42.0030708" lon="12.6541462"><ele>146.0</ele><time>2026-05-03T09:02:34.448Z</time></trkpt><trkpt lat="42.0031226" lon="12.6540849"><ele>146.0</ele><time>2026-05-03T09:02:38.448Z</time></trkpt><trkpt lat="42.0031734" lon="12.6540096"><ele>146.0</ele><time>2026-05-03T09:02:41.448Z</time></trkpt><trkpt lat="42.0032326" lon="12.6539273"><ele>146.0</ele><time>2026-05-03T09:02:44.448Z</time></trkpt><trkpt lat="42.0032885" lon="12.6538239"><ele>146.0</ele><time>2026-05-03T09:02:47.448Z</time></trkpt><trkpt lat="42.0033307" lon="12.6537107"><ele>147.66666666666666</ele><time>2026-05-03T09:02:50.449Z</time></trkpt><trkpt lat="42.0033591" lon="12.6535863"><ele>149.33333333333331</ele><time>2026-05-03T09:02:53.449Z</time></trkpt><trkpt lat="42.0033586" lon="12.6534939"><ele>151.0</ele><time>2026-05-03T09:02:55.449Z</time></trkpt><trkpt lat="42.0033622" lon="12.6534043"><ele>152.66666666666666</ele><time>2026-05-03T09:02:57.448Z</time></trkpt><trkpt lat="42.0033815" lon="12.6532749"><ele>154.33333333333334</ele><time>2026-05-03T09:03:00.448Z</time></trkpt><trkpt lat="42.0034161" lon="12.6531911"><ele>156.0</ele><time>2026-05-03T09:03:02.449Z</time></trkpt><trkpt lat="42.0034492" lon="12.6531142"><ele>156.0</ele><time>2026-05-03T09:03:04.449Z</time></trkpt><trkpt lat="42.0034625" lon="12.6530308"><ele>156.0</ele><time>2026-05-03T09:03:06.448Z</time></trkpt><trkpt lat="42.0034843" lon="12.6529324"><ele>156.0</ele><time>2026-05-03T09:03:08.449Z</time></trkpt><trkpt lat="42.0035112" lon="12.652835"><ele>156.0</ele><time>2026-05-03T09:03:10.449Z</time></trkpt><trkpt lat="42.0035365" lon="12.6527449"><ele>156.0</ele><time>2026-05-03T09:03:12.449Z</time></trkpt><trkpt lat="42.0035672" lon="12.6526402"><ele>156.0</ele><time>2026-05-03T09:03:14.448Z</time></trkpt><trkpt lat="42.0036044" lon="12.6525657"><ele>156.0</ele><time>2026-05-03T09:03:16.448Z</time></trkpt><trkpt lat="42.0036327" lon="12.6524609"><ele>158.2</ele><time>2026-05-03T09:03:19.448Z</time></trkpt><trkpt lat="42.0036027" lon="12.6523522"><ele>160.39999999999998</ele><time>2026-05-03T09:03:27.449Z</time></trkpt><trkpt lat="42.00358" lon="12.6522151"><ele>162.6</ele><time>2026-05-03T09:03:30.449Z</time></trkpt><trkpt lat="42.0035198" lon="12.6520593"><ele>164.79999999999998</ele><time>2026-05-03T09:03:32.449Z</time></trkpt><trkpt lat="42.0034726" lon="12.6519644"><ele>167.0</ele><time>2026-05-03T09:03:33.449Z</time></trkpt><trkpt lat="42.0034187" lon="12.6518709"><ele>167.14285714285714</ele><time>2026-05-03T09:03:35.449Z</time></trkpt><trkpt lat="42.003369" lon="12.6517901"><ele>167.28571428571428</ele><time>2026-05-03T09:03:37.449Z</time></trkpt><trkpt lat="42.0033164" lon="12.6516977"><ele>167.42857142857144</ele><time>2026-05-03T09:03:39.449Z</time></trkpt><trkpt lat="42.0032855" lon="12.6516151"><ele>167.57142857142856</ele><time>2026-05-03T09:03:41.448Z</time></trkpt><trkpt lat="42.0032376" lon="12.6515487"><ele>167.71428571428572</ele><time>2026-05-03T09:03:45.449Z</time></trkpt><trkpt lat="42.0032" lon="12.6514751"><ele>167.85714285714286</ele><time>2026-05-03T09:03:47.449Z</time></trkpt><trkpt lat="42.0031799" lon="12.6513828"><ele>168.0</ele><time>2026-05-03T09:03:49.449Z</time></trkpt><trkpt lat="42.0031939" lon="12.6512586"><ele>166.8</ele><time>2026-05-03T09:03:51.448Z</time></trkpt><trkpt lat="42.003192" lon="12.651106"><ele>165.60000000000002</ele><time>2026-05-03T09:03:53.449Z</time></trkpt><trkpt lat="42.003181" lon="12.6510203"><ele>164.39999999999998</ele><time>2026-05-03T09:03:54.448Z</time></trkpt><trkpt lat="42.0031659" lon="12.650865"><ele>163.2</ele><time>2026-05-03T09:03:56.449Z</time></trkpt><trkpt lat="42.0031598" lon="12.6507257"><ele>162.0</ele><time>2026-05-03T09:03:58.448Z</time></trkpt><trkpt lat="42.0031506" lon="12.6506117"><ele>162.0</ele><time>2026-05-03T09:04:00.449Z</time></trkpt><trkpt lat="42.0031516" lon="12.6505066"><ele>162.0</ele><time>2026-05-03T09:04:02.448Z</time></trkpt><trkpt lat="42.0031578" lon="12.6503794"><ele>162.0</ele><time>2026-05-03T09:04:04.449Z</time></trkpt><trkpt lat="42.003152" lon="12.6502503"><ele>162.0</ele><time>2026-05-03T09:04:06.448Z</time></trkpt><trkpt lat="42.0031349" lon="12.6501141"><ele>162.0</ele><time>2026-05-03T09:04:08.449Z</time></trkpt><trkpt lat="42.0031058" lon="12.6499727"><ele>161.33333333333334</ele><time>2026-05-03T09:04:10.448Z</time></trkpt><trkpt lat="42.0030884" lon="12.6498454"><ele>160.66666666666666</ele><time>2026-05-03T09:04:12.449Z</time></trkpt><trkpt lat="42.0030727" lon="12.6497624"><ele>160.0</ele><time>2026-05-03T09:04:14.448Z</time></trkpt><trkpt lat="42.0030584" lon="12.6496419"><ele>159.33333333333331</ele><time>2026-05-03T09:04:17.449Z</time></trkpt><trkpt lat="42.0031097" lon="12.6495286"><ele>158.66666666666666</ele><time>2026-05-03T09:04:57.448Z</time></trkpt><trkpt lat="42.0032013" lon="12.6495022"><ele>158.0</ele><time>2026-05-03T09:04:59.448Z</time></trkpt><trkpt lat="42.0033049" lon="12.6494796"><ele>157.6</ele><time>2026-05-03T09:05:01.448Z</time></trkpt><trkpt lat="42.0034078" lon="12.6494514"><ele>157.20000000000002</ele><time>2026-05-03T09:05:03.447Z</time></trkpt><trkpt lat="42.0035148" lon="12.6494337"><ele>156.8</ele><time>2026-05-03T09:05:05.448Z</time></trkpt><trkpt lat="42.0036137" lon="12.6494136"><ele>156.4</ele><time>2026-05-03T09:05:07.447Z</time></trkpt><trkpt lat="42.0037128" lon="12.6493882"><ele>156.0</ele><time>2026-05-03T09:05:09.447Z</time></trkpt><trkpt lat="42.0038033" lon="12.6493595"><ele>156.0</ele><time>2026-05-03T09:05:11.448Z</time></trkpt><trkpt lat="42.0038878" lon="12.6493417"><ele>156.0</ele><time>2026-05-03T09:05:13.447Z</time></trkpt><trkpt lat="42.0039703" lon="12.6493206"><ele>156.0</ele><time>2026-05-03T09:05:15.448Z</time></trkpt><trkpt lat="42.0040483" lon="12.6492943"><ele>156.0</ele><time>2026-05-03T09:05:17.448Z</time></trkpt><trkpt lat="42.004126" lon="12.6492778"><ele>156.0</ele><time>2026-05-03T09:05:19.447Z</time></trkpt><trkpt lat="42.004198" lon="12.6492558"><ele>156.0</ele><time>2026-05-03T09:05:21.448Z</time></trkpt><trkpt lat="42.0042782" lon="12.6492355"><ele>157.0</ele><time>2026-05-03T09:05:23.448Z</time></trkpt><trkpt lat="42.0043679" lon="12.6492161"><ele>158.0</ele><time>2026-05-03T09:05:25.448Z</time></trkpt><trkpt lat="42.0044656" lon="12.6492033"><ele>159.0</ele><time>2026-05-03T09:05:27.447Z</time></trkpt><trkpt lat="42.0045586" lon="12.6491768"><ele>160.0</ele><time>2026-05-03T09:05:29.447Z</time></trkpt><trkpt lat="42.00465" lon="12.649156"><ele>161.0</ele><time>2026-05-03T09:05:31.447Z</time></trkpt><trkpt lat="42.0047458" lon="12.6491312"><ele>161.0</ele><time>2026-05-03T09:05:33.448Z</time></trkpt><trkpt lat="42.0048457" lon="12.6491127"><ele>161.0</ele><time>2026-05-03T09:05:35.448Z</time></trkpt><trkpt lat="42.0049472" lon="12.6491033"><ele>161.0</ele><time>2026-05-03T09:05:37.447Z</time></trkpt><trkpt lat="42.0050438" lon="12.6491055"><ele>161.0</ele><time>2026-05-03T09:05:39.447Z</time></trkpt><trkpt lat="42.0051468" lon="12.6491002"><ele>161.0</ele><time>2026-05-03T09:05:41.447Z</time></trkpt><trkpt lat="42.0052466" lon="12.6490927"><ele>161.20000000000002</ele><time>2026-05-03T09:05:43.448Z</time></trkpt><trkpt lat="42.005348" lon="12.6490586"><ele>161.4</ele><time>2026-05-03T09:05:45.447Z</time></trkpt><trkpt lat="42.0054527" lon="12.6490048"><ele>161.6</ele><time>2026-05-03T09:05:47.448Z</time></trkpt><trkpt lat="42.0055555" lon="12.6489459"><ele>161.8</ele><time>2026-05-03T09:05:49.448Z</time></trkpt><trkpt lat="42.005651" lon="12.6488964"><ele>162.0</ele><time>2026-05-03T09:05:51.447Z</time></trkpt><trkpt lat="42.005742" lon="12.64885"><ele>162.0</ele><time>2026-05-03T09:05:53.448Z</time></trkpt><trkpt lat="42.0058113" lon="12.6488215"><ele>162.0</ele><time>2026-05-03T09:05:55.448Z</time></trkpt><trkpt lat="42.0058785" lon="12.6487888"><ele>162.0</ele><time>2026-05-03T09:05:58.448Z</time></trkpt><trkpt lat="42.0059667" lon="12.648755"><ele>162.0</ele><time>2026-05-03T09:06:01.448Z</time></trkpt><trkpt lat="42.0060347" lon="12.6487278"><ele>162.0</ele><time>2026-05-03T09:06:03.447Z</time></trkpt><trkpt lat="42.0061172" lon="12.6487151"><ele>162.0</ele><time>2026-05-03T09:06:05.447Z</time></trkpt><trkpt lat="42.0062118" lon="12.6486895"><ele>161.6</ele><time>2026-05-03T09:06:07.447Z</time></trkpt><trkpt lat="42.0063073" lon="12.6486604"><ele>161.2</ele><time>2026-05-03T09:06:09.447Z</time></trkpt><trkpt lat="42.0064076" lon="12.6486261"><ele>160.8</ele><time>2026-05-03T09:06:11.448Z</time></trkpt><trkpt lat="42.0064995" lon="12.6485833"><ele>160.4</ele><time>2026-05-03T09:06:13.447Z</time></trkpt><trkpt lat="42.0065907" lon="12.6485523"><ele>160.0</ele><time>2026-05-03T09:06:15.448Z</time></trkpt><trkpt lat="42.0066781" lon="12.6485119"><ele>159.8</ele><time>2026-05-03T09:06:17.447Z</time></trkpt><trkpt lat="42.0067758" lon="12.6484696"><ele>159.6</ele><time>2026-05-03T09:06:19.447Z</time></trkpt><trkpt lat="42.0068659" lon="12.6484256"><ele>159.4</ele><time>2026-05-03T09:06:21.447Z</time></trkpt><trkpt lat="42.0069554" lon="12.6483852"><ele>159.2</ele><time>2026-05-03T09:06:23.448Z</time></trkpt><trkpt lat="42.0070503" lon="12.6483692"><ele>159.0</ele><time>2026-05-03T09:06:25.448Z</time></trkpt><trkpt lat="42.007142" lon="12.6483315"><ele>159.0</ele><time>2026-05-03T09:06:27.448Z</time></trkpt><trkpt lat="42.0072284" lon="12.6482838"><ele>159.0</ele><time>2026-05-03T09:06:29.448Z</time></trkpt><trkpt lat="42.0073087" lon="12.6482583"><ele>159.0</ele><time>2026-05-03T09:06:31.448Z</time></trkpt><trkpt lat="42.0073984" lon="12.6482249"><ele>159.0</ele><time>2026-05-03T09:06:33.448Z</time></trkpt><trkpt lat="42.0075203" lon="12.6481772"><ele>159.0</ele><time>2026-05-03T09:06:35.448Z</time></trkpt><trkpt lat="42.0075848" lon="12.6481555"><ele>159.66666666666666</ele><time>2026-05-03T09:06:36.448Z</time></trkpt><trkpt lat="42.0076472" lon="12.6481327"><ele>160.33333333333334</ele><time>2026-05-03T09:06:37.448Z</time></trkpt><trkpt lat="42.0077081" lon="12.6481082"><ele>161.0</ele><time>2026-05-03T09:06:38.447Z</time></trkpt><trkpt lat="42.0077698" lon="12.6480894"><ele>161.66666666666669</ele><time>2026-05-03T09:06:39.448Z</time></trkpt><trkpt lat="42.007832" lon="12.6480662"><ele>162.33333333333334</ele><time>2026-05-03T09:06:40.447Z</time></trkpt><trkpt lat="42.0079399" lon="12.648041"><ele>163.0</ele><time>2026-05-03T09:06:42.448Z</time></trkpt><trkpt lat="42.0080536" lon="12.648031"><ele>163.0</ele><time>2026-05-03T09:06:44.447Z</time></trkpt><trkpt lat="42.0081811" lon="12.6480531"><ele>163.0</ele><time>2026-05-03T09:06:46.447Z</time></trkpt><trkpt lat="42.0083094" lon="12.6480574"><ele>163.0</ele><time>2026-05-03T09:06:48.448Z</time></trkpt><trkpt lat="42.008436" lon="12.6480682"><ele>163.0</ele><time>2026-05-03T09:06:50.448Z</time></trkpt><trkpt lat="42.0085037" lon="12.6480803"><ele>163.8</ele><time>2026-05-03T09:06:51.447Z</time></trkpt><trkpt lat="42.0085689" lon="12.6480888"><ele>164.60000000000002</ele><time>2026-05-03T09:06:52.448Z</time></trkpt><trkpt lat="42.0086914" lon="12.6481005"><ele>165.39999999999998</ele><time>2026-05-03T09:06:54.447Z</time></trkpt><trkpt lat="42.0088099" lon="12.6480883"><ele>166.2</ele><time>2026-05-03T09:06:56.448Z</time></trkpt><trkpt lat="42.0089317" lon="12.6480813"><ele>167.0</ele><time>2026-05-03T09:06:58.447Z</time></trkpt><trkpt lat="42.0089995" lon="12.6480829"><ele>167.0</ele><time>2026-05-03T09:06:59.448Z</time></trkpt><trkpt lat="42.0090668" lon="12.6480787"><ele>167.0</ele><time>2026-05-03T09:07:00.447Z</time></trkpt><trkpt lat="42.009132" lon="12.6480715"><ele>167.0</ele><time>2026-05-03T09:07:01.447Z</time></trkpt><trkpt lat="42.0091986" lon="12.6480603"><ele>167.0</ele><time>2026-05-03T09:07:02.447Z</time></trkpt><trkpt lat="42.0092643" lon="12.6480434"><ele>167.0</ele><time>2026-05-03T09:07:03.448Z</time></trkpt><trkpt lat="42.0093299" lon="12.6480162"><ele>167.0</ele><time>2026-05-03T09:07:04.447Z</time></trkpt><trkpt lat="42.0093963" lon="12.64798"><ele>167.0</ele><time>2026-05-03T09:07:05.447Z</time></trkpt><trkpt lat="42.0094615" lon="12.6479402"><ele>167.5</ele><time>2026-05-03T09:07:06.447Z</time></trkpt><trkpt lat="42.009533" lon="12.6478921"><ele>168.0</ele><time>2026-05-03T09:07:07.447Z</time></trkpt><trkpt lat="42.0096027" lon="12.6478417"><ele>168.5</ele><time>2026-05-03T09:07:08.448Z</time></trkpt><trkpt lat="42.0096732" lon="12.6477809"><ele>169.0</ele><time>2026-05-03T09:07:09.447Z</time></trkpt><trkpt lat="42.0097357" lon="12.6477096"><ele>169.5</ele><time>2026-05-03T09:07:10.447Z</time></trkpt><trkpt lat="42.0097998" lon="12.6476432"><ele>170.0</ele><time>2026-05-03T09:07:11.448Z</time></trkpt><trkpt lat="42.009858" lon="12.6475783"><ele>170.0</ele><time>2026-05-03T09:07:12.448Z</time></trkpt><trkpt lat="42.0099148" lon="12.647512"><ele>170.0</ele><time>2026-05-03T09:07:13.448Z</time></trkpt><trkpt lat="42.0099653" lon="12.6474454"><ele>170.0</ele><time>2026-05-03T09:07:14.447Z</time></trkpt><trkpt lat="42.0100183" lon="12.6473744"><ele>170.0</ele><time>2026-05-03T09:07:15.448Z</time></trkpt><trkpt lat="42.0100728" lon="12.6473094"><ele>170.0</ele><time>2026-05-03T09:07:16.448Z</time></trkpt><trkpt lat="42.0101316" lon="12.6472651"><ele>170.0</ele><time>2026-05-03T09:07:17.448Z</time></trkpt><trkpt lat="42.0101912" lon="12.6472234"><ele>170.0</ele><time>2026-05-03T09:07:18.448Z</time></trkpt><trkpt lat="42.0102528" lon="12.6471884"><ele>172.0</ele><time>2026-05-03T09:07:19.447Z</time></trkpt><trkpt lat="42.0103039" lon="12.6471331"><ele>174.0</ele><time>2026-05-03T09:07:20.448Z</time></trkpt><trkpt lat="42.0103791" lon="12.6470609"><ele>176.0</ele><time>2026-05-03T09:07:22.448Z</time></trkpt><trkpt lat="42.0104385" lon="12.6470027"><ele>178.0</ele><time>2026-05-03T09:07:25.448Z</time></trkpt><trkpt lat="42.0104883" lon="12.6468931"><ele>180.0</ele><time>2026-05-03T09:07:28.447Z</time></trkpt><trkpt lat="42.0105426" lon="12.6467287"><ele>179.85714285714286</ele><time>2026-05-03T09:07:30.447Z</time></trkpt><trkpt lat="42.0105732" lon="12.6466367"><ele>179.71428571428572</ele><time>2026-05-03T09:07:31.447Z</time></trkpt><trkpt lat="42.0105979" lon="12.646551"><ele>179.57142857142858</ele><time>2026-05-03T09:07:32.447Z</time></trkpt><trkpt lat="42.0106219" lon="12.6464623"><ele>179.42857142857144</ele><time>2026-05-03T09:07:33.447Z</time></trkpt><trkpt lat="42.0106434" lon="12.6463792"><ele>179.28571428571428</ele><time>2026-05-03T09:07:34.448Z</time></trkpt><trkpt lat="42.0106593" lon="12.6462942"><ele>179.14285714285717</ele><time>2026-05-03T09:07:35.447Z</time></trkpt><trkpt lat="42.0106931" lon="12.6462028"><ele>179.0</ele><time>2026-05-03T09:07:36.448Z</time></trkpt><trkpt lat="42.0107205" lon="12.6461219"><ele>179.00000000000003</ele><time>2026-05-03T09:07:37.447Z</time></trkpt><trkpt lat="42.0107376" lon="12.646037"><ele>179.0</ele><time>2026-05-03T09:07:38.448Z</time></trkpt><trkpt lat="42.0107501" lon="12.6459484"><ele>179.0</ele><time>2026-05-03T09:07:39.448Z</time></trkpt><trkpt lat="42.0107679" lon="12.645857"><ele>179.0</ele><time>2026-05-03T09:07:40.447Z</time></trkpt><trkpt lat="42.0107969" lon="12.6457625"><ele>179.0</ele><time>2026-05-03T09:07:41.447Z</time></trkpt><trkpt lat="42.0108172" lon="12.6456631"><ele>179.00000000000003</ele><time>2026-05-03T09:07:42.448Z</time></trkpt><trkpt lat="42.0108451" lon="12.6455656"><ele>179.0</ele><time>2026-05-03T09:07:43.448Z</time></trkpt><trkpt lat="42.0108917" lon="12.6454744"><ele>180.0</ele><time>2026-05-03T09:07:44.448Z</time></trkpt><trkpt lat="42.0109508" lon="12.6453773"><ele>181.0</ele><time>2026-05-03T09:07:45.448Z</time></trkpt><trkpt lat="42.0110153" lon="12.6452857"><ele>182.0</ele><time>2026-05-03T09:07:46.448Z</time></trkpt><trkpt lat="42.0110764" lon="12.6452018"><ele>183.0</ele><time>2026-05-03T09:07:47.448Z</time></trkpt><trkpt lat="42.0111381" lon="12.6451249"><ele>184.0</ele><time>2026-05-03T09:07:48.448Z</time></trkpt><trkpt lat="42.011201" lon="12.645051"><ele>185.0</ele><time>2026-05-03T09:07:49.448Z</time></trkpt><trkpt lat="42.0112696" lon="12.6449875"><ele>183.0</ele><time>2026-05-03T09:07:50.447Z</time></trkpt><trkpt lat="42.0113375" lon="12.644928"><ele>181.0</ele><time>2026-05-03T09:07:51.448Z</time></trkpt><trkpt lat="42.0114033" lon="12.6448779"><ele>179.0</ele><time>2026-05-03T09:07:52.447Z</time></trkpt><trkpt lat="42.0114672" lon="12.6448253"><ele>177.0</ele><time>2026-05-03T09:07:53.448Z</time></trkpt><trkpt lat="42.0115257" lon="12.6447696"><ele>175.0</ele><time>2026-05-03T09:07:54.447Z</time></trkpt><trkpt lat="42.0115855" lon="12.6447102"><ele>173.0</ele><time>2026-05-03T09:07:55.447Z</time></trkpt><trkpt lat="42.0116454" lon="12.6446537"><ele>173.83333333333331</ele><time>2026-05-03T09:07:56.448Z</time></trkpt><trkpt lat="42.0117109" lon="12.6446092"><ele>174.66666666666666</ele><time>2026-05-03T09:07:57.448Z</time></trkpt><trkpt lat="42.0117789" lon="12.644564"><ele>175.5</ele><time>2026-05-03T09:07:58.448Z</time></trkpt><trkpt lat="42.0118491" lon="12.6445186"><ele>176.33333333333334</ele><time>2026-05-03T09:07:59.448Z</time></trkpt><trkpt lat="42.0119208" lon="12.6444723"><ele>177.16666666666669</ele><time>2026-05-03T09:08:00.447Z</time></trkpt><trkpt lat="42.0119896" lon="12.6444341"><ele>178.0</ele><time>2026-05-03T09:08:01.448Z</time></trkpt><trkpt lat="42.0120557" lon="12.6443938"><ele>175.99999999999997</ele><time>2026-05-03T09:08:02.448Z</time></trkpt><trkpt lat="42.0121197" lon="12.6443523"><ele>174.0</ele><time>2026-05-03T09:08:03.447Z</time></trkpt><trkpt lat="42.01218" lon="12.6443104"><ele>172.0</ele><time>2026-05-03T09:08:04.447Z</time></trkpt><trkpt lat="42.0122471" lon="12.6442708"><ele>170.0</ele><time>2026-05-03T09:08:05.448Z</time></trkpt><trkpt lat="42.0123218" lon="12.644227"><ele>168.0</ele><time>2026-05-03T09:08:06.448Z</time></trkpt><trkpt lat="42.012388" lon="12.6441853"><ele>165.99999999999997</ele><time>2026-05-03T09:08:07.448Z</time></trkpt><trkpt lat="42.0124563" lon="12.6441595"><ele>164.0</ele><time>2026-05-03T09:08:08.447Z</time></trkpt><trkpt lat="42.0125209" lon="12.6441282"><ele>164.0</ele><time>2026-05-03T09:08:09.448Z</time></trkpt><trkpt lat="42.0126214" lon="12.6440845"><ele>164.0</ele><time>2026-05-03T09:08:11.447Z</time></trkpt><trkpt lat="42.0127041" lon="12.6440831"><ele>164.0</ele><time>2026-05-03T09:08:13.448Z</time></trkpt><trkpt lat="42.0127732" lon="12.6440899"><ele>164.0</ele><time>2026-05-03T09:08:15.448Z</time></trkpt><trkpt lat="42.0128584" lon="12.6441194"><ele>164.0</ele><time>2026-05-03T09:08:17.448Z</time></trkpt><trkpt lat="42.0129407" lon="12.6441568"><ele>164.0</ele><time>2026-05-03T09:08:19.448Z</time></trkpt><trkpt lat="42.0130233" lon="12.6442094"><ele>164.0</ele><time>2026-05-03T09:08:21.447Z</time></trkpt><trkpt lat="42.0131069" lon="12.6442474"><ele>164.0</ele><time>2026-05-03T09:08:23.448Z</time></trkpt><trkpt lat="42.0131885" lon="12.6442721"><ele>164.0</ele><time>2026-05-03T09:08:25.447Z</time></trkpt><trkpt lat="42.0132647" lon="12.6442709"><ele>164.0</ele><time>2026-05-03T09:08:27.448Z</time></trkpt><trkpt lat="42.0133429" lon="12.6442478"><ele>164.0</ele><time>2026-05-03T09:08:29.447Z</time></trkpt><trkpt lat="42.0134176" lon="12.6442296"><ele>164.0</ele><time>2026-05-03T09:08:31.448Z</time></trkpt><trkpt lat="42.0134881" lon="12.6441995"><ele>164.66666666666666</ele><time>2026-05-03T09:08:33.448Z</time></trkpt><trkpt lat="42.0135557" lon="12.6441692"><ele>165.33333333333331</ele><time>2026-05-03T09:08:35.448Z</time></trkpt><trkpt lat="42.0136245" lon="12.6441267"><ele>166.0</ele><time>2026-05-03T09:08:38.447Z</time></trkpt><trkpt lat="42.0136799" lon="12.6440547"><ele>166.66666666666666</ele><time>2026-05-03T09:08:48.447Z</time></trkpt><trkpt lat="42.0137347" lon="12.6439739"><ele>167.33333333333334</ele><time>2026-05-03T09:08:51.447Z</time></trkpt><trkpt lat="42.0137799" lon="12.6438692"><ele>168.0</ele><time>2026-05-03T09:08:54.448Z</time></trkpt><trkpt lat="42.0138125" lon="12.6437961"><ele>168.0</ele><time>2026-05-03T09:08:56.447Z</time></trkpt><trkpt lat="42.0138506" lon="12.643727"><ele>168.0</ele><time>2026-05-03T09:08:58.447Z</time></trkpt><trkpt lat="42.0138839" lon="12.6436487"><ele>168.0</ele><time>2026-05-03T09:09:00.448Z</time></trkpt><trkpt lat="42.013904" lon="12.6435259"><ele>168.0</ele><time>2026-05-03T09:09:03.447Z</time></trkpt><trkpt lat="42.0139287" lon="12.6434306"><ele>168.0</ele><time>2026-05-03T09:09:05.447Z</time></trkpt><trkpt lat="42.0139685" lon="12.6433289"><ele>168.0</ele><time>2026-05-03T09:09:07.447Z</time></trkpt><trkpt lat="42.0140206" lon="12.643223"><ele>168.2</ele><time>2026-05-03T09:09:09.448Z</time></trkpt><trkpt lat="42.014067" lon="12.6431228"><ele>168.4</ele><time>2026-05-03T09:09:11.448Z</time></trkpt><trkpt lat="42.0141427" lon="12.6430225"><ele>168.6</ele><time>2026-05-03T09:09:13.448Z</time></trkpt><trkpt lat="42.0142244" lon="12.6429471"><ele>168.79999999999998</ele><time>2026-05-03T09:09:15.447Z</time></trkpt><trkpt lat="42.0143106" lon="12.6428741"><ele>169.0</ele><time>2026-05-03T09:09:17.448Z</time></trkpt><trkpt lat="42.0143884" lon="12.6428278"><ele>170.5</ele><time>2026-05-03T09:09:19.447Z</time></trkpt><trkpt lat="42.0144592" lon="12.6427972"><ele>172.0</ele><time>2026-05-03T09:09:21.448Z</time></trkpt><trkpt lat="42.0145326" lon="12.6427655"><ele>173.5</ele><time>2026-05-03T09:09:23.448Z</time></trkpt><trkpt lat="42.014607" lon="12.6427556"><ele>175.0</ele><time>2026-05-03T09:09:25.448Z</time></trkpt><trkpt lat="42.0146875" lon="12.6427589"><ele>176.5</ele><time>2026-05-03T09:09:27.448Z</time></trkpt><trkpt lat="42.0147684" lon="12.6427577"><ele>178.0</ele><time>2026-05-03T09:09:29.447Z</time></trkpt><trkpt lat="42.0148602" lon="12.6427613"><ele>178.0</ele><time>2026-05-03T09:09:31.448Z</time></trkpt><trkpt lat="42.0149631" lon="12.6427635"><ele>178.0</ele><time>2026-05-03T09:09:33.447Z</time></trkpt><trkpt lat="42.0150692" lon="12.6427509"><ele>178.0</ele><time>2026-05-03T09:09:35.448Z</time></trkpt><trkpt lat="42.0151718" lon="12.6427426"><ele>178.0</ele><time>2026-05-03T09:09:37.447Z</time></trkpt><trkpt lat="42.0152751" lon="12.6427426"><ele>178.0</ele><time>2026-05-03T09:09:39.448Z</time></trkpt><trkpt lat="42.0153665" lon="12.6427195"><ele>177.8</ele><time>2026-05-03T09:09:41.447Z</time></trkpt><trkpt lat="42.0154591" lon="12.6427054"><ele>177.60000000000002</ele><time>2026-05-03T09:09:43.448Z</time></trkpt><trkpt lat="42.0155624" lon="12.6426716"><ele>177.39999999999998</ele><time>2026-05-03T09:09:45.447Z</time></trkpt><trkpt lat="42.0156742" lon="12.6426411"><ele>177.2</ele><time>2026-05-03T09:09:47.447Z</time></trkpt><trkpt lat="42.0157935" lon="12.6426114"><ele>177.0</ele><time>2026-05-03T09:09:49.448Z</time></trkpt><trkpt lat="42.0158597" lon="12.6425825"><ele>176.83333333333334</ele><time>2026-05-03T09:09:50.448Z</time></trkpt><trkpt lat="42.0159242" lon="12.6425608"><ele>176.66666666666666</ele><time>2026-05-03T09:09:51.448Z</time></trkpt><trkpt lat="42.016" lon="12.6425381"><ele>176.5</ele><time>2026-05-03T09:09:52.448Z</time></trkpt><trkpt lat="42.0160834" lon="12.6425028"><ele>176.33333333333331</ele><time>2026-05-03T09:09:53.447Z</time></trkpt><trkpt lat="42.0161681" lon="12.6424623"><ele>176.16666666666666</ele><time>2026-05-03T09:09:54.448Z</time></trkpt><trkpt lat="42.016247" lon="12.6424184"><ele>176.0</ele><time>2026-05-03T09:09:55.447Z</time></trkpt><trkpt lat="42.0163318" lon="12.6423715"><ele>176.0</ele><time>2026-05-03T09:09:56.448Z</time></trkpt><trkpt lat="42.0164174" lon="12.6423209"><ele>176.0</ele><time>2026-05-03T09:09:57.447Z</time></trkpt><trkpt lat="42.0165013" lon="12.6422697"><ele>176.0</ele><time>2026-05-03T09:09:58.447Z</time></trkpt><trkpt lat="42.0165836" lon="12.642227"><ele>176.0</ele><time>2026-05-03T09:09:59.448Z</time></trkpt><trkpt lat="42.0166655" lon="12.6421972"><ele>176.0</ele><time>2026-05-03T09:10:00.447Z</time></trkpt><trkpt lat="42.0167587" lon="12.6421463"><ele>173.60000000000002</ele><time>2026-05-03T09:10:01.447Z</time></trkpt><trkpt lat="42.0168478" lon="12.6420965"><ele>171.2</ele><time>2026-05-03T09:10:02.447Z</time></trkpt><trkpt lat="42.0169401" lon="12.642064"><ele>168.8</ele><time>2026-05-03T09:10:03.447Z</time></trkpt><trkpt lat="42.017033" lon="12.6420315"><ele>166.39999999999998</ele><time>2026-05-03T09:10:04.448Z</time></trkpt><trkpt lat="42.0171255" lon="12.6420099"><ele>164.0</ele><time>2026-05-03T09:10:05.447Z</time></trkpt><trkpt lat="42.0172158" lon="12.6419917"><ele>164.0</ele><time>2026-05-03T09:10:06.447Z</time></trkpt><trkpt lat="42.0173073" lon="12.6419777"><ele>164.0</ele><time>2026-05-03T09:10:07.448Z</time></trkpt><trkpt lat="42.017395" lon="12.6419602"><ele>164.0</ele><time>2026-05-03T09:10:08.448Z</time></trkpt><trkpt lat="42.0174744" lon="12.6419359"><ele>164.0</ele><time>2026-05-03T09:10:09.448Z</time></trkpt><trkpt lat="42.0175495" lon="12.6419022"><ele>164.0</ele><time>2026-05-03T09:10:10.448Z</time></trkpt><trkpt lat="42.0176204" lon="12.6418667"><ele>164.0</ele><time>2026-05-03T09:10:11.448Z</time></trkpt><trkpt lat="42.0176874" lon="12.6418203"><ele>165.42857142857142</ele><time>2026-05-03T09:10:12.447Z</time></trkpt><trkpt lat="42.0177543" lon="12.6417829"><ele>166.85714285714286</ele><time>2026-05-03T09:10:13.448Z</time></trkpt><trkpt lat="42.0178227" lon="12.6417339"><ele>168.28571428571428</ele><time>2026-05-03T09:10:14.447Z</time></trkpt><trkpt lat="42.0178831" lon="12.641677"><ele>169.71428571428572</ele><time>2026-05-03T09:10:15.447Z</time></trkpt><trkpt lat="42.0179486" lon="12.6416161"><ele>171.14285714285714</ele><time>2026-05-03T09:10:16.448Z</time></trkpt><trkpt lat="42.0180132" lon="12.6415678"><ele>172.57142857142856</ele><time>2026-05-03T09:10:17.447Z</time></trkpt><trkpt lat="42.0180684" lon="12.6415099"><ele>174.0</ele><time>2026-05-03T09:10:18.447Z</time></trkpt><trkpt lat="42.0181497" lon="12.6414147"><ele>174.0</ele><time>2026-05-03T09:10:20.448Z</time></trkpt><trkpt lat="42.0181594" lon="12.641304"><ele>174.0</ele><time>2026-05-03T09:10:22.447Z</time></trkpt><trkpt lat="42.0181424" lon="12.6412149"><ele>174.0</ele><time>2026-05-03T09:10:24.448Z</time></trkpt><trkpt lat="42.0181762" lon="12.6411052"><ele>174.0</ele><time>2026-05-03T09:10:27.447Z</time></trkpt><trkpt lat="42.0181291" lon="12.6411892"><ele>174.0</ele><time>2026-05-03T09:10:32.448Z</time></trkpt><trkpt lat="42.0181443" lon="12.6413896"><ele>174.0</ele><time>2026-05-03T09:11:55.447Z</time></trkpt><trkpt lat="42.0180939" lon="12.6414752"><ele>174.0</ele><time>2026-05-03T09:11:57.447Z</time></trkpt><trkpt lat="42.0180411" lon="12.6415219"><ele>174.0</ele><time>2026-05-03T09:11:58.448Z</time></trkpt><trkpt lat="42.0179893" lon="12.641582"><ele>174.0</ele><time>2026-05-03T09:11:59.448Z</time></trkpt><trkpt lat="42.0179214" lon="12.6416315"><ele>174.0</ele><time>2026-05-03T09:12:00.448Z</time></trkpt><trkpt lat="42.0178475" lon="12.6416842"><ele>174.0</ele><time>2026-05-03T09:12:01.448Z</time></trkpt><trkpt lat="42.0177635" lon="12.6417367"><ele>174.0</ele><time>2026-05-03T09:12:02.448Z</time></trkpt><trkpt lat="42.017676" lon="12.6417856"><ele>174.0</ele><time>2026-05-03T09:12:03.448Z</time></trkpt><trkpt lat="42.0175811" lon="12.6418371"><ele>174.0</ele><time>2026-05-03T09:12:04.447Z</time></trkpt><trkpt lat="42.0174795" lon="12.641902"><ele>174.0</ele><time>2026-05-03T09:12:05.448Z</time></trkpt><trkpt lat="42.0173782" lon="12.6419664"><ele>174.0</ele><time>2026-05-03T09:12:06.448Z</time></trkpt><trkpt lat="42.0172681" lon="12.6420153"><ele>171.5</ele><time>2026-05-03T09:12:07.448Z</time></trkpt><trkpt lat="42.0171545" lon="12.6420443"><ele>169.0</ele><time>2026-05-03T09:12:08.448Z</time></trkpt><trkpt lat="42.0170405" lon="12.6420651"><ele>166.5</ele><time>2026-05-03T09:12:09.448Z</time></trkpt><trkpt lat="42.0169312" lon="12.6420926"><ele>164.0</ele><time>2026-05-03T09:12:10.447Z</time></trkpt><trkpt lat="42.0168182" lon="12.6421272"><ele>164.0</ele><time>2026-05-03T09:12:11.448Z</time></trkpt><trkpt lat="42.0167023" lon="12.6421812"><ele>164.0</ele><time>2026-05-03T09:12:12.448Z</time></trkpt><trkpt lat="42.0165826" lon="12.6422401"><ele>164.0</ele><time>2026-05-03T09:12:13.448Z</time></trkpt><trkpt lat="42.0164717" lon="12.6422938"><ele>164.0</ele><time>2026-05-03T09:12:14.447Z</time></trkpt><trkpt lat="42.0163749" lon="12.6423516"><ele>166.39999999999998</ele><time>2026-05-03T09:12:15.448Z</time></trkpt><trkpt lat="42.0162828" lon="12.6424161"><ele>168.8</ele><time>2026-05-03T09:12:16.447Z</time></trkpt><trkpt lat="42.0161791" lon="12.6424837"><ele>171.2</ele><time>2026-05-03T09:12:17.448Z</time></trkpt><trkpt lat="42.0160742" lon="12.6425463"><ele>173.60000000000002</ele><time>2026-05-03T09:12:18.448Z</time></trkpt><trkpt lat="42.0159673" lon="12.6426016"><ele>176.0</ele><time>2026-05-03T09:12:19.447Z</time></trkpt><trkpt lat="42.0158616" lon="12.6426465"><ele>176.20000000000002</ele><time>2026-05-03T09:12:20.447Z</time></trkpt><trkpt lat="42.0157499" lon="12.6426815"><ele>176.4</ele><time>2026-05-03T09:12:21.448Z</time></trkpt><trkpt lat="42.0156523" lon="12.6426994"><ele>176.6</ele><time>2026-05-03T09:12:22.448Z</time></trkpt><trkpt lat="42.0155662" lon="12.6427091"><ele>176.8</ele><time>2026-05-03T09:12:23.448Z</time></trkpt><trkpt lat="42.0154856" lon="12.6427183"><ele>177.0</ele><time>2026-05-03T09:12:24.448Z</time></trkpt><trkpt lat="42.0154113" lon="12.642726"><ele>177.0</ele><time>2026-05-03T09:12:25.448Z</time></trkpt><trkpt lat="42.0153207" lon="12.642741"><ele>177.0</ele><time>2026-05-03T09:12:26.448Z</time></trkpt><trkpt lat="42.0152311" lon="12.642752"><ele>177.0</ele><time>2026-05-03T09:12:27.448Z</time></trkpt><trkpt lat="42.0151395" lon="12.6427618"><ele>177.0</ele><time>2026-05-03T09:12:28.448Z</time></trkpt><trkpt lat="42.0150416" lon="12.6427651"><ele>177.0</ele><time>2026-05-03T09:12:29.447Z</time></trkpt><trkpt lat="42.0149384" lon="12.6427839"><ele>177.2</ele><time>2026-05-03T09:12:30.448Z</time></trkpt><trkpt lat="42.0148369" lon="12.6427769"><ele>177.39999999999998</ele><time>2026-05-03T09:12:31.447Z</time></trkpt><trkpt lat="42.0147424" lon="12.6427556"><ele>177.60000000000002</ele><time>2026-05-03T09:12:32.448Z</time></trkpt><trkpt lat="42.0146306" lon="12.6427425"><ele>177.8</ele><time>2026-05-03T09:12:33.447Z</time></trkpt><trkpt lat="42.0145221" lon="12.6427463"><ele>178.0</ele><time>2026-05-03T09:12:34.447Z</time></trkpt><trkpt lat="42.0144161" lon="12.6427734"><ele>178.25</ele><time>2026-05-03T09:12:35.447Z</time></trkpt><trkpt lat="42.0143149" lon="12.6428159"><ele>178.5</ele><time>2026-05-03T09:12:36.448Z</time></trkpt><trkpt lat="42.0142207" lon="12.6428858"><ele>178.75</ele><time>2026-05-03T09:12:37.447Z</time></trkpt><trkpt lat="42.0141404" lon="12.6430055"><ele>179.0</ele><time>2026-05-03T09:12:38.448Z</time></trkpt><trkpt lat="42.0140685" lon="12.6431284"><ele>179.0</ele><time>2026-05-03T09:12:39.448Z</time></trkpt><trkpt lat="42.014005" lon="12.6432447"><ele>179.0</ele><time>2026-05-03T09:12:40.448Z</time></trkpt><trkpt lat="42.0139572" lon="12.6433725"><ele>179.0</ele><time>2026-05-03T09:12:41.447Z</time></trkpt><trkpt lat="42.0139019" lon="12.6435017"><ele>179.0</ele><time>2026-05-03T09:12:42.447Z</time></trkpt><trkpt lat="42.0138496" lon="12.6436361"><ele>179.0</ele><time>2026-05-03T09:12:43.447Z</time></trkpt><trkpt lat="42.0137901" lon="12.6437654"><ele>176.79999999999998</ele><time>2026-05-03T09:12:44.447Z</time></trkpt><trkpt lat="42.0137375" lon="12.6438885"><ele>174.6</ele><time>2026-05-03T09:12:45.448Z</time></trkpt><trkpt lat="42.0136797" lon="12.6439988"><ele>172.4</ele><time>2026-05-03T09:12:46.447Z</time></trkpt><trkpt lat="42.0136144" lon="12.6440841"><ele>170.2</ele><time>2026-05-03T09:12:47.447Z</time></trkpt><trkpt lat="42.0135276" lon="12.6441499"><ele>168.0</ele><time>2026-05-03T09:12:48.447Z</time></trkpt><trkpt lat="42.0134381" lon="12.6442029"><ele>168.0</ele><time>2026-05-03T09:12:49.447Z</time></trkpt><trkpt lat="42.0133579" lon="12.6442485"><ele>168.0</ele><time>2026-05-03T09:12:50.447Z</time></trkpt><trkpt lat="42.0132803" lon="12.644271"><ele>168.0</ele><time>2026-05-03T09:12:51.448Z</time></trkpt><trkpt lat="42.0131961" lon="12.6442773"><ele>168.0</ele><time>2026-05-03T09:12:52.447Z</time></trkpt><trkpt lat="42.0131167" lon="12.6442698"><ele>168.0</ele><time>2026-05-03T09:12:53.448Z</time></trkpt><trkpt lat="42.0130434" lon="12.6442394"><ele>168.0</ele><time>2026-05-03T09:12:54.448Z</time></trkpt><trkpt lat="42.0129635" lon="12.6441954"><ele>167.2</ele><time>2026-05-03T09:12:55.448Z</time></trkpt><trkpt lat="42.0128832" lon="12.6441578"><ele>166.4</ele><time>2026-05-03T09:12:56.447Z</time></trkpt><trkpt lat="42.0127649" lon="12.6441193"><ele>165.6</ele><time>2026-05-03T09:12:58.448Z</time></trkpt><trkpt lat="42.01267" lon="12.6440729"><ele>164.79999999999998</ele><time>2026-05-03T09:13:00.447Z</time></trkpt><trkpt lat="42.0126039" lon="12.6440558"><ele>164.0</ele><time>2026-05-03T09:13:02.447Z</time></trkpt><trkpt lat="42.0124973" lon="12.6439484"><ele>163.66666666666666</ele><time>2026-05-03T09:13:26.447Z</time></trkpt><trkpt lat="42.0124258" lon="12.6439079"><ele>163.33333333333331</ele><time>2026-05-03T09:13:28.446Z</time></trkpt><trkpt lat="42.0123421" lon="12.6438574"><ele>163.0</ele><time>2026-05-03T09:13:30.447Z</time></trkpt><trkpt lat="42.0122586" lon="12.643788"><ele>162.66666666666666</ele><time>2026-05-03T09:13:32.446Z</time></trkpt><trkpt lat="42.012183" lon="12.6437273"><ele>162.33333333333334</ele><time>2026-05-03T09:13:34.447Z</time></trkpt><trkpt lat="42.0121049" lon="12.6436662"><ele>162.0</ele><time>2026-05-03T09:13:36.446Z</time></trkpt><trkpt lat="42.0120296" lon="12.6436254"><ele>159.83333333333334</ele><time>2026-05-03T09:13:39.447Z</time></trkpt><trkpt lat="42.0119529" lon="12.6435624"><ele>157.66666666666666</ele><time>2026-05-03T09:13:42.446Z</time></trkpt><trkpt lat="42.0118673" lon="12.6435109"><ele>155.5</ele><time>2026-05-03T09:13:44.446Z</time></trkpt><trkpt lat="42.0117803" lon="12.6434601"><ele>153.33333333333331</ele><time>2026-05-03T09:13:46.447Z</time></trkpt><trkpt lat="42.0117018" lon="12.6434101"><ele>151.16666666666666</ele><time>2026-05-03T09:13:48.447Z</time></trkpt><trkpt lat="42.0116261" lon="12.6433788"><ele>149.0</ele><time>2026-05-03T09:13:50.447Z</time></trkpt><trkpt lat="42.0115574" lon="12.6433717"><ele>147.66666666666666</ele><time>2026-05-03T09:13:52.447Z</time></trkpt><trkpt lat="42.0114729" lon="12.643418"><ele>146.33333333333331</ele><time>2026-05-03T09:13:55.446Z</time></trkpt><trkpt lat="42.0114123" lon="12.6434576"><ele>145.0</ele><time>2026-05-03T09:13:57.447Z</time></trkpt><trkpt lat="42.0113458" lon="12.643472"><ele>143.66666666666666</ele><time>2026-05-03T09:13:59.446Z</time></trkpt><trkpt lat="42.0112635" lon="12.6434362"><ele>142.33333333333334</ele><time>2026-05-03T09:14:02.446Z</time></trkpt><trkpt lat="42.0111493" lon="12.6434026"><ele>141.0</ele><time>2026-05-03T09:14:05.446Z</time></trkpt><trkpt lat="42.0110493" lon="12.643356"><ele>141.0</ele><time>2026-05-03T09:14:07.447Z</time></trkpt><trkpt lat="42.0109341" lon="12.6433068"><ele>141.0</ele><time>2026-05-03T09:14:09.447Z</time></trkpt><trkpt lat="42.010814" lon="12.6432643"><ele>141.0</ele><time>2026-05-03T09:14:11.447Z</time></trkpt><trkpt lat="42.0107508" lon="12.6432482"><ele>141.0</ele><time>2026-05-03T09:14:12.446Z</time></trkpt><trkpt lat="42.0106605" lon="12.6432126"><ele>141.0</ele><time>2026-05-03T09:14:14.446Z</time></trkpt><trkpt lat="42.010582" lon="12.643178"><ele>140.0</ele><time>2026-05-03T09:14:16.446Z</time></trkpt><trkpt lat="42.0104987" lon="12.6431346"><ele>139.0</ele><time>2026-05-03T09:14:18.446Z</time></trkpt><trkpt lat="42.010395" lon="12.6431085"><ele>138.0</ele><time>2026-05-03T09:14:20.446Z</time></trkpt><trkpt lat="42.0102721" lon="12.6430892"><ele>137.0</ele><time>2026-05-03T09:14:22.446Z</time></trkpt><trkpt lat="42.0102089" lon="12.6430789"><ele>136.0</ele><time>2026-05-03T09:14:23.447Z</time></trkpt><trkpt lat="42.0100906" lon="12.6430691"><ele>134.0</ele><time>2026-05-03T09:14:25.447Z</time></trkpt><trkpt lat="42.0099794" lon="12.6430677"><ele>132.0</ele><time>2026-05-03T09:14:27.447Z</time></trkpt><trkpt lat="42.0098607" lon="12.6430902"><ele>130.0</ele><time>2026-05-03T09:14:29.447Z</time></trkpt><trkpt lat="42.0097421" lon="12.6431248"><ele>128.0</ele><time>2026-05-03T09:14:31.446Z</time></trkpt><trkpt lat="42.0096273" lon="12.6431538"><ele>128.0</ele><time>2026-05-03T09:14:33.446Z</time></trkpt><trkpt lat="42.009523" lon="12.6431703"><ele>128.0</ele><time>2026-05-03T09:14:35.446Z</time></trkpt><trkpt lat="42.0094169" lon="12.643174"><ele>128.0</ele><time>2026-05-03T09:14:37.447Z</time></trkpt><trkpt lat="42.0092912" lon="12.643174"><ele>128.0</ele><time>2026-05-03T09:14:39.446Z</time></trkpt><trkpt lat="42.0092154" lon="12.6431687"><ele>128.0</ele><time>2026-05-03T09:14:40.447Z</time></trkpt><trkpt lat="42.0091392" lon="12.6431625"><ele>126.99999999999999</ele><time>2026-05-03T09:14:41.446Z</time></trkpt><trkpt lat="42.0090659" lon="12.6431576"><ele>126.0</ele><time>2026-05-03T09:14:42.446Z</time></trkpt><trkpt lat="42.008995" lon="12.6431565"><ele>125.0</ele><time>2026-05-03T09:14:43.446Z</time></trkpt><trkpt lat="42.0089305" lon="12.6431557"><ele>124.0</ele><time>2026-05-03T09:14:44.446Z</time></trkpt><trkpt lat="42.008837" lon="12.6431547"><ele>122.99999999999999</ele><time>2026-05-03T09:14:46.446Z</time></trkpt><trkpt lat="42.0087443" lon="12.6431465"><ele>122.0</ele><time>2026-05-03T09:14:49.446Z</time></trkpt><trkpt lat="42.0086474" lon="12.6431385"><ele>122.0</ele><time>2026-05-03T09:14:51.446Z</time></trkpt><trkpt lat="42.0085485" lon="12.6431531"><ele>121.99999999999999</ele><time>2026-05-03T09:14:53.446Z</time></trkpt><trkpt lat="42.0084456" lon="12.6431778"><ele>121.99999999999999</ele><time>2026-05-03T09:14:55.447Z</time></trkpt><trkpt lat="42.0083344" lon="12.6432063"><ele>122.0</ele><time>2026-05-03T09:14:57.447Z</time></trkpt><trkpt lat="42.0082188" lon="12.6432288"><ele>122.0</ele><time>2026-05-03T09:14:59.446Z</time></trkpt><trkpt lat="42.0081055" lon="12.6432486"><ele>121.33333333333333</ele><time>2026-05-03T09:15:01.447Z</time></trkpt><trkpt lat="42.0079802" lon="12.643229"><ele>120.66666666666666</ele><time>2026-05-03T09:15:03.446Z</time></trkpt><trkpt lat="42.0079148" lon="12.643214"><ele>120.0</ele><time>2026-05-03T09:15:04.446Z</time></trkpt><trkpt lat="42.007849" lon="12.6432065"><ele>119.33333333333334</ele><time>2026-05-03T09:15:05.447Z</time></trkpt><trkpt lat="42.0077862" lon="12.6432184"><ele>118.66666666666667</ele><time>2026-05-03T09:15:06.447Z</time></trkpt><trkpt lat="42.0076647" lon="12.6431941"><ele>118.0</ele><time>2026-05-03T09:15:08.446Z</time></trkpt><trkpt lat="42.0075998" lon="12.643183"><ele>118.0</ele><time>2026-05-03T09:15:09.447Z</time></trkpt><trkpt lat="42.0075332" lon="12.6431867"><ele>118.0</ele><time>2026-05-03T09:15:10.447Z</time></trkpt><trkpt lat="42.0074646" lon="12.6431946"><ele>118.0</ele><time>2026-05-03T09:15:11.446Z</time></trkpt><trkpt lat="42.0073924" lon="12.6432067"><ele>118.0</ele><time>2026-05-03T09:15:12.446Z</time></trkpt><trkpt lat="42.0073192" lon="12.6432181"><ele>118.0</ele><time>2026-05-03T09:15:13.447Z</time></trkpt><trkpt lat="42.0072425" lon="12.6432201"><ele>118.0</ele><time>2026-05-03T09:15:14.446Z</time></trkpt><trkpt lat="42.0071624" lon="12.6432116"><ele>118.0</ele><time>2026-05-03T09:15:15.447Z</time></trkpt><trkpt lat="42.0070851" lon="12.6431962"><ele>118.00000000000001</ele><time>2026-05-03T09:15:16.446Z</time></trkpt><trkpt lat="42.0070019" lon="12.6431842"><ele>118.0</ele><time>2026-05-03T09:15:17.446Z</time></trkpt><trkpt lat="42.006915" lon="12.6431825"><ele>118.0</ele><time>2026-05-03T09:15:18.447Z</time></trkpt><trkpt lat="42.0068296" lon="12.6431837"><ele>118.0</ele><time>2026-05-03T09:15:19.447Z</time></trkpt><trkpt lat="42.0067473" lon="12.6431832"><ele>118.00000000000001</ele><time>2026-05-03T09:15:20.446Z</time></trkpt><trkpt lat="42.0066629" lon="12.6431757"><ele>118.0</ele><time>2026-05-03T09:15:21.446Z</time></trkpt><trkpt lat="42.0065792" lon="12.6431646"><ele>118.00000000000001</ele><time>2026-05-03T09:15:22.446Z</time></trkpt><trkpt lat="42.0064904" lon="12.6431468"><ele>118.0</ele><time>2026-05-03T09:15:23.446Z</time></trkpt><trkpt lat="42.0064059" lon="12.6431332"><ele>118.0</ele><time>2026-05-03T09:15:24.446Z</time></trkpt><trkpt lat="42.0063233" lon="12.6431204"><ele>118.0</ele><time>2026-05-03T09:15:25.447Z</time></trkpt><trkpt lat="42.0062445" lon="12.6431"><ele>118.00000000000001</ele><time>2026-05-03T09:15:26.446Z</time></trkpt><trkpt lat="42.0061646" lon="12.6430713"><ele>118.0</ele><time>2026-05-03T09:15:27.447Z</time></trkpt><trkpt lat="42.0060833" lon="12.64304"><ele>118.00000000000001</ele><time>2026-05-03T09:15:28.446Z</time></trkpt><trkpt lat="42.0060076" lon="12.6430064"><ele>118.0</ele><time>2026-05-03T09:15:29.447Z</time></trkpt><trkpt lat="42.0059313" lon="12.6429796"><ele>118.0</ele><time>2026-05-03T09:15:30.446Z</time></trkpt><trkpt lat="42.0058546" lon="12.6429551"><ele>118.0</ele><time>2026-05-03T09:15:31.446Z</time></trkpt><trkpt lat="42.0057801" lon="12.6429334"><ele>118.00000000000001</ele><time>2026-05-03T09:15:32.447Z</time></trkpt><trkpt lat="42.005708" lon="12.6429174"><ele>118.0</ele><time>2026-05-03T09:15:33.447Z</time></trkpt><trkpt lat="42.0056378" lon="12.6429123"><ele>116.83333333333334</ele><time>2026-05-03T09:15:34.446Z</time></trkpt><trkpt lat="42.0055663" lon="12.6429126"><ele>115.66666666666667</ele><time>2026-05-03T09:15:35.447Z</time></trkpt><trkpt lat="42.0054965" lon="12.6429067"><ele>114.5</ele><time>2026-05-03T09:15:36.446Z</time></trkpt><trkpt lat="42.0054321" lon="12.6428871"><ele>113.33333333333334</ele><time>2026-05-03T09:15:37.447Z</time></trkpt><trkpt lat="42.0053114" lon="12.6428459"><ele>112.16666666666667</ele><time>2026-05-03T09:15:39.447Z</time></trkpt><trkpt lat="42.0052447" lon="12.6428356"><ele>111.0</ele><time>2026-05-03T09:15:40.447Z</time></trkpt><trkpt lat="42.005178" lon="12.6428309"><ele>111.0</ele><time>2026-05-03T09:15:41.447Z</time></trkpt><trkpt lat="42.0050614" lon="12.6428227"><ele>111.0</ele><time>2026-05-03T09:15:43.447Z</time></trkpt><trkpt lat="42.0049526" lon="12.6428171"><ele>111.0</ele><time>2026-05-03T09:15:45.446Z</time></trkpt><trkpt lat="42.0048381" lon="12.6428211"><ele>111.0</ele><time>2026-05-03T09:15:47.447Z</time></trkpt><trkpt lat="42.0047127" lon="12.642841"><ele>110.16666666666667</ele><time>2026-05-03T09:15:49.447Z</time></trkpt><trkpt lat="42.0046444" lon="12.6428595"><ele>109.33333333333334</ele><time>2026-05-03T09:15:50.447Z</time></trkpt><trkpt lat="42.0045748" lon="12.6428834"><ele>108.5</ele><time>2026-05-03T09:15:51.446Z</time></trkpt><trkpt lat="42.0045022" lon="12.6429164"><ele>107.66666666666667</ele><time>2026-05-03T09:15:52.446Z</time></trkpt><trkpt lat="42.0044276" lon="12.6429439"><ele>106.83333333333334</ele><time>2026-05-03T09:15:53.447Z</time></trkpt><trkpt lat="42.0043511" lon="12.6429653"><ele>106.0</ele><time>2026-05-03T09:15:54.447Z</time></trkpt><trkpt lat="42.0042745" lon="12.6429856"><ele>106.00000000000001</ele><time>2026-05-03T09:15:55.446Z</time></trkpt><trkpt lat="42.0042026" lon="12.6430123"><ele>106.0</ele><time>2026-05-03T09:15:56.447Z</time></trkpt><trkpt lat="42.0041345" lon="12.6430382"><ele>106.0</ele><time>2026-05-03T09:15:57.447Z</time></trkpt><trkpt lat="42.004066" lon="12.6430651"><ele>106.0</ele><time>2026-05-03T09:15:58.446Z</time></trkpt><trkpt lat="42.0039674" lon="12.6431423"><ele>106.00000000000001</ele><time>2026-05-03T09:16:00.447Z</time></trkpt><trkpt lat="42.0039178" lon="12.6432104"><ele>106.0</ele><time>2026-05-03T09:16:02.446Z</time></trkpt><trkpt lat="42.003795" lon="12.6433022"><ele>105.16666666666667</ele><time>2026-05-03T09:17:35.446Z</time></trkpt><trkpt lat="42.0036904" lon="12.6433771"><ele>104.33333333333334</ele><time>2026-05-03T09:17:37.446Z</time></trkpt><trkpt lat="42.0036307" lon="12.6434237"><ele>103.5</ele><time>2026-05-03T09:17:38.446Z</time></trkpt><trkpt lat="42.00357" lon="12.6434699"><ele>102.66666666666666</ele><time>2026-05-03T09:17:39.447Z</time></trkpt><trkpt lat="42.0035113" lon="12.6435177"><ele>101.83333333333333</ele><time>2026-05-03T09:17:40.446Z</time></trkpt><trkpt lat="42.0034537" lon="12.6435658"><ele>101.0</ele><time>2026-05-03T09:17:41.446Z</time></trkpt><trkpt lat="42.0033992" lon="12.6436167"><ele>100.85714285714286</ele><time>2026-05-03T09:17:42.447Z</time></trkpt><trkpt lat="42.0033482" lon="12.6436732"><ele>100.71428571428571</ele><time>2026-05-03T09:17:43.447Z</time></trkpt><trkpt lat="42.0032988" lon="12.643736"><ele>100.57142857142858</ele><time>2026-05-03T09:17:44.446Z</time></trkpt><trkpt lat="42.0032473" lon="12.6437981"><ele>100.42857142857143</ele><time>2026-05-03T09:17:45.446Z</time></trkpt><trkpt lat="42.0031937" lon="12.6438543"><ele>100.28571428571429</ele><time>2026-05-03T09:17:46.446Z</time></trkpt><trkpt lat="42.0031384" lon="12.6439076"><ele>100.14285714285715</ele><time>2026-05-03T09:17:47.447Z</time></trkpt><trkpt lat="42.0030832" lon="12.6439719"><ele>100.0</ele><time>2026-05-03T09:17:48.446Z</time></trkpt><trkpt lat="42.0030286" lon="12.6440351"><ele>99.42857142857143</ele><time>2026-05-03T09:17:49.447Z</time></trkpt><trkpt lat="42.0029769" lon="12.6440952"><ele>98.85714285714286</ele><time>2026-05-03T09:17:50.447Z</time></trkpt><trkpt lat="42.0029273" lon="12.6441524"><ele>98.28571428571428</ele><time>2026-05-03T09:17:51.447Z</time></trkpt><trkpt lat="42.0028781" lon="12.6442183"><ele>97.71428571428572</ele><time>2026-05-03T09:17:52.447Z</time></trkpt><trkpt lat="42.0028279" lon="12.6442765"><ele>97.14285714285714</ele><time>2026-05-03T09:17:53.446Z</time></trkpt><trkpt lat="42.0027728" lon="12.6443371"><ele>96.57142857142857</ele><time>2026-05-03T09:17:54.447Z</time></trkpt><trkpt lat="42.0027153" lon="12.6443994"><ele>96.0</ele><time>2026-05-03T09:17:55.447Z</time></trkpt><trkpt lat="42.002657" lon="12.6444692"><ele>95.99999999999999</ele><time>2026-05-03T09:17:56.446Z</time></trkpt><trkpt lat="42.0026067" lon="12.6445355"><ele>96.0</ele><time>2026-05-03T09:17:57.446Z</time></trkpt><trkpt lat="42.0025536" lon="12.6446078"><ele>96.0</ele><time>2026-05-03T09:17:58.447Z</time></trkpt><trkpt lat="42.0025069" lon="12.6446822"><ele>96.0</ele><time>2026-05-03T09:17:59.447Z</time></trkpt><trkpt lat="42.0024597" lon="12.6447546"><ele>96.0</ele><time>2026-05-03T09:18:00.446Z</time></trkpt><trkpt lat="42.002407" lon="12.6448287"><ele>95.99999999999999</ele><time>2026-05-03T09:18:01.447Z</time></trkpt><trkpt lat="42.002354" lon="12.6449038"><ele>96.0</ele><time>2026-05-03T09:18:02.447Z</time></trkpt><trkpt lat="42.0023061" lon="12.6449699"><ele>96.14285714285714</ele><time>2026-05-03T09:18:03.447Z</time></trkpt><trkpt lat="42.0022564" lon="12.6450333"><ele>96.28571428571428</ele><time>2026-05-03T09:18:04.446Z</time></trkpt><trkpt lat="42.0022062" lon="12.6451002"><ele>96.42857142857142</ele><time>2026-05-03T09:18:05.447Z</time></trkpt><trkpt lat="42.0021537" lon="12.6451657"><ele>96.57142857142857</ele><time>2026-05-03T09:18:06.447Z</time></trkpt><trkpt lat="42.0020991" lon="12.6452239"><ele>96.71428571428572</ele><time>2026-05-03T09:18:07.447Z</time></trkpt><trkpt lat="42.0020452" lon="12.6452814"><ele>96.85714285714285</ele><time>2026-05-03T09:18:08.446Z</time></trkpt><trkpt lat="42.0019905" lon="12.6453406"><ele>97.0</ele><time>2026-05-03T09:18:09.447Z</time></trkpt><trkpt lat="42.0019344" lon="12.6453973"><ele>96.66666666666667</ele><time>2026-05-03T09:18:10.447Z</time></trkpt><trkpt lat="42.0018798" lon="12.6454514"><ele>96.33333333333334</ele><time>2026-05-03T09:18:11.446Z</time></trkpt><trkpt lat="42.0017861" lon="12.6455412"><ele>96.0</ele><time>2026-05-03T09:18:13.446Z</time></trkpt><trkpt lat="42.0017183" lon="12.6456124"><ele>95.66666666666667</ele><time>2026-05-03T09:18:15.446Z</time></trkpt><trkpt lat="42.0016464" lon="12.6456859"><ele>95.33333333333334</ele><time>2026-05-03T09:18:17.446Z</time></trkpt><trkpt lat="42.001578" lon="12.6457606"><ele>95.0</ele><time>2026-05-03T09:18:19.446Z</time></trkpt><trkpt lat="42.0015088" lon="12.6458486"><ele>95.0</ele><time>2026-05-03T09:18:21.447Z</time></trkpt><trkpt lat="42.001428" lon="12.6459107"><ele>95.0</ele><time>2026-05-03T09:18:23.447Z</time></trkpt><trkpt lat="42.001331" lon="12.6459774"><ele>95.0</ele><time>2026-05-03T09:18:33.447Z</time></trkpt><trkpt lat="42.0012335" lon="12.6460269"><ele>95.0</ele><time>2026-05-03T09:18:35.446Z</time></trkpt><trkpt lat="42.001173" lon="12.6460721"><ele>95.0</ele><time>2026-05-03T09:18:36.446Z</time></trkpt><trkpt lat="42.0011243" lon="12.6461289"><ele>95.0</ele><time>2026-05-03T09:18:37.447Z</time></trkpt><trkpt lat="42.0010243" lon="12.6462093"><ele>93.75</ele><time>2026-05-03T09:18:39.447Z</time></trkpt><trkpt lat="42.0009252" lon="12.6462717"><ele>92.5</ele><time>2026-05-03T09:18:41.447Z</time></trkpt><trkpt lat="42.0008266" lon="12.6463347"><ele>91.25</ele><time>2026-05-03T09:18:43.447Z</time></trkpt><trkpt lat="42.0007235" lon="12.6463915"><ele>90.0</ele><time>2026-05-03T09:18:45.447Z</time></trkpt><trkpt lat="42.0006113" lon="12.6464566"><ele>88.83333333333333</ele><time>2026-05-03T09:18:47.446Z</time></trkpt><trkpt lat="42.0005493" lon="12.646486"><ele>87.66666666666667</ele><time>2026-05-03T09:18:48.446Z</time></trkpt><trkpt lat="42.000488" lon="12.6465167"><ele>86.5</ele><time>2026-05-03T09:18:49.447Z</time></trkpt><trkpt lat="42.0003817" lon="12.6465859"><ele>85.33333333333334</ele><time>2026-05-03T09:18:51.446Z</time></trkpt><trkpt lat="42.000281" lon="12.6466585"><ele>84.16666666666667</ele><time>2026-05-03T09:18:53.446Z</time></trkpt><trkpt lat="42.0002065" lon="12.6467121"><ele>83.0</ele><time>2026-05-03T09:18:55.446Z</time></trkpt><trkpt lat="42.0001377" lon="12.646756"><ele>83.0</ele><time>2026-05-03T09:18:57.446Z</time></trkpt><trkpt lat="42.0000725" lon="12.6467883"><ele>83.0</ele><time>2026-05-03T09:18:59.447Z</time></trkpt><trkpt lat="42.0000154" lon="12.6468273"><ele>83.0</ele><time>2026-05-03T09:19:01.446Z</time></trkpt><trkpt lat="41.9999561" lon="12.6468616"><ele>83.0</ele><time>2026-05-03T09:19:03.446Z</time></trkpt><trkpt lat="41.9998712" lon="12.6469194"><ele>83.0</ele><time>2026-05-03T09:19:06.447Z</time></trkpt><trkpt lat="41.9998047" lon="12.6469696"><ele>83.0</ele><time>2026-05-03T09:19:08.446Z</time></trkpt><trkpt lat="41.9997342" lon="12.6470301"><ele>83.71428571428571</ele><time>2026-05-03T09:19:10.446Z</time></trkpt><trkpt lat="41.999658" lon="12.6470673"><ele>84.42857142857143</ele><time>2026-05-03T09:19:12.447Z</time></trkpt><trkpt lat="41.99959" lon="12.6471049"><ele>85.14285714285714</ele><time>2026-05-03T09:19:14.446Z</time></trkpt><trkpt lat="41.9995161" lon="12.6471512"><ele>85.85714285714286</ele><time>2026-05-03T09:19:17.447Z</time></trkpt><trkpt lat="41.9994543" lon="12.6471943"><ele>86.57142857142857</ele><time>2026-05-03T09:19:22.446Z</time></trkpt><trkpt lat="41.9994023" lon="12.647245"><ele>87.28571428571429</ele><time>2026-05-03T09:19:25.446Z</time></trkpt><trkpt lat="41.999338" lon="12.6472879"><ele>88.0</ele><time>2026-05-03T09:19:28.447Z</time></trkpt><trkpt lat="41.9992806" lon="12.6473276"><ele>88.0</ele><time>2026-05-03T09:19:30.447Z</time></trkpt><trkpt lat="41.9992047" lon="12.6473814"><ele>88.0</ele><time>2026-05-03T09:19:32.447Z</time></trkpt><trkpt lat="41.9991261" lon="12.6474451"><ele>88.0</ele><time>2026-05-03T09:19:34.446Z</time></trkpt><trkpt lat="41.9990478" lon="12.6475059"><ele>88.0</ele><time>2026-05-03T09:19:36.447Z</time></trkpt><trkpt lat="41.9989712" lon="12.6475498"><ele>88.0</ele><time>2026-05-03T09:19:38.447Z</time></trkpt><trkpt lat="41.9989133" lon="12.6476"><ele>88.0</ele><time>2026-05-03T09:19:40.447Z</time></trkpt><trkpt lat="41.998836" lon="12.6476606"><ele>87.83333333333333</ele><time>2026-05-03T09:19:43.447Z</time></trkpt><trkpt lat="41.998758" lon="12.647702"><ele>87.66666666666666</ele><time>2026-05-03T09:19:46.447Z</time></trkpt><trkpt lat="41.998694" lon="12.6477679"><ele>87.5</ele><time>2026-05-03T09:19:49.447Z</time></trkpt><trkpt lat="41.9986275" lon="12.6478211"><ele>87.33333333333333</ele><time>2026-05-03T09:19:51.447Z</time></trkpt><trkpt lat="41.9985547" lon="12.6479021"><ele>87.16666666666667</ele><time>2026-05-03T09:19:53.446Z</time></trkpt><trkpt lat="41.9984753" lon="12.6479864"><ele>87.0</ele><time>2026-05-03T09:19:55.446Z</time></trkpt><trkpt lat="41.998396" lon="12.6480813"><ele>85.16666666666667</ele><time>2026-05-03T09:19:57.446Z</time></trkpt><trkpt lat="41.9983114" lon="12.6481713"><ele>83.33333333333333</ele><time>2026-05-03T09:19:59.446Z</time></trkpt><trkpt lat="41.9982313" lon="12.6482835"><ele>81.5</ele><time>2026-05-03T09:20:01.446Z</time></trkpt><trkpt lat="41.9981795" lon="12.6483346"><ele>79.66666666666666</ele><time>2026-05-03T09:20:02.447Z</time></trkpt><trkpt lat="41.9981322" lon="12.6483923"><ele>77.83333333333333</ele><time>2026-05-03T09:20:03.446Z</time></trkpt><trkpt lat="41.9980855" lon="12.648452"><ele>76.0</ele><time>2026-05-03T09:20:04.446Z</time></trkpt><trkpt lat="41.9980371" lon="12.6485211"><ele>76.0</ele><time>2026-05-03T09:20:05.446Z</time></trkpt><trkpt lat="41.9979882" lon="12.6485917"><ele>76.0</ele><time>2026-05-03T09:20:06.446Z</time></trkpt><trkpt lat="41.997937" lon="12.6486591"><ele>76.0</ele><time>2026-05-03T09:20:07.446Z</time></trkpt><trkpt lat="41.9978807" lon="12.6487269"><ele>76.0</ele><time>2026-05-03T09:20:08.447Z</time></trkpt><trkpt lat="41.9978247" lon="12.6487937"><ele>76.0</ele><time>2026-05-03T09:20:09.447Z</time></trkpt><trkpt lat="41.9977727" lon="12.6488644"><ele>76.0</ele><time>2026-05-03T09:20:10.447Z</time></trkpt><trkpt lat="41.9977198" lon="12.6489365"><ele>76.0</ele><time>2026-05-03T09:20:11.447Z</time></trkpt><trkpt lat="41.9976658" lon="12.6490074"><ele>75.71428571428571</ele><time>2026-05-03T09:20:12.447Z</time></trkpt><trkpt lat="41.9976105" lon="12.6490777"><ele>75.42857142857143</ele><time>2026-05-03T09:20:13.447Z</time></trkpt><trkpt lat="41.9975558" lon="12.6491452"><ele>75.14285714285714</ele><time>2026-05-03T09:20:14.447Z</time></trkpt><trkpt lat="41.9975013" lon="12.6492129"><ele>74.85714285714286</ele><time>2026-05-03T09:20:15.446Z</time></trkpt><trkpt lat="41.9974427" lon="12.6492757"><ele>74.57142857142857</ele><time>2026-05-03T09:20:16.446Z</time></trkpt><trkpt lat="41.9973879" lon="12.6493395"><ele>74.28571428571429</ele><time>2026-05-03T09:20:17.447Z</time></trkpt><trkpt lat="41.9973346" lon="12.6493972"><ele>74.0</ele><time>2026-05-03T09:20:18.447Z</time></trkpt><trkpt lat="41.9972829" lon="12.6494564"><ele>74.83333333333334</ele><time>2026-05-03T09:20:19.446Z</time></trkpt><trkpt lat="41.9972379" lon="12.6495248"><ele>75.66666666666667</ele><time>2026-05-03T09:20:20.447Z</time></trkpt><trkpt lat="41.9971891" lon="12.6495909"><ele>76.5</ele><time>2026-05-03T09:20:21.446Z</time></trkpt><trkpt lat="41.9971422" lon="12.6496511"><ele>77.33333333333333</ele><time>2026-05-03T09:20:22.446Z</time></trkpt><trkpt lat="41.9970544" lon="12.6497721"><ele>78.16666666666666</ele><time>2026-05-03T09:20:24.447Z</time></trkpt><trkpt lat="41.996975" lon="12.6498736"><ele>79.0</ele><time>2026-05-03T09:20:26.447Z</time></trkpt><trkpt lat="41.9969151" lon="12.6499503"><ele>79.0</ele><time>2026-05-03T09:20:28.447Z</time></trkpt><trkpt lat="41.9968704" lon="12.6500179"><ele>79.0</ele><time>2026-05-03T09:20:30.446Z</time></trkpt><trkpt lat="41.9968311" lon="12.6500842"><ele>79.0</ele><time>2026-05-03T09:20:32.446Z</time></trkpt><trkpt lat="41.9967731" lon="12.6501849"><ele>79.0</ele><time>2026-05-03T09:20:35.446Z</time></trkpt><trkpt lat="41.9967152" lon="12.6502863"><ele>79.0</ele><time>2026-05-03T09:20:38.446Z</time></trkpt><trkpt lat="41.9966598" lon="12.6503619"><ele>79.0</ele><time>2026-05-03T09:20:41.447Z</time></trkpt><trkpt lat="41.9965818" lon="12.6504449"><ele>78.5</ele><time>2026-05-03T09:20:44.447Z</time></trkpt><trkpt lat="41.996512" lon="12.6505133"><ele>78.0</ele><time>2026-05-03T09:20:46.446Z</time></trkpt><trkpt lat="41.9964444" lon="12.6505902"><ele>77.5</ele><time>2026-05-03T09:20:48.445Z</time></trkpt><trkpt lat="41.9963773" lon="12.6506458"><ele>77.0</ele><time>2026-05-03T09:20:51.446Z</time></trkpt><trkpt lat="41.9963143" lon="12.6506898"><ele>76.5</ele><time>2026-05-03T09:20:55.446Z</time></trkpt><trkpt lat="41.9962471" lon="12.6507443"><ele>76.0</ele><time>2026-05-03T09:20:58.445Z</time></trkpt><trkpt lat="41.9961801" lon="12.6507863"><ele>76.0</ele><time>2026-05-03T09:21:00.446Z</time></trkpt><trkpt lat="41.9960923" lon="12.6508554"><ele>76.0</ele><time>2026-05-03T09:21:02.445Z</time></trkpt><trkpt lat="41.9959898" lon="12.6509331"><ele>76.0</ele><time>2026-05-03T09:21:04.445Z</time></trkpt><trkpt lat="41.9959334" lon="12.6509718"><ele>76.0</ele><time>2026-05-03T09:21:05.445Z</time></trkpt><trkpt lat="41.9958345" lon="12.6510554"><ele>76.0</ele><time>2026-05-03T09:21:07.446Z</time></trkpt><trkpt lat="41.9957421" lon="12.6511255"><ele>75.66666666666666</ele><time>2026-05-03T09:21:09.445Z</time></trkpt><trkpt lat="41.9956525" lon="12.6511934"><ele>75.33333333333333</ele><time>2026-05-03T09:21:11.446Z</time></trkpt><trkpt lat="41.9955888" lon="12.6512386"><ele>75.0</ele><time>2026-05-03T09:21:14.445Z</time></trkpt><trkpt lat="41.9955453" lon="12.6513357"><ele>74.66666666666667</ele><time>2026-05-03T09:21:17.445Z</time></trkpt><trkpt lat="41.9955383" lon="12.6514234"><ele>74.33333333333334</ele><time>2026-05-03T09:21:18.446Z</time></trkpt><trkpt lat="41.9955406" lon="12.6515291"><ele>74.0</ele><time>2026-05-03T09:21:19.445Z</time></trkpt><trkpt lat="41.9955385" lon="12.6516474"><ele>74.0</ele><time>2026-05-03T09:21:20.446Z</time></trkpt><trkpt lat="41.9955384" lon="12.6517748"><ele>74.0</ele><time>2026-05-03T09:21:21.446Z</time></trkpt><trkpt lat="41.9955364" lon="12.6519066"><ele>74.0</ele><time>2026-05-03T09:21:22.445Z</time></trkpt><trkpt lat="41.9955418" lon="12.6520466"><ele>74.0</ele><time>2026-05-03T09:21:23.445Z</time></trkpt><trkpt lat="41.9955578" lon="12.652175"><ele>74.0</ele><time>2026-05-03T09:21:24.445Z</time></trkpt><trkpt lat="41.9955967" lon="12.6523041"><ele>74.2</ele><time>2026-05-03T09:21:25.446Z</time></trkpt><trkpt lat="41.9956544" lon="12.6524241"><ele>74.4</ele><time>2026-05-03T09:21:26.446Z</time></trkpt><trkpt lat="41.9957218" lon="12.6525392"><ele>74.6</ele><time>2026-05-03T09:21:27.446Z</time></trkpt><trkpt lat="41.9958039" lon="12.6526404"><ele>74.8</ele><time>2026-05-03T09:21:28.445Z</time></trkpt><trkpt lat="41.9958914" lon="12.6527437"><ele>75.0</ele><time>2026-05-03T09:21:29.445Z</time></trkpt><trkpt lat="41.9959802" lon="12.6528442"><ele>77.75</ele><time>2026-05-03T09:21:30.445Z</time></trkpt><trkpt lat="41.996074" lon="12.6529503"><ele>80.5</ele><time>2026-05-03T09:21:31.446Z</time></trkpt><trkpt lat="41.9961621" lon="12.6530545"><ele>83.25</ele><time>2026-05-03T09:21:32.446Z</time></trkpt><trkpt lat="41.9962551" lon="12.6531652"><ele>86.0</ele><time>2026-05-03T09:21:33.445Z</time></trkpt><trkpt lat="41.9963475" lon="12.6532751"><ele>86.0</ele><time>2026-05-03T09:21:34.445Z</time></trkpt><trkpt lat="41.9964347" lon="12.6533836"><ele>86.0</ele><time>2026-05-03T09:21:35.445Z</time></trkpt><trkpt lat="41.9965223" lon="12.6534924"><ele>86.0</ele><time>2026-05-03T09:21:36.445Z</time></trkpt><trkpt lat="41.9966058" lon="12.6535965"><ele>86.0</ele><time>2026-05-03T09:21:37.445Z</time></trkpt><trkpt lat="41.9966801" lon="12.653705"><ele>87.16666666666667</ele><time>2026-05-03T09:21:38.445Z</time></trkpt><trkpt lat="41.9967571" lon="12.6538064"><ele>88.33333333333334</ele><time>2026-05-03T09:21:39.446Z</time></trkpt><trkpt lat="41.9968321" lon="12.6538878"><ele>89.5</ele><time>2026-05-03T09:21:40.445Z</time></trkpt><trkpt lat="41.9969065" lon="12.6539518"><ele>90.66666666666667</ele><time>2026-05-03T09:21:41.445Z</time></trkpt><trkpt lat="41.9969693" lon="12.6540178"><ele>91.83333333333333</ele><time>2026-05-03T09:21:42.445Z</time></trkpt><trkpt lat="41.9970109" lon="12.6540816"><ele>93.0</ele><time>2026-05-03T09:21:43.446Z</time></trkpt><trkpt lat="41.9970218" lon="12.6542298"><ele>93.0</ele><time>2026-05-03T09:21:45.446Z</time></trkpt><trkpt lat="41.9970359" lon="12.6543261"><ele>93.0</ele><time>2026-05-03T09:21:46.445Z</time></trkpt><trkpt lat="41.9970752" lon="12.6544108"><ele>93.0</ele><time>2026-05-03T09:21:47.446Z</time></trkpt><trkpt lat="41.997137" lon="12.6544968"><ele>93.0</ele><time>2026-05-03T09:21:48.445Z</time></trkpt><trkpt lat="41.9972009" lon="12.654589"><ele>93.0</ele><time>2026-05-03T09:21:49.445Z</time></trkpt><trkpt lat="41.9972722" lon="12.6546715"><ele>93.0</ele><time>2026-05-03T09:21:50.446Z</time></trkpt><trkpt lat="41.9973457" lon="12.6547461"><ele>93.0</ele><time>2026-05-03T09:21:51.446Z</time></trkpt><trkpt lat="41.9974315" lon="12.6548195"><ele>93.0</ele><time>2026-05-03T09:21:52.445Z</time></trkpt><trkpt lat="41.9975193" lon="12.6548937"><ele>93.0</ele><time>2026-05-03T09:21:53.445Z</time></trkpt><trkpt lat="41.9976138" lon="12.6549635"><ele>93.0</ele><time>2026-05-03T09:21:54.446Z</time></trkpt><trkpt lat="41.9977101" lon="12.6550335"><ele>93.0</ele><time>2026-05-03T09:21:55.446Z</time></trkpt><trkpt lat="41.9978135" lon="12.6550902"><ele>95.0</ele><time>2026-05-03T09:21:56.445Z</time></trkpt><trkpt lat="41.9979245" lon="12.6551404"><ele>97.0</ele><time>2026-05-03T09:21:57.446Z</time></trkpt><trkpt lat="41.9980356" lon="12.6551785"><ele>99.0</ele><time>2026-05-03T09:21:58.446Z</time></trkpt><trkpt lat="41.9981526" lon="12.6552121"><ele>101.0</ele><time>2026-05-03T09:21:59.445Z</time></trkpt><trkpt lat="41.99827" lon="12.6552488"><ele>102.5</ele><time>2026-05-03T09:22:00.445Z</time></trkpt><trkpt lat="41.9983911" lon="12.655284"><ele>104.0</ele><time>2026-05-03T09:22:01.446Z</time></trkpt><trkpt lat="41.9985136" lon="12.6553223"><ele>105.5</ele><time>2026-05-03T09:22:02.446Z</time></trkpt><trkpt lat="41.998641" lon="12.655366"><ele>107.0</ele><time>2026-05-03T09:22:03.445Z</time></trkpt><trkpt lat="41.998767" lon="12.6554035"><ele>107.0</ele><time>2026-05-03T09:22:04.445Z</time></trkpt><trkpt lat="41.9988936" lon="12.6554443"><ele>107.0</ele><time>2026-05-03T09:22:05.445Z</time></trkpt><trkpt lat="41.9990185" lon="12.6554822"><ele>107.0</ele><time>2026-05-03T09:22:06.445Z</time></trkpt><trkpt lat="41.9991487" lon="12.6555298"><ele>107.0</ele><time>2026-05-03T09:22:07.445Z</time></trkpt><trkpt lat="41.9992755" lon="12.6555752"><ele>108.25</ele><time>2026-05-03T09:22:08.446Z</time></trkpt><trkpt lat="41.9994064" lon="12.6556237"><ele>109.5</ele><time>2026-05-03T09:22:09.445Z</time></trkpt><trkpt lat="41.9995371" lon="12.6556691"><ele>110.75</ele><time>2026-05-03T09:22:10.445Z</time></trkpt><trkpt lat="41.9996662" lon="12.6557157"><ele>112.0</ele><time>2026-05-03T09:22:11.445Z</time></trkpt><trkpt lat="41.999798" lon="12.6557609"><ele>112.0</ele><time>2026-05-03T09:22:12.446Z</time></trkpt><trkpt lat="41.9999302" lon="12.6557991"><ele>112.0</ele><time>2026-05-03T09:22:13.446Z</time></trkpt><trkpt lat="42.0000625" lon="12.655841"><ele>112.0</ele><time>2026-05-03T09:22:14.446Z</time></trkpt><trkpt lat="42.0001957" lon="12.6558827"><ele>112.0</ele><time>2026-05-03T09:22:15.445Z</time></trkpt><trkpt lat="42.0003335" lon="12.6559331"><ele>112.0</ele><time>2026-05-03T09:22:16.446Z</time></trkpt><trkpt lat="42.0004667" lon="12.6559745"><ele>112.0</ele><time>2026-05-03T09:22:17.445Z</time></trkpt><trkpt lat="42.0005984" lon="12.6560142"><ele>112.0</ele><time>2026-05-03T09:22:18.446Z</time></trkpt><trkpt lat="42.0007297" lon="12.6560533"><ele>112.0</ele><time>2026-05-03T09:22:19.446Z</time></trkpt><trkpt lat="42.0008571" lon="12.6560938"><ele>114.19999999999999</ele><time>2026-05-03T09:22:20.446Z</time></trkpt><trkpt lat="42.0009794" lon="12.6561418"><ele>116.39999999999999</ele><time>2026-05-03T09:22:21.445Z</time></trkpt><trkpt lat="42.0010905" lon="12.6561852"><ele>118.60000000000001</ele><time>2026-05-03T09:22:22.446Z</time></trkpt><trkpt lat="42.001183" lon="12.6562176"><ele>120.80000000000001</ele><time>2026-05-03T09:22:23.446Z</time></trkpt><trkpt lat="42.0012677" lon="12.6562399"><ele>123.0</ele><time>2026-05-03T09:22:24.446Z</time></trkpt><trkpt lat="42.0013598" lon="12.6562571"><ele>123.0</ele><time>2026-05-03T09:22:25.445Z</time></trkpt><trkpt lat="42.0014543" lon="12.6562711"><ele>123.00000000000001</ele><time>2026-05-03T09:22:26.446Z</time></trkpt><trkpt lat="42.0015502" lon="12.6562901"><ele>123.00000000000001</ele><time>2026-05-03T09:22:27.446Z</time></trkpt><trkpt lat="42.0016532" lon="12.6563066"><ele>123.0</ele><time>2026-05-03T09:22:28.446Z</time></trkpt><trkpt lat="42.0017534" lon="12.6563259"><ele>123.0</ele><time>2026-05-03T09:22:29.446Z</time></trkpt><trkpt lat="42.0018507" lon="12.6563496"><ele>122.4</ele><time>2026-05-03T09:22:30.445Z</time></trkpt><trkpt lat="42.001948" lon="12.6563708"><ele>121.80000000000001</ele><time>2026-05-03T09:22:31.446Z</time></trkpt><trkpt lat="42.0020432" lon="12.6563979"><ele>121.2</ele><time>2026-05-03T09:22:32.445Z</time></trkpt><trkpt lat="42.002132" lon="12.6564148"><ele>120.6</ele><time>2026-05-03T09:22:33.445Z</time></trkpt><trkpt lat="42.0022194" lon="12.6564336"><ele>120.0</ele><time>2026-05-03T09:22:34.446Z</time></trkpt><trkpt lat="42.0023011" lon="12.6564494"><ele>120.0</ele><time>2026-05-03T09:22:35.446Z</time></trkpt><trkpt lat="42.0023826" lon="12.6564714"><ele>120.0</ele><time>2026-05-03T09:22:36.445Z</time></trkpt><trkpt lat="42.0024571" lon="12.6564872"><ele>120.0</ele><time>2026-05-03T09:22:37.445Z</time></trkpt><trkpt lat="42.0025318" lon="12.6565058"><ele>120.0</ele><time>2026-05-03T09:22:38.445Z</time></trkpt><trkpt lat="42.0026051" lon="12.6565238"><ele>120.0</ele><time>2026-05-03T09:22:39.445Z</time></trkpt><trkpt lat="42.0026744" lon="12.6565455"><ele>120.0</ele><time>2026-05-03T09:22:40.445Z</time></trkpt><trkpt lat="42.0027463" lon="12.6565694"><ele>119.0</ele><time>2026-05-03T09:22:41.445Z</time></trkpt><trkpt lat="42.002819" lon="12.6565873"><ele>118.0</ele><time>2026-05-03T09:22:42.445Z</time></trkpt><trkpt lat="42.0028953" lon="12.6566032"><ele>117.0</ele><time>2026-05-03T09:22:43.445Z</time></trkpt><trkpt lat="42.002971" lon="12.6566192"><ele>116.0</ele><time>2026-05-03T09:22:44.445Z</time></trkpt><trkpt lat="42.0030429" lon="12.6566391"><ele>115.0</ele><time>2026-05-03T09:22:45.445Z</time></trkpt><trkpt lat="42.0031162" lon="12.6566701"><ele>114.0</ele><time>2026-05-03T09:22:46.445Z</time></trkpt><trkpt lat="42.0031883" lon="12.6566981"><ele>114.0</ele><time>2026-05-03T09:22:47.446Z</time></trkpt><trkpt lat="42.0032623" lon="12.6567212"><ele>114.0</ele><time>2026-05-03T09:22:48.446Z</time></trkpt><trkpt lat="42.003338" lon="12.6567407"><ele>114.0</ele><time>2026-05-03T09:22:49.446Z</time></trkpt><trkpt lat="42.0034136" lon="12.6567781"><ele>114.0</ele><time>2026-05-03T09:22:50.446Z</time></trkpt><trkpt lat="42.003491" lon="12.6568227"><ele>114.0</ele><time>2026-05-03T09:22:51.445Z</time></trkpt><trkpt lat="42.0035622" lon="12.6568798"><ele>114.0</ele><time>2026-05-03T09:22:52.446Z</time></trkpt><trkpt lat="42.0036403" lon="12.6569499"><ele>112.80000000000001</ele><time>2026-05-03T09:22:53.445Z</time></trkpt><trkpt lat="42.0037154" lon="12.6570257"><ele>111.60000000000001</ele><time>2026-05-03T09:22:54.446Z</time></trkpt><trkpt lat="42.0037894" lon="12.6571024"><ele>110.4</ele><time>2026-05-03T09:22:55.446Z</time></trkpt><trkpt lat="42.003863" lon="12.6571859"><ele>109.2</ele><time>2026-05-03T09:22:56.446Z</time></trkpt><trkpt lat="42.003939" lon="12.6572632"><ele>108.0</ele><time>2026-05-03T09:22:57.446Z</time></trkpt><trkpt lat="42.0040146" lon="12.657342"><ele>108.0</ele><time>2026-05-03T09:22:58.446Z</time></trkpt><trkpt lat="42.0040882" lon="12.6574139"><ele>108.0</ele><time>2026-05-03T09:22:59.446Z</time></trkpt><trkpt lat="42.0041589" lon="12.657483"><ele>108.0</ele><time>2026-05-03T09:23:00.445Z</time></trkpt><trkpt lat="42.0042288" lon="12.6575531"><ele>108.0</ele><time>2026-05-03T09:23:01.446Z</time></trkpt><trkpt lat="42.0042984" lon="12.6576247"><ele>108.0</ele><time>2026-05-03T09:23:02.445Z</time></trkpt><trkpt lat="42.0043631" lon="12.6576961"><ele>108.0</ele><time>2026-05-03T09:23:03.446Z</time></trkpt><trkpt lat="42.0044303" lon="12.657767"><ele>104.5</ele><time>2026-05-03T09:23:04.445Z</time></trkpt><trkpt lat="42.0044946" lon="12.6578316"><ele>101.0</ele><time>2026-05-03T09:23:05.446Z</time></trkpt><trkpt lat="42.0045568" lon="12.6578991"><ele>97.5</ele><time>2026-05-03T09:23:06.446Z</time></trkpt><trkpt lat="42.0046151" lon="12.6579624"><ele>94.0</ele><time>2026-05-03T09:23:07.446Z</time></trkpt><trkpt lat="42.0046729" lon="12.6580182"><ele>90.5</ele><time>2026-05-03T09:23:08.446Z</time></trkpt><trkpt lat="42.0047658" lon="12.6581038"><ele>87.0</ele><time>2026-05-03T09:23:10.446Z</time></trkpt><trkpt lat="42.0048121" lon="12.6581691"><ele>87.0</ele><time>2026-05-03T09:23:12.446Z</time></trkpt><trkpt lat="42.0047877" lon="12.6582687"><ele>87.0</ele><time>2026-05-03T09:23:15.446Z</time></trkpt><trkpt lat="42.0047186" lon="12.6584073"><ele>87.0</ele><time>2026-05-03T09:23:17.446Z</time></trkpt><trkpt lat="42.0046791" lon="12.6584995"><ele>87.0</ele><time>2026-05-03T09:23:18.445Z</time></trkpt><trkpt lat="42.004631" lon="12.6585983"><ele>87.0</ele><time>2026-05-03T09:23:19.445Z</time></trkpt><trkpt lat="42.0045849" lon="12.6587109"><ele>86.6</ele><time>2026-05-03T09:23:20.445Z</time></trkpt><trkpt lat="42.0045381" lon="12.6588444"><ele>86.19999999999999</ele><time>2026-05-03T09:23:21.445Z</time></trkpt><trkpt lat="42.0044898" lon="12.6589732"><ele>85.8</ele><time>2026-05-03T09:23:22.445Z</time></trkpt><trkpt lat="42.0044409" lon="12.6591174"><ele>85.4</ele><time>2026-05-03T09:23:23.445Z</time></trkpt><trkpt lat="42.0043947" lon="12.6592568"><ele>85.0</ele><time>2026-05-03T09:23:24.446Z</time></trkpt><trkpt lat="42.0043454" lon="12.6594004"><ele>83.0</ele><time>2026-05-03T09:23:25.446Z</time></trkpt><trkpt lat="42.0042988" lon="12.6595489"><ele>81.0</ele><time>2026-05-03T09:23:26.446Z</time></trkpt><trkpt lat="42.0042541" lon="12.6596913"><ele>79.0</ele><time>2026-05-03T09:23:27.446Z</time></trkpt><trkpt lat="42.004206" lon="12.6598302"><ele>77.0</ele><time>2026-05-03T09:23:28.446Z</time></trkpt><trkpt lat="42.004157" lon="12.6599684"><ele>79.25</ele><time>2026-05-03T09:23:29.446Z</time></trkpt><trkpt lat="42.0041107" lon="12.6601148"><ele>81.5</ele><time>2026-05-03T09:23:30.445Z</time></trkpt><trkpt lat="42.0040625" lon="12.6602513"><ele>83.75</ele><time>2026-05-03T09:23:31.445Z</time></trkpt><trkpt lat="42.0040153" lon="12.6603924"><ele>86.0</ele><time>2026-05-03T09:23:32.445Z</time></trkpt><trkpt lat="42.0039703" lon="12.6605359"><ele>86.0</ele><time>2026-05-03T09:23:33.445Z</time></trkpt><trkpt lat="42.0039241" lon="12.660682"><ele>86.0</ele><time>2026-05-03T09:23:34.445Z</time></trkpt><trkpt lat="42.0038775" lon="12.660828"><ele>86.0</ele><time>2026-05-03T09:23:35.445Z</time></trkpt><trkpt lat="42.0038296" lon="12.6609755"><ele>86.0</ele><time>2026-05-03T09:23:36.445Z</time></trkpt><trkpt lat="42.0037815" lon="12.6611247"><ele>83.5</ele><time>2026-05-03T09:23:37.445Z</time></trkpt><trkpt lat="42.0037328" lon="12.6612717"><ele>81.0</ele><time>2026-05-03T09:23:38.445Z</time></trkpt><trkpt lat="42.0036803" lon="12.6614157"><ele>78.5</ele><time>2026-05-03T09:23:39.445Z</time></trkpt><trkpt lat="42.0036214" lon="12.6615554"><ele>76.0</ele><time>2026-05-03T09:23:40.446Z</time></trkpt><trkpt lat="42.003556" lon="12.6616891"><ele>76.0</ele><time>2026-05-03T09:23:41.445Z</time></trkpt><trkpt lat="42.003491" lon="12.6618178"><ele>76.0</ele><time>2026-05-03T09:23:42.445Z</time></trkpt><trkpt lat="42.0034228" lon="12.6619416"><ele>76.0</ele><time>2026-05-03T09:23:43.445Z</time></trkpt><trkpt lat="42.0033547" lon="12.6620643"><ele>76.0</ele><time>2026-05-03T09:23:44.446Z</time></trkpt><trkpt lat="42.003284" lon="12.6621864"><ele>76.25</ele><time>2026-05-03T09:23:45.445Z</time></trkpt><trkpt lat="42.0032121" lon="12.6623071"><ele>76.5</ele><time>2026-05-03T09:23:46.446Z</time></trkpt><trkpt lat="42.003139" lon="12.6624336"><ele>76.75</ele><time>2026-05-03T09:23:47.446Z</time></trkpt><trkpt lat="42.0030663" lon="12.6625631"><ele>77.0</ele><time>2026-05-03T09:23:48.445Z</time></trkpt><trkpt lat="42.0029966" lon="12.6626959"><ele>75.0</ele><time>2026-05-03T09:23:49.445Z</time></trkpt><trkpt lat="42.002928" lon="12.6628287"><ele>73.0</ele><time>2026-05-03T09:23:50.445Z</time></trkpt><trkpt lat="42.0028573" lon="12.662962"><ele>71.0</ele><time>2026-05-03T09:23:51.445Z</time></trkpt><trkpt lat="42.0027813" lon="12.6630905"><ele>69.0</ele><time>2026-05-03T09:23:52.445Z</time></trkpt><trkpt lat="42.002709" lon="12.6632245"><ele>69.0</ele><time>2026-05-03T09:23:53.446Z</time></trkpt><trkpt lat="42.0026383" lon="12.6633631"><ele>69.0</ele><time>2026-05-03T09:23:54.446Z</time></trkpt><trkpt lat="42.002566" lon="12.6634994"><ele>69.0</ele><time>2026-05-03T09:23:55.445Z</time></trkpt><trkpt lat="42.0024995" lon="12.6636324"><ele>69.0</ele><time>2026-05-03T09:23:56.445Z</time></trkpt><trkpt lat="42.0024304" lon="12.6637632"><ele>70.25</ele><time>2026-05-03T09:23:57.446Z</time></trkpt><trkpt lat="42.0023628" lon="12.6638949"><ele>71.5</ele><time>2026-05-03T09:23:58.446Z</time></trkpt><trkpt lat="42.0022952" lon="12.6640229"><ele>72.75</ele><time>2026-05-03T09:23:59.445Z</time></trkpt><trkpt lat="42.0022262" lon="12.6641544"><ele>74.0</ele><time>2026-05-03T09:24:00.445Z</time></trkpt><trkpt lat="42.0021575" lon="12.6642891"><ele>74.0</ele><time>2026-05-03T09:24:01.446Z</time></trkpt><trkpt lat="42.002092" lon="12.6644182"><ele>74.0</ele><time>2026-05-03T09:24:02.445Z</time></trkpt><trkpt lat="42.002027" lon="12.6645527"><ele>74.0</ele><time>2026-05-03T09:24:03.446Z</time></trkpt><trkpt lat="42.0019614" lon="12.6646828"><ele>74.0</ele><time>2026-05-03T09:24:04.445Z</time></trkpt><trkpt lat="42.0018997" lon="12.6648098"><ele>72.75</ele><time>2026-05-03T09:24:05.446Z</time></trkpt><trkpt lat="42.0018336" lon="12.6649409"><ele>71.5</ele><time>2026-05-03T09:24:06.445Z</time></trkpt><trkpt lat="42.0017677" lon="12.6650669"><ele>70.25</ele><time>2026-05-03T09:24:07.445Z</time></trkpt><trkpt lat="42.0016993" lon="12.6651932"><ele>69.0</ele><time>2026-05-03T09:24:08.446Z</time></trkpt><trkpt lat="42.0016269" lon="12.6653186"><ele>69.0</ele><time>2026-05-03T09:24:09.446Z</time></trkpt><trkpt lat="42.0015504" lon="12.6654405"><ele>69.0</ele><time>2026-05-03T09:24:10.446Z</time></trkpt><trkpt lat="42.001473" lon="12.6655607"><ele>69.0</ele><time>2026-05-03T09:24:11.445Z</time></trkpt><trkpt lat="42.0013978" lon="12.665683"><ele>69.0</ele><time>2026-05-03T09:24:12.445Z</time></trkpt><trkpt lat="42.001322" lon="12.6658104"><ele>69.0</ele><time>2026-05-03T09:24:13.445Z</time></trkpt><trkpt lat="42.0012526" lon="12.6659348"><ele>69.0</ele><time>2026-05-03T09:24:14.445Z</time></trkpt><trkpt lat="42.001184" lon="12.6660592"><ele>69.0</ele><time>2026-05-03T09:24:15.446Z</time></trkpt><trkpt lat="42.0011109" lon="12.6661737"><ele>69.0</ele><time>2026-05-03T09:24:16.445Z</time></trkpt><trkpt lat="42.0010392" lon="12.6662927"><ele>68.4</ele><time>2026-05-03T09:24:17.446Z</time></trkpt><trkpt lat="42.0009659" lon="12.6664112"><ele>67.80000000000001</ele><time>2026-05-03T09:24:18.446Z</time></trkpt><trkpt lat="42.0008982" lon="12.6665271"><ele>67.19999999999999</ele><time>2026-05-03T09:24:19.446Z</time></trkpt><trkpt lat="42.0008355" lon="12.6666441"><ele>66.6</ele><time>2026-05-03T09:24:20.446Z</time></trkpt><trkpt lat="42.0007694" lon="12.6667666"><ele>66.0</ele><time>2026-05-03T09:24:21.446Z</time></trkpt><trkpt lat="42.0007005" lon="12.6668833"><ele>66.2</ele><time>2026-05-03T09:24:22.446Z</time></trkpt><trkpt lat="42.0006355" lon="12.666999"><ele>66.39999999999999</ele><time>2026-05-03T09:24:23.445Z</time></trkpt><trkpt lat="42.0005711" lon="12.667116"><ele>66.6</ele><time>2026-05-03T09:24:24.446Z</time></trkpt><trkpt lat="42.0005087" lon="12.66723"><ele>66.8</ele><time>2026-05-03T09:24:25.445Z</time></trkpt><trkpt lat="42.0004469" lon="12.6673348"><ele>67.0</ele><time>2026-05-03T09:24:26.446Z</time></trkpt><trkpt lat="42.0003736" lon="12.6674242"><ele>67.0</ele><time>2026-05-03T09:24:27.446Z</time></trkpt><trkpt lat="42.0002959" lon="12.6674985"><ele>67.0</ele><time>2026-05-03T09:24:28.446Z</time></trkpt><trkpt lat="42.0002167" lon="12.6675726"><ele>67.0</ele><time>2026-05-03T09:24:29.446Z</time></trkpt><trkpt lat="42.000134" lon="12.6676403"><ele>67.0</ele><time>2026-05-03T09:24:30.446Z</time></trkpt><trkpt lat="42.0000514" lon="12.6677051"><ele>67.0</ele><time>2026-05-03T09:24:31.446Z</time></trkpt><trkpt lat="41.9999774" lon="12.6677458"><ele>67.0</ele><time>2026-05-03T09:24:32.446Z</time></trkpt><trkpt lat="41.999906" lon="12.6677746"><ele>67.0</ele><time>2026-05-03T09:24:33.445Z</time></trkpt><trkpt lat="41.9997995" lon="12.6678236"><ele>67.0</ele><time>2026-05-03T09:24:35.445Z</time></trkpt><trkpt lat="41.9997815" lon="12.6679496"><ele>67.0</ele><time>2026-05-03T09:24:37.446Z</time></trkpt><trkpt lat="41.9998206" lon="12.6680171"><ele>67.0</ele><time>2026-05-03T09:24:38.445Z</time></trkpt><trkpt lat="41.9998916" lon="12.6680567"><ele>67.0</ele><time>2026-05-03T09:24:39.445Z</time></trkpt><trkpt lat="41.9999739" lon="12.6680578"><ele>66.16666666666666</ele><time>2026-05-03T09:24:40.446Z</time></trkpt><trkpt lat="42.0000619" lon="12.6680664"><ele>65.33333333333333</ele><time>2026-05-03T09:24:41.445Z</time></trkpt><trkpt lat="42.0001441" lon="12.668054"><ele>64.5</ele><time>2026-05-03T09:24:42.445Z</time></trkpt><trkpt lat="42.000234" lon="12.6680533"><ele>63.66666666666667</ele><time>2026-05-03T09:24:43.446Z</time></trkpt><trkpt lat="42.0003284" lon="12.6680514"><ele>62.833333333333336</ele><time>2026-05-03T09:24:44.445Z</time></trkpt><trkpt lat="42.0004226" lon="12.6680482"><ele>62.0</ele><time>2026-05-03T09:24:45.445Z</time></trkpt><trkpt lat="42.0005206" lon="12.6680481"><ele>62.0</ele><time>2026-05-03T09:24:46.446Z</time></trkpt><trkpt lat="42.0006204" lon="12.6680469"><ele>62.0</ele><time>2026-05-03T09:24:47.446Z</time></trkpt><trkpt lat="42.0007196" lon="12.6680346"><ele>62.0</ele><time>2026-05-03T09:24:48.445Z</time></trkpt><trkpt lat="42.0008203" lon="12.6680171"><ele>62.0</ele><time>2026-05-03T09:24:49.446Z</time></trkpt><trkpt lat="42.0009198" lon="12.6679889"><ele>62.0</ele><time>2026-05-03T09:24:50.445Z</time></trkpt><trkpt lat="42.0010204" lon="12.6679522"><ele>62.2</ele><time>2026-05-03T09:24:51.445Z</time></trkpt><trkpt lat="42.0011249" lon="12.667915"><ele>62.400000000000006</ele><time>2026-05-03T09:24:52.446Z</time></trkpt><trkpt lat="42.0012339" lon="12.6678876"><ele>62.599999999999994</ele><time>2026-05-03T09:24:53.446Z</time></trkpt><trkpt lat="42.0013372" lon="12.6678635"><ele>62.8</ele><time>2026-05-03T09:24:54.445Z</time></trkpt><trkpt lat="42.0014348" lon="12.6678558"><ele>63.0</ele><time>2026-05-03T09:24:55.446Z</time></trkpt><trkpt lat="42.0015377" lon="12.6678554"><ele>63.0</ele><time>2026-05-03T09:24:56.446Z</time></trkpt><trkpt lat="42.0016404" lon="12.6678865"><ele>63.0</ele><time>2026-05-03T09:24:57.446Z</time></trkpt><trkpt lat="42.0017448" lon="12.6679294"><ele>63.0</ele><time>2026-05-03T09:24:58.445Z</time></trkpt><trkpt lat="42.0018483" lon="12.6679601"><ele>63.0</ele><time>2026-05-03T09:24:59.445Z</time></trkpt><trkpt lat="42.001955" lon="12.6679837"><ele>63.0</ele><time>2026-05-03T09:25:00.446Z</time></trkpt><trkpt lat="42.002058" lon="12.6680236"><ele>63.25</ele><time>2026-05-03T09:25:01.445Z</time></trkpt><trkpt lat="42.002169" lon="12.668066"><ele>63.5</ele><time>2026-05-03T09:25:02.445Z</time></trkpt><trkpt lat="42.0022777" lon="12.6681171"><ele>63.75</ele><time>2026-05-03T09:25:03.446Z</time></trkpt><trkpt lat="42.002386" lon="12.6681637"><ele>64.0</ele><time>2026-05-03T09:25:04.446Z</time></trkpt><trkpt lat="42.0024969" lon="12.6682101"><ele>64.25</ele><time>2026-05-03T09:25:05.445Z</time></trkpt><trkpt lat="42.0026112" lon="12.668257"><ele>64.5</ele><time>2026-05-03T09:25:06.445Z</time></trkpt><trkpt lat="42.0027258" lon="12.6683046"><ele>64.75</ele><time>2026-05-03T09:25:07.446Z</time></trkpt><trkpt lat="42.0028429" lon="12.6683779"><ele>65.0</ele><time>2026-05-03T09:25:08.445Z</time></trkpt><trkpt lat="42.0029582" lon="12.6684324"><ele>65.0</ele><time>2026-05-03T09:25:09.446Z</time></trkpt><trkpt lat="42.0030744" lon="12.6684868"><ele>65.0</ele><time>2026-05-03T09:25:10.445Z</time></trkpt><trkpt lat="42.00319" lon="12.6685415"><ele>65.0</ele><time>2026-05-03T09:25:11.446Z</time></trkpt><trkpt lat="42.0033117" lon="12.6685929"><ele>65.0</ele><time>2026-05-03T09:25:12.445Z</time></trkpt><trkpt lat="42.0034306" lon="12.6686457"><ele>65.5</ele><time>2026-05-03T09:25:13.445Z</time></trkpt><trkpt lat="42.0035482" lon="12.6687044"><ele>66.0</ele><time>2026-05-03T09:25:14.445Z</time></trkpt><trkpt lat="42.0036627" lon="12.6687554"><ele>66.5</ele><time>2026-05-03T09:25:15.445Z</time></trkpt><trkpt lat="42.0037777" lon="12.6688042"><ele>67.0</ele><time>2026-05-03T09:25:16.446Z</time></trkpt><trkpt lat="42.003892" lon="12.6688534"><ele>67.0</ele><time>2026-05-03T09:25:17.445Z</time></trkpt><trkpt lat="42.0040031" lon="12.6689029"><ele>67.0</ele><time>2026-05-03T09:25:18.446Z</time></trkpt><trkpt lat="42.0041119" lon="12.6689494"><ele>67.0</ele><time>2026-05-03T09:25:19.445Z</time></trkpt><trkpt lat="42.0042197" lon="12.6690018"><ele>67.0</ele><time>2026-05-03T09:25:20.446Z</time></trkpt><trkpt lat="42.0043275" lon="12.6690374"><ele>66.75</ele><time>2026-05-03T09:25:21.446Z</time></trkpt><trkpt lat="42.0044379" lon="12.6690673"><ele>66.5</ele><time>2026-05-03T09:25:22.446Z</time></trkpt><trkpt lat="42.0045495" lon="12.6690844"><ele>66.25</ele><time>2026-05-03T09:25:23.445Z</time></trkpt><trkpt lat="42.0046638" lon="12.6691056"><ele>66.0</ele><time>2026-05-03T09:25:24.446Z</time></trkpt><trkpt lat="42.004779" lon="12.6691185"><ele>66.0</ele><time>2026-05-03T09:25:25.446Z</time></trkpt><trkpt lat="42.0048965" lon="12.6691321"><ele>66.0</ele><time>2026-05-03T09:25:26.445Z</time></trkpt><trkpt lat="42.0050134" lon="12.6691463"><ele>66.0</ele><time>2026-05-03T09:25:27.445Z</time></trkpt><trkpt lat="42.0051282" lon="12.6691627"><ele>66.0</ele><time>2026-05-03T09:25:28.445Z</time></trkpt><trkpt lat="42.0052429" lon="12.6691824"><ele>66.0</ele><time>2026-05-03T09:25:29.445Z</time></trkpt><trkpt lat="42.0053532" lon="12.6692004"><ele>66.0</ele><time>2026-05-03T09:25:30.445Z</time></trkpt><trkpt lat="42.0054607" lon="12.6692188"><ele>66.0</ele><time>2026-05-03T09:25:31.445Z</time></trkpt><trkpt lat="42.0055699" lon="12.6692365"><ele>66.0</ele><time>2026-05-03T09:25:32.445Z</time></trkpt><trkpt lat="42.0056746" lon="12.6692596"><ele>66.0</ele><time>2026-05-03T09:25:33.445Z</time></trkpt><trkpt lat="42.005782" lon="12.6692837"><ele>66.25</ele><time>2026-05-03T09:25:34.446Z</time></trkpt><trkpt lat="42.0058946" lon="12.6693061"><ele>66.5</ele><time>2026-05-03T09:25:35.445Z</time></trkpt><trkpt lat="42.0060064" lon="12.6693301"><ele>66.75</ele><time>2026-05-03T09:25:36.446Z</time></trkpt><trkpt lat="42.0061184" lon="12.6693628"><ele>67.0</ele><time>2026-05-03T09:25:37.445Z</time></trkpt><trkpt lat="42.0062276" lon="12.6694067"><ele>67.0</ele><time>2026-05-03T09:25:38.446Z</time></trkpt><trkpt lat="42.0063385" lon="12.6694505"><ele>67.0</ele><time>2026-05-03T09:25:39.446Z</time></trkpt><trkpt lat="42.006453" lon="12.6694904"><ele>67.0</ele><time>2026-05-03T09:25:40.446Z</time></trkpt><trkpt lat="42.0065682" lon="12.6695302"><ele>67.0</ele><time>2026-05-03T09:25:41.446Z</time></trkpt><trkpt lat="42.0066823" lon="12.6695703"><ele>67.0</ele><time>2026-05-03T09:25:42.446Z</time></trkpt><trkpt lat="42.0067966" lon="12.6696083"><ele>67.0</ele><time>2026-05-03T09:25:43.445Z</time></trkpt><trkpt lat="42.0069153" lon="12.669645"><ele>67.0</ele><time>2026-05-03T09:25:44.446Z</time></trkpt><trkpt lat="42.0070303" lon="12.6696812"><ele>67.0</ele><time>2026-05-03T09:25:45.446Z</time></trkpt><trkpt lat="42.007146" lon="12.6697234"><ele>67.0</ele><time>2026-05-03T09:25:46.446Z</time></trkpt><trkpt lat="42.0072608" lon="12.6697661"><ele>67.0</ele><time>2026-05-03T09:25:47.445Z</time></trkpt><trkpt lat="42.0073799" lon="12.6697993"><ele>67.0</ele><time>2026-05-03T09:25:48.446Z</time></trkpt><trkpt lat="42.0074979" lon="12.6698356"><ele>67.0</ele><time>2026-05-03T09:25:49.445Z</time></trkpt><trkpt lat="42.007616" lon="12.6698775"><ele>67.5</ele><time>2026-05-03T09:25:50.445Z</time></trkpt><trkpt lat="42.0077322" lon="12.669911"><ele>68.0</ele><time>2026-05-03T09:25:51.446Z</time></trkpt><trkpt lat="42.0078466" lon="12.6699426"><ele>68.5</ele><time>2026-05-03T09:25:52.446Z</time></trkpt><trkpt lat="42.0079601" lon="12.6699721"><ele>69.0</ele><time>2026-05-03T09:25:53.445Z</time></trkpt><trkpt lat="42.0080745" lon="12.6699856"><ele>69.0</ele><time>2026-05-03T09:25:54.445Z</time></trkpt><trkpt lat="42.0081892" lon="12.6699886"><ele>69.0</ele><time>2026-05-03T09:25:55.445Z</time></trkpt><trkpt lat="42.0083036" lon="12.6699718"><ele>69.0</ele><time>2026-05-03T09:25:56.446Z</time></trkpt><trkpt lat="42.0084115" lon="12.6699375"><ele>69.0</ele><time>2026-05-03T09:25:57.445Z</time></trkpt><trkpt lat="42.0085121" lon="12.6698953"><ele>69.0</ele><time>2026-05-03T09:25:58.446Z</time></trkpt><trkpt lat="42.0086138" lon="12.6698511"><ele>69.60000000000001</ele><time>2026-05-03T09:25:59.446Z</time></trkpt><trkpt lat="42.0087181" lon="12.6697982"><ele>70.2</ele><time>2026-05-03T09:26:00.446Z</time></trkpt><trkpt lat="42.0088107" lon="12.6697322"><ele>70.80000000000001</ele><time>2026-05-03T09:26:01.445Z</time></trkpt><trkpt lat="42.0088943" lon="12.6696477"><ele>71.4</ele><time>2026-05-03T09:26:02.446Z</time></trkpt><trkpt lat="42.0089772" lon="12.6695491"><ele>72.0</ele><time>2026-05-03T09:26:03.445Z</time></trkpt><trkpt lat="42.009061" lon="12.669456"><ele>73.0</ele><time>2026-05-03T09:26:04.446Z</time></trkpt><trkpt lat="42.0091449" lon="12.6693642"><ele>74.0</ele><time>2026-05-03T09:26:05.445Z</time></trkpt><trkpt lat="42.0092277" lon="12.6692806"><ele>75.0</ele><time>2026-05-03T09:26:06.446Z</time></trkpt><trkpt lat="42.0093055" lon="12.6691974"><ele>76.0</ele><time>2026-05-03T09:26:07.446Z</time></trkpt><trkpt lat="42.0093824" lon="12.6691218"><ele>77.0</ele><time>2026-05-03T09:26:08.446Z</time></trkpt><trkpt lat="42.0094659" lon="12.6690646"><ele>77.0</ele><time>2026-05-03T09:26:09.446Z</time></trkpt><trkpt lat="42.0095524" lon="12.6690255"><ele>77.0</ele><time>2026-05-03T09:26:10.446Z</time></trkpt><trkpt lat="42.0096408" lon="12.6690042"><ele>77.0</ele><time>2026-05-03T09:26:11.445Z</time></trkpt><trkpt lat="42.0097263" lon="12.6690145"><ele>77.0</ele><time>2026-05-03T09:26:12.445Z</time></trkpt><trkpt lat="42.0098017" lon="12.6690539"><ele>77.0</ele><time>2026-05-03T09:26:13.446Z</time></trkpt><trkpt lat="42.0098588" lon="12.669135"><ele>77.0</ele><time>2026-05-03T09:26:14.446Z</time></trkpt><trkpt lat="42.0098937" lon="12.6692266"><ele>77.0</ele><time>2026-05-03T09:26:15.446Z</time></trkpt><trkpt lat="42.0099224" lon="12.6693285"><ele>77.0</ele><time>2026-05-03T09:26:16.446Z</time></trkpt><trkpt lat="42.0099499" lon="12.669433"><ele>77.0</ele><time>2026-05-03T09:26:17.445Z</time></trkpt><trkpt lat="42.0099792" lon="12.6695344"><ele>77.0</ele><time>2026-05-03T09:26:18.445Z</time></trkpt><trkpt lat="42.010011" lon="12.6696217"><ele>77.0</ele><time>2026-05-03T09:26:19.445Z</time></trkpt><trkpt lat="42.0100391" lon="12.6697045"><ele>77.0</ele><time>2026-05-03T09:26:20.445Z</time></trkpt><trkpt lat="42.0100805" lon="12.6698194"><ele>75.4</ele><time>2026-05-03T09:26:22.446Z</time></trkpt><trkpt lat="42.0101419" lon="12.6698429"><ele>73.80000000000001</ele><time>2026-05-03T09:26:24.445Z</time></trkpt><trkpt lat="42.0102234" lon="12.66973"><ele>72.2</ele><time>2026-05-03T09:26:26.445Z</time></trkpt><trkpt lat="42.0103223" lon="12.6696009"><ele>70.60000000000001</ele><time>2026-05-03T09:26:28.445Z</time></trkpt><trkpt lat="42.0103777" lon="12.66954"><ele>69.0</ele><time>2026-05-03T09:26:29.445Z</time></trkpt><trkpt lat="42.0104292" lon="12.669478"><ele>69.85714285714286</ele><time>2026-05-03T09:26:30.446Z</time></trkpt><trkpt lat="42.0104889" lon="12.6694106"><ele>70.71428571428572</ele><time>2026-05-03T09:26:31.446Z</time></trkpt><trkpt lat="42.0105293" lon="12.6693357"><ele>71.57142857142857</ele><time>2026-05-03T09:26:32.445Z</time></trkpt><trkpt lat="42.0105748" lon="12.6692441"><ele>72.42857142857143</ele><time>2026-05-03T09:26:33.446Z</time></trkpt><trkpt lat="42.0106177" lon="12.6691657"><ele>73.28571428571428</ele><time>2026-05-03T09:26:34.445Z</time></trkpt><trkpt lat="42.0106562" lon="12.669085"><ele>74.14285714285714</ele><time>2026-05-03T09:26:35.445Z</time></trkpt><trkpt lat="42.0106922" lon="12.6690033"><ele>75.0</ele><time>2026-05-03T09:26:36.446Z</time></trkpt><trkpt lat="42.0107242" lon="12.6689243"><ele>75.0</ele><time>2026-05-03T09:26:37.446Z</time></trkpt><trkpt lat="42.0107708" lon="12.668846"><ele>75.0</ele><time>2026-05-03T09:26:38.446Z</time></trkpt><trkpt lat="42.0108127" lon="12.6687622"><ele>75.0</ele><time>2026-05-03T09:26:39.446Z</time></trkpt><trkpt lat="42.0108672" lon="12.6686882"><ele>75.0</ele><time>2026-05-03T09:26:40.446Z</time></trkpt><trkpt lat="42.0109227" lon="12.668622"><ele>75.0</ele><time>2026-05-03T09:26:41.445Z</time></trkpt><trkpt lat="42.0109841" lon="12.6685513"><ele>75.0</ele><time>2026-05-03T09:26:42.445Z</time></trkpt><trkpt lat="42.0110447" lon="12.6684941"><ele>74.83333333333333</ele><time>2026-05-03T09:26:43.446Z</time></trkpt><trkpt lat="42.0111146" lon="12.6684277"><ele>74.66666666666667</ele><time>2026-05-03T09:26:44.445Z</time></trkpt><trkpt lat="42.0111789" lon="12.6683745"><ele>74.5</ele><time>2026-05-03T09:26:45.446Z</time></trkpt><trkpt lat="42.0112424" lon="12.6683123"><ele>74.33333333333334</ele><time>2026-05-03T09:26:46.445Z</time></trkpt><trkpt lat="42.0113094" lon="12.6682531"><ele>74.16666666666667</ele><time>2026-05-03T09:26:47.446Z</time></trkpt><trkpt lat="42.0113741" lon="12.6681883"><ele>74.0</ele><time>2026-05-03T09:26:48.445Z</time></trkpt><trkpt lat="42.0114341" lon="12.6681275"><ele>74.0</ele><time>2026-05-03T09:26:49.446Z</time></trkpt><trkpt lat="42.0114971" lon="12.668057"><ele>74.0</ele><time>2026-05-03T09:26:50.445Z</time></trkpt><trkpt lat="42.0115533" lon="12.6679749"><ele>74.0</ele><time>2026-05-03T09:26:51.446Z</time></trkpt><trkpt lat="42.0116162" lon="12.6679098"><ele>74.0</ele><time>2026-05-03T09:26:52.445Z</time></trkpt><trkpt lat="42.0116854" lon="12.6678501"><ele>74.0</ele><time>2026-05-03T09:26:53.446Z</time></trkpt><trkpt lat="42.011745" lon="12.6677808"><ele>74.0</ele><time>2026-05-03T09:26:54.446Z</time></trkpt><trkpt lat="42.0118051" lon="12.6677088"><ele>74.14285714285714</ele><time>2026-05-03T09:26:55.445Z</time></trkpt><trkpt lat="42.0118615" lon="12.6676436"><ele>74.28571428571428</ele><time>2026-05-03T09:26:56.445Z</time></trkpt><trkpt lat="42.0119209" lon="12.66759"><ele>74.42857142857142</ele><time>2026-05-03T09:26:57.446Z</time></trkpt><trkpt lat="42.0119781" lon="12.6675305"><ele>74.57142857142857</ele><time>2026-05-03T09:26:58.445Z</time></trkpt><trkpt lat="42.0120346" lon="12.6674638"><ele>74.71428571428571</ele><time>2026-05-03T09:26:59.446Z</time></trkpt><trkpt lat="42.0120881" lon="12.6673975"><ele>74.85714285714285</ele><time>2026-05-03T09:27:00.446Z</time></trkpt><trkpt lat="42.0121436" lon="12.6673326"><ele>75.0</ele><time>2026-05-03T09:27:01.446Z</time></trkpt><trkpt lat="42.0122018" lon="12.6672587"><ele>74.99999999999999</ele><time>2026-05-03T09:27:02.446Z</time></trkpt><trkpt lat="42.0122581" lon="12.6671876"><ele>75.0</ele><time>2026-05-03T09:27:03.445Z</time></trkpt><trkpt lat="42.0123087" lon="12.6671136"><ele>75.0</ele><time>2026-05-03T09:27:04.446Z</time></trkpt><trkpt lat="42.0123603" lon="12.6670416"><ele>75.0</ele><time>2026-05-03T09:27:05.445Z</time></trkpt><trkpt lat="42.0124125" lon="12.6669757"><ele>75.0</ele><time>2026-05-03T09:27:06.445Z</time></trkpt><trkpt lat="42.0124647" lon="12.6669177"><ele>74.99999999999999</ele><time>2026-05-03T09:27:07.446Z</time></trkpt><trkpt lat="42.0125157" lon="12.6668586"><ele>75.0</ele><time>2026-05-03T09:27:08.446Z</time></trkpt><trkpt lat="42.0125652" lon="12.6667984"><ele>75.0</ele><time>2026-05-03T09:27:09.446Z</time></trkpt><trkpt lat="42.0126615" lon="12.6667039"><ele>75.0</ele><time>2026-05-03T09:27:11.446Z</time></trkpt><trkpt lat="42.0127232" lon="12.6666539"><ele>75.0</ele><time>2026-05-03T09:27:12.445Z</time></trkpt><trkpt lat="42.012781" lon="12.6665966"><ele>75.0</ele><time>2026-05-03T09:27:13.446Z</time></trkpt><trkpt lat="42.0128421" lon="12.6665374"><ele>75.0</ele><time>2026-05-03T09:27:14.446Z</time></trkpt><trkpt lat="42.0129045" lon="12.666473"><ele>75.0</ele><time>2026-05-03T09:27:15.445Z</time></trkpt><trkpt lat="42.0129641" lon="12.6664053"><ele>75.0</ele><time>2026-05-03T09:27:16.446Z</time></trkpt><trkpt lat="42.0130221" lon="12.6663395"><ele>75.0</ele><time>2026-05-03T09:27:17.445Z</time></trkpt><trkpt lat="42.013085" lon="12.6662709"><ele>75.0</ele><time>2026-05-03T09:27:18.446Z</time></trkpt><trkpt lat="42.0131518" lon="12.6662091"><ele>75.0</ele><time>2026-05-03T09:27:19.445Z</time></trkpt><trkpt lat="42.0132186" lon="12.6661489"><ele>75.0</ele><time>2026-05-03T09:27:20.445Z</time></trkpt><trkpt lat="42.013274" lon="12.6660897"><ele>75.0</ele><time>2026-05-03T09:27:21.445Z</time></trkpt><trkpt lat="42.0133645" lon="12.6659834"><ele>74.8</ele><time>2026-05-03T09:27:23.446Z</time></trkpt><trkpt lat="42.0134429" lon="12.6658847"><ele>74.6</ele><time>2026-05-03T09:27:25.446Z</time></trkpt><trkpt lat="42.0135117" lon="12.6657963"><ele>74.4</ele><time>2026-05-03T09:27:27.445Z</time></trkpt><trkpt lat="42.0135812" lon="12.6657187"><ele>74.2</ele><time>2026-05-03T09:27:29.445Z</time></trkpt><trkpt lat="42.0136425" lon="12.6656461"><ele>74.0</ele><time>2026-05-03T09:27:31.445Z</time></trkpt><trkpt lat="42.0137068" lon="12.6655667"><ele>74.0</ele><time>2026-05-03T09:27:33.446Z</time></trkpt><trkpt lat="42.0137776" lon="12.6654798"><ele>74.0</ele><time>2026-05-03T09:27:35.445Z</time></trkpt><trkpt lat="42.0138526" lon="12.6653821"><ele>74.0</ele><time>2026-05-03T09:27:37.446Z</time></trkpt><trkpt lat="42.013932" lon="12.6652635"><ele>74.0</ele><time>2026-05-03T09:27:39.445Z</time></trkpt><trkpt lat="42.0140189" lon="12.6651574"><ele>74.0</ele><time>2026-05-03T09:27:41.445Z</time></trkpt><trkpt lat="42.0141049" lon="12.6650562"><ele>74.4</ele><time>2026-05-03T09:27:43.446Z</time></trkpt><trkpt lat="42.0141629" lon="12.6649913"><ele>74.80000000000001</ele><time>2026-05-03T09:27:45.446Z</time></trkpt><trkpt lat="42.014232" lon="12.664906"><ele>75.19999999999999</ele><time>2026-05-03T09:27:48.445Z</time></trkpt><trkpt lat="42.0142953" lon="12.6648355"><ele>75.6</ele><time>2026-05-03T09:27:50.445Z</time></trkpt><trkpt lat="42.0143725" lon="12.6647186"><ele>76.0</ele><time>2026-05-03T09:27:52.445Z</time></trkpt><trkpt lat="42.0144567" lon="12.6646063"><ele>76.0</ele><time>2026-05-03T09:27:54.446Z</time></trkpt><trkpt lat="42.0145477" lon="12.6644913"><ele>76.0</ele><time>2026-05-03T09:27:56.445Z</time></trkpt><trkpt lat="42.0145948" lon="12.6644326"><ele>76.0</ele><time>2026-05-03T09:27:57.445Z</time></trkpt><trkpt lat="42.0146447" lon="12.664365"><ele>76.0</ele><time>2026-05-03T09:27:58.446Z</time></trkpt><trkpt lat="42.0146935" lon="12.6643006"><ele>76.0</ele><time>2026-05-03T09:27:59.445Z</time></trkpt><trkpt lat="42.0147457" lon="12.6642365"><ele>76.0</ele><time>2026-05-03T09:28:00.446Z</time></trkpt><trkpt lat="42.014831" lon="12.6641364"><ele>76.0</ele><time>2026-05-03T09:28:02.446Z</time></trkpt><trkpt lat="42.0148861" lon="12.6640914"><ele>76.0</ele><time>2026-05-03T09:28:04.446Z</time></trkpt><trkpt lat="42.0149547" lon="12.6640175"><ele>76.0</ele><time>2026-05-03T09:28:07.446Z</time></trkpt><trkpt lat="42.0150242" lon="12.663952"><ele>76.0</ele><time>2026-05-03T09:28:09.445Z</time></trkpt><trkpt lat="42.0151061" lon="12.663893"><ele>76.0</ele><time>2026-05-03T09:28:11.445Z</time></trkpt><trkpt lat="42.0152016" lon="12.6638355"><ele>76.0</ele><time>2026-05-03T09:28:13.446Z</time></trkpt><trkpt lat="42.0153034" lon="12.6637852"><ele>76.0</ele><time>2026-05-03T09:28:15.446Z</time></trkpt><trkpt lat="42.0153958" lon="12.6637335"><ele>76.0</ele><time>2026-05-03T09:28:17.445Z</time></trkpt><trkpt lat="42.0154911" lon="12.6636926"><ele>76.0</ele><time>2026-05-03T09:28:19.445Z</time></trkpt><trkpt lat="42.0155865" lon="12.6636566"><ele>76.0</ele><time>2026-05-03T09:28:21.446Z</time></trkpt><trkpt lat="42.0156852" lon="12.6636062"><ele>76.0</ele><time>2026-05-03T09:28:23.445Z</time></trkpt><trkpt lat="42.0157957" lon="12.6635655"><ele>76.6</ele><time>2026-05-03T09:28:25.445Z</time></trkpt><trkpt lat="42.0159128" lon="12.6635221"><ele>77.19999999999999</ele><time>2026-05-03T09:28:27.445Z</time></trkpt><trkpt lat="42.0160285" lon="12.6634893"><ele>77.80000000000001</ele><time>2026-05-03T09:28:29.446Z</time></trkpt><trkpt lat="42.0160952" lon="12.6634604"><ele>78.4</ele><time>2026-05-03T09:28:30.446Z</time></trkpt><trkpt lat="42.0161644" lon="12.6634357"><ele>79.0</ele><time>2026-05-03T09:28:31.445Z</time></trkpt><trkpt lat="42.016234" lon="12.6633947"><ele>79.0</ele><time>2026-05-03T09:28:32.446Z</time></trkpt><trkpt lat="42.0163055" lon="12.6633536"><ele>79.0</ele><time>2026-05-03T09:28:33.445Z</time></trkpt><trkpt lat="42.0163762" lon="12.6633145"><ele>79.0</ele><time>2026-05-03T09:28:34.446Z</time></trkpt><trkpt lat="42.0164492" lon="12.6632748"><ele>79.0</ele><time>2026-05-03T09:28:35.445Z</time></trkpt><trkpt lat="42.0165221" lon="12.6632346"><ele>79.0</ele><time>2026-05-03T09:28:36.445Z</time></trkpt><trkpt lat="42.0165939" lon="12.663195"><ele>79.0</ele><time>2026-05-03T09:28:37.446Z</time></trkpt><trkpt lat="42.0166642" lon="12.6631634"><ele>78.57142857142858</ele><time>2026-05-03T09:28:38.446Z</time></trkpt><trkpt lat="42.0167346" lon="12.6631298"><ele>78.14285714285714</ele><time>2026-05-03T09:28:39.446Z</time></trkpt><trkpt lat="42.0168062" lon="12.6630961"><ele>77.71428571428572</ele><time>2026-05-03T09:28:40.446Z</time></trkpt><trkpt lat="42.0168758" lon="12.6630625"><ele>77.28571428571429</ele><time>2026-05-03T09:28:41.446Z</time></trkpt><trkpt lat="42.0169473" lon="12.6630285"><ele>76.85714285714286</ele><time>2026-05-03T09:28:42.446Z</time></trkpt><trkpt lat="42.0170136" lon="12.6629884"><ele>76.42857142857143</ele><time>2026-05-03T09:28:43.445Z</time></trkpt><trkpt lat="42.0170759" lon="12.6629457"><ele>76.0</ele><time>2026-05-03T09:28:44.446Z</time></trkpt><trkpt lat="42.0171368" lon="12.6629036"><ele>76.0</ele><time>2026-05-03T09:28:45.445Z</time></trkpt><trkpt lat="42.0171996" lon="12.6628727"><ele>76.0</ele><time>2026-05-03T09:28:46.446Z</time></trkpt><trkpt lat="42.0172661" lon="12.6628414"><ele>76.0</ele><time>2026-05-03T09:28:47.446Z</time></trkpt><trkpt lat="42.0173264" lon="12.6628137"><ele>76.0</ele><time>2026-05-03T09:28:48.445Z</time></trkpt><trkpt lat="42.0174018" lon="12.6627958"><ele>76.0</ele><time>2026-05-03T09:28:50.445Z</time></trkpt><trkpt lat="42.0174759" lon="12.6627781"><ele>76.0</ele><time>2026-05-03T09:28:52.446Z</time></trkpt><trkpt lat="42.0175622" lon="12.6627352"><ele>76.0</ele><time>2026-05-03T09:28:54.446Z</time></trkpt><trkpt lat="42.0176785" lon="12.6626851"><ele>76.0</ele><time>2026-05-03T09:28:56.446Z</time></trkpt><trkpt lat="42.0177967" lon="12.6626302"><ele>76.0</ele><time>2026-05-03T09:28:58.446Z</time></trkpt><trkpt lat="42.0178573" lon="12.6626018"><ele>76.0</ele><time>2026-05-03T09:28:59.446Z</time></trkpt><trkpt lat="42.0179248" lon="12.6625786"><ele>76.0</ele><time>2026-05-03T09:29:00.446Z</time></trkpt><trkpt lat="42.0179916" lon="12.6625559"><ele>76.0</ele><time>2026-05-03T09:29:01.445Z</time></trkpt><trkpt lat="42.0180551" lon="12.6625228"><ele>76.0</ele><time>2026-05-03T09:29:02.445Z</time></trkpt><trkpt lat="42.0181211" lon="12.6624937"><ele>76.0</ele><time>2026-05-03T09:29:03.446Z</time></trkpt><trkpt lat="42.0181934" lon="12.662471"><ele>76.0</ele><time>2026-05-03T09:29:04.445Z</time></trkpt><trkpt lat="42.0182659" lon="12.6624326"><ele>76.0</ele><time>2026-05-03T09:29:05.446Z</time></trkpt><trkpt lat="42.0183345" lon="12.6623915"><ele>76.0</ele><time>2026-05-03T09:29:06.446Z</time></trkpt><trkpt lat="42.0184013" lon="12.6623552"><ele>76.0</ele><time>2026-05-03T09:29:07.446Z</time></trkpt><trkpt lat="42.0184724" lon="12.6623314"><ele>76.0</ele><time>2026-05-03T09:29:08.446Z</time></trkpt><trkpt lat="42.0185433" lon="12.6623012"><ele>76.0</ele><time>2026-05-03T09:29:09.446Z</time></trkpt><trkpt lat="42.0186167" lon="12.6622591"><ele>76.0</ele><time>2026-05-03T09:29:10.445Z</time></trkpt><trkpt lat="42.018694" lon="12.6622131"><ele>76.0</ele><time>2026-05-03T09:29:11.446Z</time></trkpt><trkpt lat="42.0187732" lon="12.6621743"><ele>76.0</ele><time>2026-05-03T09:29:12.445Z</time></trkpt><trkpt lat="42.0188529" lon="12.6621395"><ele>76.0</ele><time>2026-05-03T09:29:13.445Z</time></trkpt><trkpt lat="42.0189256" lon="12.6621018"><ele>76.0</ele><time>2026-05-03T09:29:14.445Z</time></trkpt><trkpt lat="42.0189981" lon="12.6620543"><ele>76.0</ele><time>2026-05-03T09:29:15.445Z</time></trkpt><trkpt lat="42.0190678" lon="12.6620079"><ele>76.0</ele><time>2026-05-03T09:29:16.445Z</time></trkpt><trkpt lat="42.0191369" lon="12.6619588"><ele>76.0</ele><time>2026-05-03T09:29:17.446Z</time></trkpt><trkpt lat="42.0192113" lon="12.6619072"><ele>76.0</ele><time>2026-05-03T09:29:18.445Z</time></trkpt><trkpt lat="42.0192824" lon="12.661853"><ele>76.0</ele><time>2026-05-03T09:29:19.446Z</time></trkpt><trkpt lat="42.019355" lon="12.6618059"><ele>76.0</ele><time>2026-05-03T09:29:20.446Z</time></trkpt><trkpt lat="42.0194287" lon="12.6617631"><ele>76.0</ele><time>2026-05-03T09:29:21.445Z</time></trkpt><trkpt lat="42.0195002" lon="12.661721"><ele>77.28571428571428</ele><time>2026-05-03T09:29:22.446Z</time></trkpt><trkpt lat="42.0195715" lon="12.6616763"><ele>78.57142857142858</ele><time>2026-05-03T09:29:23.445Z</time></trkpt><trkpt lat="42.0196402" lon="12.6616303"><ele>79.85714285714286</ele><time>2026-05-03T09:29:24.446Z</time></trkpt><trkpt lat="42.0197074" lon="12.661589"><ele>81.14285714285714</ele><time>2026-05-03T09:29:25.444Z</time></trkpt><trkpt lat="42.0197715" lon="12.6615471"><ele>82.42857142857142</ele><time>2026-05-03T09:29:26.445Z</time></trkpt><trkpt lat="42.0198367" lon="12.6615031"><ele>83.71428571428572</ele><time>2026-05-03T09:29:27.445Z</time></trkpt><trkpt lat="42.0198986" lon="12.6614604"><ele>85.0</ele><time>2026-05-03T09:29:28.445Z</time></trkpt><trkpt lat="42.0199566" lon="12.6614169"><ele>84.28571428571429</ele><time>2026-05-03T09:29:29.445Z</time></trkpt><trkpt lat="42.0200193" lon="12.6613786"><ele>83.57142857142857</ele><time>2026-05-03T09:29:30.445Z</time></trkpt><trkpt lat="42.0200825" lon="12.6613458"><ele>82.85714285714286</ele><time>2026-05-03T09:29:31.445Z</time></trkpt><trkpt lat="42.0201439" lon="12.6613072"><ele>82.14285714285714</ele><time>2026-05-03T09:29:32.444Z</time></trkpt><trkpt lat="42.0202071" lon="12.661266"><ele>81.42857142857143</ele><time>2026-05-03T09:29:33.444Z</time></trkpt><trkpt lat="42.0202747" lon="12.6612254"><ele>80.71428571428571</ele><time>2026-05-03T09:29:34.445Z</time></trkpt><trkpt lat="42.0203405" lon="12.6611848"><ele>80.0</ele><time>2026-05-03T09:29:35.444Z</time></trkpt><trkpt lat="42.0204078" lon="12.6611459"><ele>80.6</ele><time>2026-05-03T09:29:36.444Z</time></trkpt><trkpt lat="42.0204698" lon="12.6611088"><ele>81.2</ele><time>2026-05-03T09:29:37.444Z</time></trkpt><trkpt lat="42.020569" lon="12.6610484"><ele>81.80000000000001</ele><time>2026-05-03T09:29:39.444Z</time></trkpt><trkpt lat="42.0206561" lon="12.6609881"><ele>82.4</ele><time>2026-05-03T09:29:41.444Z</time></trkpt><trkpt lat="42.0207507" lon="12.6609134"><ele>83.0</ele><time>2026-05-03T09:29:43.445Z</time></trkpt><trkpt lat="42.0208623" lon="12.6608381"><ele>83.0</ele><time>2026-05-03T09:29:45.444Z</time></trkpt><trkpt lat="42.0209189" lon="12.6607997"><ele>83.0</ele><time>2026-05-03T09:29:46.444Z</time></trkpt><trkpt lat="42.0210375" lon="12.6607393"><ele>83.0</ele><time>2026-05-03T09:29:48.445Z</time></trkpt><trkpt lat="42.0210986" lon="12.6607103"><ele>83.0</ele><time>2026-05-03T09:29:49.445Z</time></trkpt><trkpt lat="42.021159" lon="12.6606806"><ele>83.0</ele><time>2026-05-03T09:29:50.444Z</time></trkpt><trkpt lat="42.0212171" lon="12.6606431"><ele>83.0</ele><time>2026-05-03T09:29:51.445Z</time></trkpt><trkpt lat="42.0213236" lon="12.6605679"><ele>83.0</ele><time>2026-05-03T09:29:53.445Z</time></trkpt><trkpt lat="42.0213853" lon="12.6605351"><ele>83.0</ele><time>2026-05-03T09:29:54.445Z</time></trkpt><trkpt lat="42.0214492" lon="12.6605027"><ele>83.0</ele><time>2026-05-03T09:29:55.445Z</time></trkpt><trkpt lat="42.0215188" lon="12.660464"><ele>83.0</ele><time>2026-05-03T09:29:56.445Z</time></trkpt><trkpt lat="42.0215878" lon="12.6604212"><ele>83.0</ele><time>2026-05-03T09:29:57.445Z</time></trkpt><trkpt lat="42.0216581" lon="12.660373"><ele>83.0</ele><time>2026-05-03T09:29:58.445Z</time></trkpt><trkpt lat="42.0217308" lon="12.6603223"><ele>83.0</ele><time>2026-05-03T09:29:59.445Z</time></trkpt><trkpt lat="42.0218088" lon="12.6602712"><ele>83.33333333333334</ele><time>2026-05-03T09:30:00.444Z</time></trkpt><trkpt lat="42.0218882" lon="12.6602285"><ele>83.66666666666667</ele><time>2026-05-03T09:30:01.444Z</time></trkpt><trkpt lat="42.0219732" lon="12.6601846"><ele>84.0</ele><time>2026-05-03T09:30:02.445Z</time></trkpt><trkpt lat="42.0220564" lon="12.660135"><ele>84.33333333333333</ele><time>2026-05-03T09:30:03.444Z</time></trkpt><trkpt lat="42.0221409" lon="12.6600949"><ele>84.66666666666666</ele><time>2026-05-03T09:30:04.445Z</time></trkpt><trkpt lat="42.0222217" lon="12.6600473"><ele>85.0</ele><time>2026-05-03T09:30:05.445Z</time></trkpt><trkpt lat="42.0223046" lon="12.6599967"><ele>85.0</ele><time>2026-05-03T09:30:06.444Z</time></trkpt><trkpt lat="42.0223864" lon="12.6599489"><ele>85.0</ele><time>2026-05-03T09:30:07.445Z</time></trkpt><trkpt lat="42.0224659" lon="12.6599059"><ele>85.0</ele><time>2026-05-03T09:30:08.444Z</time></trkpt><trkpt lat="42.022546" lon="12.6598639"><ele>85.0</ele><time>2026-05-03T09:30:09.444Z</time></trkpt><trkpt lat="42.0226204" lon="12.6598199"><ele>85.0</ele><time>2026-05-03T09:30:10.445Z</time></trkpt><trkpt lat="42.0226942" lon="12.6597775"><ele>85.0</ele><time>2026-05-03T09:30:11.445Z</time></trkpt><trkpt lat="42.0227651" lon="12.6597318"><ele>84.83333333333333</ele><time>2026-05-03T09:30:12.445Z</time></trkpt><trkpt lat="42.0228322" lon="12.6596947"><ele>84.66666666666666</ele><time>2026-05-03T09:30:13.445Z</time></trkpt><trkpt lat="42.0229014" lon="12.6596631"><ele>84.5</ele><time>2026-05-03T09:30:14.444Z</time></trkpt><trkpt lat="42.0229709" lon="12.6596204"><ele>84.33333333333333</ele><time>2026-05-03T09:30:15.445Z</time></trkpt><trkpt lat="42.0230361" lon="12.6595666"><ele>84.16666666666667</ele><time>2026-05-03T09:30:16.445Z</time></trkpt><trkpt lat="42.0231074" lon="12.6595093"><ele>84.0</ele><time>2026-05-03T09:30:17.445Z</time></trkpt><trkpt lat="42.023185" lon="12.6594543"><ele>84.83333333333333</ele><time>2026-05-03T09:30:18.445Z</time></trkpt><trkpt lat="42.0232632" lon="12.6593951"><ele>85.66666666666667</ele><time>2026-05-03T09:30:19.445Z</time></trkpt><trkpt lat="42.0233398" lon="12.6593392"><ele>86.5</ele><time>2026-05-03T09:30:20.444Z</time></trkpt><trkpt lat="42.0234178" lon="12.6592881"><ele>87.33333333333334</ele><time>2026-05-03T09:30:21.445Z</time></trkpt><trkpt lat="42.0234977" lon="12.6592393"><ele>88.16666666666667</ele><time>2026-05-03T09:30:22.445Z</time></trkpt><trkpt lat="42.0235803" lon="12.6591836"><ele>89.0</ele><time>2026-05-03T09:30:23.445Z</time></trkpt><trkpt lat="42.0236602" lon="12.6591209"><ele>89.0</ele><time>2026-05-03T09:30:24.445Z</time></trkpt><trkpt lat="42.0237426" lon="12.6590607"><ele>89.0</ele><time>2026-05-03T09:30:25.445Z</time></trkpt><trkpt lat="42.0238236" lon="12.6590083"><ele>89.0</ele><time>2026-05-03T09:30:26.445Z</time></trkpt><trkpt lat="42.0239072" lon="12.6589567"><ele>89.0</ele><time>2026-05-03T09:30:27.445Z</time></trkpt><trkpt lat="42.0239883" lon="12.6589103"><ele>89.0</ele><time>2026-05-03T09:30:28.444Z</time></trkpt><trkpt lat="42.0240697" lon="12.6588665"><ele>88.5</ele><time>2026-05-03T09:30:29.445Z</time></trkpt><trkpt lat="42.0241512" lon="12.6588356"><ele>88.0</ele><time>2026-05-03T09:30:30.444Z</time></trkpt><trkpt lat="42.0242321" lon="12.6588029"><ele>87.5</ele><time>2026-05-03T09:30:31.445Z</time></trkpt><trkpt lat="42.0243107" lon="12.6587779"><ele>87.0</ele><time>2026-05-03T09:30:32.445Z</time></trkpt><trkpt lat="42.0243876" lon="12.6587585"><ele>86.5</ele><time>2026-05-03T09:30:33.445Z</time></trkpt><trkpt lat="42.0244676" lon="12.6587386"><ele>86.0</ele><time>2026-05-03T09:30:34.445Z</time></trkpt><trkpt lat="42.0245443" lon="12.6587103"><ele>86.0</ele><time>2026-05-03T09:30:35.444Z</time></trkpt><trkpt lat="42.0246212" lon="12.6586911"><ele>86.0</ele><time>2026-05-03T09:30:36.444Z</time></trkpt><trkpt lat="42.0246946" lon="12.6586662"><ele>86.0</ele><time>2026-05-03T09:30:37.444Z</time></trkpt><trkpt lat="42.0247581" lon="12.6586358"><ele>86.0</ele><time>2026-05-03T09:30:38.444Z</time></trkpt><trkpt lat="42.0248429" lon="12.6586106"><ele>86.0</ele><time>2026-05-03T09:30:40.445Z</time></trkpt><trkpt lat="42.0249316" lon="12.6586332"><ele>86.0</ele><time>2026-05-03T09:30:42.444Z</time></trkpt><trkpt lat="42.0250308" lon="12.6586588"><ele>86.0</ele><time>2026-05-03T09:30:44.444Z</time></trkpt><trkpt lat="42.0251475" lon="12.6586867"><ele>86.0</ele><time>2026-05-03T09:30:46.445Z</time></trkpt><trkpt lat="42.0252683" lon="12.6587193"><ele>86.0</ele><time>2026-05-03T09:30:48.445Z</time></trkpt><trkpt lat="42.0253874" lon="12.6587479"><ele>86.0</ele><time>2026-05-03T09:30:50.445Z</time></trkpt><trkpt lat="42.0255007" lon="12.658773"><ele>86.0</ele><time>2026-05-03T09:30:52.444Z</time></trkpt><trkpt lat="42.0256066" lon="12.6588339"><ele>86.0</ele><time>2026-05-03T09:30:54.444Z</time></trkpt><trkpt lat="42.0257003" lon="12.6588952"><ele>86.0</ele><time>2026-05-03T09:30:56.444Z</time></trkpt><trkpt lat="42.0257865" lon="12.6589558"><ele>86.0</ele><time>2026-05-03T09:30:58.445Z</time></trkpt><trkpt lat="42.0258708" lon="12.6590145"><ele>86.0</ele><time>2026-05-03T09:31:00.445Z</time></trkpt><trkpt lat="42.0259644" lon="12.6590781"><ele>86.8</ele><time>2026-05-03T09:31:02.445Z</time></trkpt><trkpt lat="42.026056" lon="12.6591494"><ele>87.6</ele><time>2026-05-03T09:31:04.444Z</time></trkpt><trkpt lat="42.0261503" lon="12.6592106"><ele>88.4</ele><time>2026-05-03T09:31:06.444Z</time></trkpt><trkpt lat="42.0262394" lon="12.6592599"><ele>89.2</ele><time>2026-05-03T09:31:08.445Z</time></trkpt><trkpt lat="42.0263456" lon="12.6593027"><ele>90.0</ele><time>2026-05-03T09:31:10.445Z</time></trkpt><trkpt lat="42.0264551" lon="12.6593449"><ele>90.0</ele><time>2026-05-03T09:31:12.445Z</time></trkpt><trkpt lat="42.026568" lon="12.6593811"><ele>90.0</ele><time>2026-05-03T09:31:14.445Z</time></trkpt><trkpt lat="42.0266807" lon="12.6594086"><ele>90.0</ele><time>2026-05-03T09:31:16.444Z</time></trkpt><trkpt lat="42.026789" lon="12.6594448"><ele>90.0</ele><time>2026-05-03T09:31:18.445Z</time></trkpt><trkpt lat="42.0268977" lon="12.659479"><ele>89.8</ele><time>2026-05-03T09:31:20.444Z</time></trkpt><trkpt lat="42.0270063" lon="12.6595012"><ele>89.6</ele><time>2026-05-03T09:31:22.445Z</time></trkpt><trkpt lat="42.0271054" lon="12.6595193"><ele>89.4</ele><time>2026-05-03T09:31:24.445Z</time></trkpt><trkpt lat="42.0272063" lon="12.6595406"><ele>89.2</ele><time>2026-05-03T09:31:26.445Z</time></trkpt><trkpt lat="42.0273079" lon="12.6595388"><ele>89.0</ele><time>2026-05-03T09:31:28.445Z</time></trkpt><trkpt lat="42.0273922" lon="12.6595446"><ele>89.5</ele><time>2026-05-03T09:31:30.444Z</time></trkpt><trkpt lat="42.0274826" lon="12.6595654"><ele>90.0</ele><time>2026-05-03T09:31:33.444Z</time></trkpt><trkpt lat="42.0275565" lon="12.6595632"><ele>90.5</ele><time>2026-05-03T09:31:35.444Z</time></trkpt><trkpt lat="42.0276403" lon="12.659579"><ele>91.0</ele><time>2026-05-03T09:31:37.444Z</time></trkpt><trkpt lat="42.0277354" lon="12.6595896"><ele>91.5</ele><time>2026-05-03T09:31:39.445Z</time></trkpt><trkpt lat="42.0278279" lon="12.6595923"><ele>92.0</ele><time>2026-05-03T09:31:41.445Z</time></trkpt><trkpt lat="42.0279293" lon="12.6595973"><ele>92.0</ele><time>2026-05-03T09:31:43.444Z</time></trkpt><trkpt lat="42.0280352" lon="12.6596084"><ele>92.0</ele><time>2026-05-03T09:31:45.445Z</time></trkpt><trkpt lat="42.0281358" lon="12.6596542"><ele>92.0</ele><time>2026-05-03T09:31:47.445Z</time></trkpt><trkpt lat="42.0282437" lon="12.6597053"><ele>92.0</ele><time>2026-05-03T09:31:49.445Z</time></trkpt><trkpt lat="42.0283489" lon="12.6597457"><ele>92.0</ele><time>2026-05-03T09:31:51.444Z</time></trkpt><trkpt lat="42.028447" lon="12.6597816"><ele>92.39999999999999</ele><time>2026-05-03T09:31:53.445Z</time></trkpt><trkpt lat="42.0285411" lon="12.6598297"><ele>92.8</ele><time>2026-05-03T09:31:55.445Z</time></trkpt><trkpt lat="42.0286316" lon="12.6598838"><ele>93.2</ele><time>2026-05-03T09:31:57.444Z</time></trkpt><trkpt lat="42.0287279" lon="12.6599491"><ele>93.6</ele><time>2026-05-03T09:31:59.444Z</time></trkpt><trkpt lat="42.0288019" lon="12.6599937"><ele>94.0</ele><time>2026-05-03T09:32:01.445Z</time></trkpt><trkpt lat="42.028868" lon="12.6600437"><ele>94.0</ele><time>2026-05-03T09:32:03.445Z</time></trkpt><trkpt lat="42.0289414" lon="12.6600943"><ele>94.0</ele><time>2026-05-03T09:32:05.445Z</time></trkpt><trkpt lat="42.0290228" lon="12.6601435"><ele>94.0</ele><time>2026-05-03T09:32:07.445Z</time></trkpt><trkpt lat="42.0290978" lon="12.6601887"><ele>94.0</ele><time>2026-05-03T09:32:09.444Z</time></trkpt><trkpt lat="42.0291763" lon="12.6602472"><ele>94.0</ele><time>2026-05-03T09:32:11.444Z</time></trkpt><trkpt lat="42.0292743" lon="12.6603017"><ele>95.0</ele><time>2026-05-03T09:32:13.444Z</time></trkpt><trkpt lat="42.0293757" lon="12.6603581"><ele>96.0</ele><time>2026-05-03T09:32:15.445Z</time></trkpt><trkpt lat="42.02948" lon="12.6604147"><ele>97.0</ele><time>2026-05-03T09:32:17.444Z</time></trkpt><trkpt lat="42.0295891" lon="12.660465"><ele>98.0</ele><time>2026-05-03T09:32:19.445Z</time></trkpt><trkpt lat="42.0296855" lon="12.6605146"><ele>99.0</ele><time>2026-05-03T09:32:21.445Z</time></trkpt><trkpt lat="42.0297667" lon="12.6605517"><ele>99.0</ele><time>2026-05-03T09:32:23.444Z</time></trkpt><trkpt lat="42.0298411" lon="12.6605979"><ele>99.0</ele><time>2026-05-03T09:32:25.444Z</time></trkpt><trkpt lat="42.0299066" lon="12.6606739"><ele>99.0</ele><time>2026-05-03T09:32:27.444Z</time></trkpt><trkpt lat="42.0299871" lon="12.6607243"><ele>99.0</ele><time>2026-05-03T09:32:29.445Z</time></trkpt><trkpt lat="42.0300791" lon="12.6607855"><ele>99.0</ele><time>2026-05-03T09:32:31.444Z</time></trkpt><trkpt lat="42.0301669" lon="12.6608472"><ele>99.4</ele><time>2026-05-03T09:32:33.445Z</time></trkpt><trkpt lat="42.030264" lon="12.6608963"><ele>99.80000000000001</ele><time>2026-05-03T09:32:35.445Z</time></trkpt><trkpt lat="42.0303681" lon="12.6609366"><ele>100.19999999999999</ele><time>2026-05-03T09:32:37.445Z</time></trkpt><trkpt lat="42.0304653" lon="12.6609899"><ele>100.6</ele><time>2026-05-03T09:32:39.445Z</time></trkpt><trkpt lat="42.0305613" lon="12.6610335"><ele>101.0</ele><time>2026-05-03T09:32:41.445Z</time></trkpt><trkpt lat="42.0306554" lon="12.6610796"><ele>101.4</ele><time>2026-05-03T09:32:43.444Z</time></trkpt><trkpt lat="42.0307396" lon="12.6611241"><ele>101.8</ele><time>2026-05-03T09:32:45.445Z</time></trkpt><trkpt lat="42.03083" lon="12.6611778"><ele>102.2</ele><time>2026-05-03T09:32:47.444Z</time></trkpt><trkpt lat="42.0309129" lon="12.661234"><ele>102.60000000000001</ele><time>2026-05-03T09:32:49.444Z</time></trkpt><trkpt lat="42.0309606" lon="12.6613215"><ele>103.0</ele><time>2026-05-03T09:32:51.444Z</time></trkpt><trkpt lat="42.0309892" lon="12.6614413"><ele>102.99999999999999</ele><time>2026-05-03T09:37:44.444Z</time></trkpt><trkpt lat="42.0309944" lon="12.6615282"><ele>103.0</ele><time>2026-05-03T09:37:46.444Z</time></trkpt><trkpt lat="42.031001" lon="12.6616127"><ele>103.0</ele><time>2026-05-03T09:37:48.443Z</time></trkpt><trkpt lat="42.0310106" lon="12.6616978"><ele>103.0</ele><time>2026-05-03T09:37:50.443Z</time></trkpt><trkpt lat="42.0310176" lon="12.6617862"><ele>103.0</ele><time>2026-05-03T09:37:52.444Z</time></trkpt><trkpt lat="42.0310208" lon="12.6618821"><ele>102.99999999999999</ele><time>2026-05-03T09:37:54.444Z</time></trkpt><trkpt lat="42.031058" lon="12.6619778"><ele>103.0</ele><time>2026-05-03T09:37:56.443Z</time></trkpt><trkpt lat="42.0311124" lon="12.6620843"><ele>105.4</ele><time>2026-05-03T09:37:58.444Z</time></trkpt><trkpt lat="42.0311676" lon="12.6622167"><ele>107.80000000000001</ele><time>2026-05-03T09:38:00.444Z</time></trkpt><trkpt lat="42.0312258" lon="12.6623625"><ele>110.2</ele><time>2026-05-03T09:38:02.443Z</time></trkpt><trkpt lat="42.0312578" lon="12.6624458"><ele>112.6</ele><time>2026-05-03T09:38:03.444Z</time></trkpt><trkpt lat="42.0312839" lon="12.6625325"><ele>115.0</ele><time>2026-05-03T09:38:04.444Z</time></trkpt><trkpt lat="42.0312986" lon="12.662647"><ele>115.0</ele><time>2026-05-03T09:38:05.443Z</time></trkpt><trkpt lat="42.0312866" lon="12.6627778"><ele>115.0</ele><time>2026-05-03T09:38:06.443Z</time></trkpt><trkpt lat="42.0312755" lon="12.6629042"><ele>115.0</ele><time>2026-05-03T09:38:07.444Z</time></trkpt><trkpt lat="42.0312801" lon="12.6630273"><ele>115.0</ele><time>2026-05-03T09:38:08.443Z</time></trkpt><trkpt lat="42.031272" lon="12.6631549"><ele>115.0</ele><time>2026-05-03T09:38:09.443Z</time></trkpt><trkpt lat="42.0312687" lon="12.6632657"><ele>116.16666666666667</ele><time>2026-05-03T09:38:10.443Z</time></trkpt><trkpt lat="42.0312682" lon="12.6633728"><ele>117.33333333333334</ele><time>2026-05-03T09:38:11.443Z</time></trkpt><trkpt lat="42.0312685" lon="12.6634793"><ele>118.5</ele><time>2026-05-03T09:38:12.444Z</time></trkpt><trkpt lat="42.031274" lon="12.663595"><ele>119.66666666666666</ele><time>2026-05-03T09:38:13.444Z</time></trkpt><trkpt lat="42.0312793" lon="12.66371"><ele>120.83333333333333</ele><time>2026-05-03T09:38:14.444Z</time></trkpt><trkpt lat="42.031278" lon="12.6638273"><ele>122.0</ele><time>2026-05-03T09:38:15.443Z</time></trkpt><trkpt lat="42.0312625" lon="12.6639359"><ele>121.99999999999999</ele><time>2026-05-03T09:38:16.444Z</time></trkpt><trkpt lat="42.0312505" lon="12.6640373"><ele>122.0</ele><time>2026-05-03T09:38:17.444Z</time></trkpt><trkpt lat="42.0312377" lon="12.6641513"><ele>122.0</ele><time>2026-05-03T09:38:18.444Z</time></trkpt><trkpt lat="42.0312381" lon="12.6642562"><ele>122.0</ele><time>2026-05-03T09:38:19.443Z</time></trkpt><trkpt lat="42.0312278" lon="12.6643608"><ele>121.99999999999999</ele><time>2026-05-03T09:38:20.443Z</time></trkpt><trkpt lat="42.0312238" lon="12.6644625"><ele>122.0</ele><time>2026-05-03T09:38:21.444Z</time></trkpt><trkpt lat="42.0312141" lon="12.6645613"><ele>122.83333333333333</ele><time>2026-05-03T09:38:22.443Z</time></trkpt><trkpt lat="42.0312023" lon="12.6646536"><ele>123.66666666666666</ele><time>2026-05-03T09:38:23.444Z</time></trkpt><trkpt lat="42.0311972" lon="12.6647474"><ele>124.5</ele><time>2026-05-03T09:38:24.444Z</time></trkpt><trkpt lat="42.0311915" lon="12.6648383"><ele>125.33333333333334</ele><time>2026-05-03T09:38:25.444Z</time></trkpt><trkpt lat="42.031184" lon="12.6649268"><ele>126.16666666666667</ele><time>2026-05-03T09:38:26.443Z</time></trkpt><trkpt lat="42.0311666" lon="12.6650732"><ele>127.0</ele><time>2026-05-03T09:38:28.444Z</time></trkpt><trkpt lat="42.0311095" lon="12.665145"><ele>127.00000000000001</ele><time>2026-05-03T09:38:32.444Z</time></trkpt><trkpt lat="42.0309969" lon="12.6651288"><ele>127.0</ele><time>2026-05-03T09:38:34.444Z</time></trkpt><trkpt lat="42.0309264" lon="12.6651218"><ele>127.0</ele><time>2026-05-03T09:38:35.444Z</time></trkpt><trkpt lat="42.0308515" lon="12.665108"><ele>127.0</ele><time>2026-05-03T09:38:36.444Z</time></trkpt><trkpt lat="42.0307727" lon="12.6651012"><ele>127.00000000000001</ele><time>2026-05-03T09:38:37.444Z</time></trkpt><trkpt lat="42.0306948" lon="12.6650956"><ele>127.0</ele><time>2026-05-03T09:38:38.444Z</time></trkpt><trkpt lat="42.0306086" lon="12.6650865"><ele>127.83333333333334</ele><time>2026-05-03T09:38:39.444Z</time></trkpt><trkpt lat="42.0305241" lon="12.6650705"><ele>128.66666666666669</ele><time>2026-05-03T09:38:40.443Z</time></trkpt><trkpt lat="42.0304383" lon="12.6650567"><ele>129.5</ele><time>2026-05-03T09:38:41.444Z</time></trkpt><trkpt lat="42.030348" lon="12.6650424"><ele>130.33333333333334</ele><time>2026-05-03T09:38:42.444Z</time></trkpt><trkpt lat="42.0302612" lon="12.6650294"><ele>131.16666666666666</ele><time>2026-05-03T09:38:43.444Z</time></trkpt><trkpt lat="42.0301736" lon="12.6650148"><ele>132.0</ele><time>2026-05-03T09:38:44.443Z</time></trkpt><trkpt lat="42.0300816" lon="12.6650037"><ele>132.0</ele><time>2026-05-03T09:38:45.443Z</time></trkpt><trkpt lat="42.029993" lon="12.6649964"><ele>132.0</ele><time>2026-05-03T09:38:46.443Z</time></trkpt><trkpt lat="42.0299044" lon="12.6649857"><ele>132.0</ele><time>2026-05-03T09:38:47.443Z</time></trkpt><trkpt lat="42.0298159" lon="12.664978"><ele>132.0</ele><time>2026-05-03T09:38:48.443Z</time></trkpt><trkpt lat="42.0297305" lon="12.6649697"><ele>132.0</ele><time>2026-05-03T09:38:49.443Z</time></trkpt><trkpt lat="42.0296486" lon="12.6649626"><ele>132.0</ele><time>2026-05-03T09:38:50.444Z</time></trkpt><trkpt lat="42.0295722" lon="12.6649555"><ele>133.33333333333334</ele><time>2026-05-03T09:38:51.444Z</time></trkpt><trkpt lat="42.029505" lon="12.664944"><ele>134.66666666666666</ele><time>2026-05-03T09:38:52.444Z</time></trkpt><trkpt lat="42.0294054" lon="12.6648416"><ele>136.0</ele><time>2026-05-03T09:38:54.444Z</time></trkpt><trkpt lat="42.0293761" lon="12.6647484"><ele>137.33333333333331</ele><time>2026-05-03T09:38:55.443Z</time></trkpt><trkpt lat="42.0293535" lon="12.664647"><ele>138.66666666666666</ele><time>2026-05-03T09:38:56.443Z</time></trkpt><trkpt lat="42.0293358" lon="12.664544"><ele>140.0</ele><time>2026-05-03T09:38:57.444Z</time></trkpt><trkpt lat="42.0293131" lon="12.6644384"><ele>140.33333333333331</ele><time>2026-05-03T09:38:58.444Z</time></trkpt><trkpt lat="42.0292878" lon="12.6643333"><ele>140.66666666666666</ele><time>2026-05-03T09:38:59.444Z</time></trkpt><trkpt lat="42.0292614" lon="12.6642286"><ele>141.0</ele><time>2026-05-03T09:39:00.443Z</time></trkpt><trkpt lat="42.029234" lon="12.6641238"><ele>141.33333333333334</ele><time>2026-05-03T09:39:01.443Z</time></trkpt><trkpt lat="42.0292047" lon="12.6640194"><ele>141.66666666666669</ele><time>2026-05-03T09:39:02.444Z</time></trkpt><trkpt lat="42.0291749" lon="12.6639138"><ele>142.0</ele><time>2026-05-03T09:39:03.443Z</time></trkpt><trkpt lat="42.0291455" lon="12.6638199"><ele>143.66666666666669</ele><time>2026-05-03T09:39:04.444Z</time></trkpt><trkpt lat="42.0291005" lon="12.6637499"><ele>145.33333333333334</ele><time>2026-05-03T09:39:05.443Z</time></trkpt><trkpt lat="42.0289732" lon="12.6636916"><ele>147.0</ele><time>2026-05-03T09:39:07.444Z</time></trkpt><trkpt lat="42.0288993" lon="12.6636959"><ele>148.66666666666666</ele><time>2026-05-03T09:39:08.443Z</time></trkpt><trkpt lat="42.0288252" lon="12.6637094"><ele>150.33333333333331</ele><time>2026-05-03T09:39:09.444Z</time></trkpt><trkpt lat="42.0287503" lon="12.6637309"><ele>152.0</ele><time>2026-05-03T09:39:10.444Z</time></trkpt><trkpt lat="42.0286856" lon="12.6637406"><ele>152.0</ele><time>2026-05-03T09:39:11.443Z</time></trkpt><trkpt lat="42.0285616" lon="12.6637781"><ele>152.0</ele><time>2026-05-03T09:39:13.444Z</time></trkpt><trkpt lat="42.0284961" lon="12.6637891"><ele>152.0</ele><time>2026-05-03T09:39:14.443Z</time></trkpt><trkpt lat="42.028429" lon="12.6638073"><ele>152.0</ele><time>2026-05-03T09:39:15.443Z</time></trkpt><trkpt lat="42.0283592" lon="12.6638265"><ele>152.0</ele><time>2026-05-03T09:39:16.443Z</time></trkpt><trkpt lat="42.0282928" lon="12.6638449"><ele>152.0</ele><time>2026-05-03T09:39:17.443Z</time></trkpt><trkpt lat="42.0282288" lon="12.6638614"><ele>151.7142857142857</ele><time>2026-05-03T09:39:18.443Z</time></trkpt><trkpt lat="42.0281659" lon="12.6638753"><ele>151.42857142857144</ele><time>2026-05-03T09:39:19.444Z</time></trkpt><trkpt lat="42.0281037" lon="12.6638905"><ele>151.14285714285714</ele><time>2026-05-03T09:39:20.443Z</time></trkpt><trkpt lat="42.0279781" lon="12.6639251"><ele>150.85714285714283</ele><time>2026-05-03T09:39:22.443Z</time></trkpt><trkpt lat="42.0279145" lon="12.6639396"><ele>150.57142857142856</ele><time>2026-05-03T09:39:23.443Z</time></trkpt><trkpt lat="42.0278516" lon="12.6639489"><ele>150.28571428571428</ele><time>2026-05-03T09:39:24.443Z</time></trkpt><trkpt lat="42.0277891" lon="12.6639681"><ele>150.0</ele><time>2026-05-03T09:39:25.444Z</time></trkpt><trkpt lat="42.0276719" lon="12.6640035"><ele>150.0</ele><time>2026-05-03T09:39:27.444Z</time></trkpt><trkpt lat="42.0275578" lon="12.6640389"><ele>150.0</ele><time>2026-05-03T09:39:29.443Z</time></trkpt><trkpt lat="42.0274484" lon="12.6640805"><ele>150.0</ele><time>2026-05-03T09:39:31.443Z</time></trkpt><trkpt lat="42.0273868" lon="12.664102"><ele>150.0</ele><time>2026-05-03T09:39:32.443Z</time></trkpt><trkpt lat="42.0273241" lon="12.6641263"><ele>150.0</ele><time>2026-05-03T09:39:33.444Z</time></trkpt><trkpt lat="42.0272604" lon="12.6641512"><ele>150.0</ele><time>2026-05-03T09:39:34.443Z</time></trkpt><trkpt lat="42.0271938" lon="12.6641678"><ele>149.33333333333334</ele><time>2026-05-03T09:39:35.444Z</time></trkpt><trkpt lat="42.0271288" lon="12.6641882"><ele>148.66666666666666</ele><time>2026-05-03T09:39:36.444Z</time></trkpt><trkpt lat="42.0270634" lon="12.6642136"><ele>148.0</ele><time>2026-05-03T09:39:37.443Z</time></trkpt><trkpt lat="42.0269944" lon="12.6642335"><ele>147.33333333333331</ele><time>2026-05-03T09:39:38.444Z</time></trkpt><trkpt lat="42.0269248" lon="12.6642539"><ele>146.66666666666666</ele><time>2026-05-03T09:39:39.443Z</time></trkpt><trkpt lat="42.0268586" lon="12.6642788"><ele>146.0</ele><time>2026-05-03T09:39:40.443Z</time></trkpt><trkpt lat="42.0267515" lon="12.6642977"><ele>146.0</ele><time>2026-05-03T09:39:42.444Z</time></trkpt><trkpt lat="42.0266791" lon="12.6643173"><ele>146.0</ele><time>2026-05-03T09:39:44.444Z</time></trkpt><trkpt lat="42.0266068" lon="12.6643379"><ele>146.0</ele><time>2026-05-03T09:39:46.443Z</time></trkpt><trkpt lat="42.0265318" lon="12.6643551"><ele>146.0</ele><time>2026-05-03T09:39:48.444Z</time></trkpt><trkpt lat="42.026444" lon="12.6643701"><ele>146.0</ele><time>2026-05-03T09:39:50.444Z</time></trkpt><trkpt lat="42.026348" lon="12.6643929"><ele>146.0</ele><time>2026-05-03T09:39:52.444Z</time></trkpt><trkpt lat="42.0262291" lon="12.6644134"><ele>146.0</ele><time>2026-05-03T09:39:54.443Z</time></trkpt><trkpt lat="42.0261009" lon="12.6644225"><ele>146.0</ele><time>2026-05-03T09:39:56.444Z</time></trkpt><trkpt lat="42.0260308" lon="12.6644271"><ele>146.0</ele><time>2026-05-03T09:39:57.444Z</time></trkpt><trkpt lat="42.0259598" lon="12.6644309"><ele>146.0</ele><time>2026-05-03T09:39:58.444Z</time></trkpt><trkpt lat="42.0258935" lon="12.6644378"><ele>146.0</ele><time>2026-05-03T09:39:59.444Z</time></trkpt><trkpt lat="42.025823" lon="12.6644496"><ele>146.0</ele><time>2026-05-03T09:40:00.444Z</time></trkpt><trkpt lat="42.0257525" lon="12.6644616"><ele>146.71428571428572</ele><time>2026-05-03T09:40:01.443Z</time></trkpt><trkpt lat="42.0256832" lon="12.6644699"><ele>147.42857142857144</ele><time>2026-05-03T09:40:02.443Z</time></trkpt><trkpt lat="42.0256163" lon="12.6644781"><ele>148.14285714285717</ele><time>2026-05-03T09:40:03.443Z</time></trkpt><trkpt lat="42.0255471" lon="12.6644862"><ele>148.85714285714286</ele><time>2026-05-03T09:40:04.443Z</time></trkpt><trkpt lat="42.0254755" lon="12.6644937"><ele>149.57142857142858</ele><time>2026-05-03T09:40:05.443Z</time></trkpt><trkpt lat="42.025405" lon="12.6645011"><ele>150.2857142857143</ele><time>2026-05-03T09:40:06.444Z</time></trkpt><trkpt lat="42.0253305" lon="12.6645042"><ele>151.0</ele><time>2026-05-03T09:40:07.443Z</time></trkpt><trkpt lat="42.0252533" lon="12.6645103"><ele>151.0</ele><time>2026-05-03T09:40:08.443Z</time></trkpt><trkpt lat="42.0251717" lon="12.6645176"><ele>151.0</ele><time>2026-05-03T09:40:09.444Z</time></trkpt><trkpt lat="42.0250884" lon="12.664522"><ele>151.0</ele><time>2026-05-03T09:40:10.444Z</time></trkpt><trkpt lat="42.0250049" lon="12.6645278"><ele>151.0</ele><time>2026-05-03T09:40:11.443Z</time></trkpt><trkpt lat="42.0249205" lon="12.6645329"><ele>151.0</ele><time>2026-05-03T09:40:12.444Z</time></trkpt><trkpt lat="42.0248322" lon="12.6645318"><ele>151.0</ele><time>2026-05-03T09:40:13.444Z</time></trkpt><trkpt lat="42.0247397" lon="12.6645329"><ele>151.33333333333334</ele><time>2026-05-03T09:40:14.444Z</time></trkpt><trkpt lat="42.0246447" lon="12.6645359"><ele>151.66666666666669</ele><time>2026-05-03T09:40:15.443Z</time></trkpt><trkpt lat="42.0245519" lon="12.6645358"><ele>152.0</ele><time>2026-05-03T09:40:16.444Z</time></trkpt><trkpt lat="42.0244691" lon="12.6645358"><ele>152.33333333333334</ele><time>2026-05-03T09:40:17.443Z</time></trkpt><trkpt lat="42.0243936" lon="12.6645395"><ele>152.66666666666666</ele><time>2026-05-03T09:40:18.443Z</time></trkpt><trkpt lat="42.0243204" lon="12.6645419"><ele>153.0</ele><time>2026-05-03T09:40:19.443Z</time></trkpt><trkpt lat="42.0242447" lon="12.66454"><ele>153.0</ele><time>2026-05-03T09:40:20.443Z</time></trkpt><trkpt lat="42.024169" lon="12.6645408"><ele>153.0</ele><time>2026-05-03T09:40:21.444Z</time></trkpt><trkpt lat="42.0240955" lon="12.6645471"><ele>153.0</ele><time>2026-05-03T09:40:22.443Z</time></trkpt><trkpt lat="42.024025" lon="12.6645467"><ele>153.0</ele><time>2026-05-03T09:40:23.444Z</time></trkpt><trkpt lat="42.0239561" lon="12.6645437"><ele>153.0</ele><time>2026-05-03T09:40:24.444Z</time></trkpt><trkpt lat="42.0238893" lon="12.6645439"><ele>153.0</ele><time>2026-05-03T09:40:25.444Z</time></trkpt><trkpt lat="42.0238239" lon="12.6645396"><ele>153.0</ele><time>2026-05-03T09:40:26.443Z</time></trkpt><trkpt lat="42.0237568" lon="12.664539"><ele>151.6</ele><time>2026-05-03T09:40:27.444Z</time></trkpt><trkpt lat="42.0236932" lon="12.6645413"><ele>150.20000000000002</ele><time>2026-05-03T09:40:28.443Z</time></trkpt><trkpt lat="42.0236276" lon="12.6645407"><ele>148.8</ele><time>2026-05-03T09:40:29.443Z</time></trkpt><trkpt lat="42.023507" lon="12.6645413"><ele>147.4</ele><time>2026-05-03T09:40:31.444Z</time></trkpt><trkpt lat="42.0233861" lon="12.6645434"><ele>146.0</ele><time>2026-05-03T09:40:33.444Z</time></trkpt><trkpt lat="42.0232772" lon="12.6645488"><ele>143.6</ele><time>2026-05-03T09:40:35.444Z</time></trkpt><trkpt lat="42.0231751" lon="12.6645529"><ele>141.2</ele><time>2026-05-03T09:40:37.444Z</time></trkpt><trkpt lat="42.0230647" lon="12.6645565"><ele>138.8</ele><time>2026-05-03T09:40:39.444Z</time></trkpt><trkpt lat="42.0229513" lon="12.6645498"><ele>136.4</ele><time>2026-05-03T09:40:41.444Z</time></trkpt><trkpt lat="42.0228385" lon="12.6645606"><ele>134.0</ele><time>2026-05-03T09:40:43.443Z</time></trkpt><trkpt lat="42.0227242" lon="12.6645743"><ele>134.0</ele><time>2026-05-03T09:40:45.444Z</time></trkpt><trkpt lat="42.0226054" lon="12.6645878"><ele>134.0</ele><time>2026-05-03T09:40:47.444Z</time></trkpt><trkpt lat="42.0224931" lon="12.6645924"><ele>134.0</ele><time>2026-05-03T09:40:49.444Z</time></trkpt><trkpt lat="42.0223803" lon="12.6645995"><ele>134.0</ele><time>2026-05-03T09:40:51.444Z</time></trkpt><trkpt lat="42.0222634" lon="12.6646029"><ele>132.0</ele><time>2026-05-03T09:40:53.443Z</time></trkpt><trkpt lat="42.0221401" lon="12.664612"><ele>130.0</ele><time>2026-05-03T09:40:55.444Z</time></trkpt><trkpt lat="42.0220136" lon="12.6646201"><ele>128.0</ele><time>2026-05-03T09:40:57.443Z</time></trkpt><trkpt lat="42.0219498" lon="12.6646182"><ele>126.0</ele><time>2026-05-03T09:40:58.443Z</time></trkpt><trkpt lat="42.0218858" lon="12.6646104"><ele>123.99999999999999</ele><time>2026-05-03T09:40:59.443Z</time></trkpt><trkpt lat="42.0218198" lon="12.6646099"><ele>122.0</ele><time>2026-05-03T09:41:00.443Z</time></trkpt><trkpt lat="42.0216937" lon="12.6646159"><ele>120.83333333333333</ele><time>2026-05-03T09:41:02.444Z</time></trkpt><trkpt lat="42.0216265" lon="12.6646224"><ele>119.66666666666666</ele><time>2026-05-03T09:41:03.443Z</time></trkpt><trkpt lat="42.0215635" lon="12.6646325"><ele>118.5</ele><time>2026-05-03T09:41:04.444Z</time></trkpt><trkpt lat="42.0214992" lon="12.6646411"><ele>117.33333333333334</ele><time>2026-05-03T09:41:05.443Z</time></trkpt><trkpt lat="42.0214349" lon="12.6646476"><ele>116.16666666666667</ele><time>2026-05-03T09:41:06.444Z</time></trkpt><trkpt lat="42.0213112" lon="12.6646444"><ele>115.0</ele><time>2026-05-03T09:41:08.443Z</time></trkpt><trkpt lat="42.0211908" lon="12.6646359"><ele>115.0</ele><time>2026-05-03T09:41:10.444Z</time></trkpt><trkpt lat="42.0210765" lon="12.664633"><ele>115.0</ele><time>2026-05-03T09:41:12.443Z</time></trkpt><trkpt lat="42.0209695" lon="12.6646301"><ele>115.0</ele><time>2026-05-03T09:41:14.444Z</time></trkpt><trkpt lat="42.0208665" lon="12.6646361"><ele>115.0</ele><time>2026-05-03T09:41:16.443Z</time></trkpt><trkpt lat="42.0207644" lon="12.6646371"><ele>115.0</ele><time>2026-05-03T09:41:18.444Z</time></trkpt><trkpt lat="42.0206547" lon="12.6646282"><ele>113.33333333333334</ele><time>2026-05-03T09:41:20.444Z</time></trkpt><trkpt lat="42.0205311" lon="12.664619"><ele>111.66666666666667</ele><time>2026-05-03T09:41:22.444Z</time></trkpt><trkpt lat="42.0204632" lon="12.6646169"><ele>110.0</ele><time>2026-05-03T09:41:23.444Z</time></trkpt><trkpt lat="42.020397" lon="12.664612"><ele>108.33333333333334</ele><time>2026-05-03T09:41:24.444Z</time></trkpt><trkpt lat="42.0203333" lon="12.6646034"><ele>106.66666666666667</ele><time>2026-05-03T09:41:25.444Z</time></trkpt><trkpt lat="42.0202088" lon="12.6645884"><ele>105.0</ele><time>2026-05-03T09:41:27.443Z</time></trkpt><trkpt lat="42.0200971" lon="12.6646001"><ele>105.0</ele><time>2026-05-03T09:41:29.443Z</time></trkpt><trkpt lat="42.0200149" lon="12.664618"><ele>105.0</ele><time>2026-05-03T09:41:31.444Z</time></trkpt><trkpt lat="42.0199393" lon="12.6646267"><ele>105.0</ele><time>2026-05-03T09:41:33.444Z</time></trkpt><trkpt lat="42.0198541" lon="12.6646323"><ele>105.0</ele><time>2026-05-03T09:41:35.443Z</time></trkpt><trkpt lat="42.0197632" lon="12.6646431"><ele>105.0</ele><time>2026-05-03T09:41:37.443Z</time></trkpt><trkpt lat="42.0196863" lon="12.6646384"><ele>105.0</ele><time>2026-05-03T09:41:39.443Z</time></trkpt><trkpt lat="42.0196117" lon="12.6646248"><ele>102.33333333333333</ele><time>2026-05-03T09:41:41.444Z</time></trkpt><trkpt lat="42.0195323" lon="12.6646128"><ele>99.66666666666667</ele><time>2026-05-03T09:41:44.444Z</time></trkpt><trkpt lat="42.0194324" lon="12.664634"><ele>97.0</ele><time>2026-05-03T09:43:59.444Z</time></trkpt><trkpt lat="42.0193803" lon="12.664692"><ele>94.33333333333334</ele><time>2026-05-03T09:44:05.582Z</time></trkpt><trkpt lat="42.0192594" lon="12.6646412"><ele>91.66666666666667</ele><time>2026-05-03T09:44:08.905Z</time></trkpt><trkpt lat="42.0191924" lon="12.6646418"><ele>89.0</ele><time>2026-05-03T09:44:11.045Z</time></trkpt><trkpt lat="42.0191262" lon="12.6646313"><ele>87.28571428571428</ele><time>2026-05-03T09:44:13.142Z</time></trkpt><trkpt lat="42.0190419" lon="12.6646144"><ele>85.57142857142857</ele><time>2026-05-03T09:44:15.528Z</time></trkpt><trkpt lat="42.0189668" lon="12.6646101"><ele>83.85714285714286</ele><time>2026-05-03T09:44:17.449Z</time></trkpt><trkpt lat="42.0188845" lon="12.6646192"><ele>82.14285714285714</ele><time>2026-05-03T09:44:20.557Z</time></trkpt><trkpt lat="42.0188225" lon="12.6646358"><ele>80.42857142857143</ele><time>2026-05-03T09:44:22.568Z</time></trkpt><trkpt lat="42.0187554" lon="12.6646353"><ele>78.71428571428571</ele><time>2026-05-03T09:44:24.58Z</time></trkpt><trkpt lat="42.0186911" lon="12.6646211"><ele>77.0</ele><time>2026-05-03T09:44:34.525Z</time></trkpt><trkpt lat="42.0186253" lon="12.664638"><ele>77.0</ele><time>2026-05-03T09:44:44.442Z</time></trkpt><trkpt lat="42.0185529" lon="12.664637"><ele>77.0</ele><time>2026-05-03T09:44:52.442Z</time></trkpt><trkpt lat="42.0184824" lon="12.6646321"><ele>77.0</ele><time>2026-05-03T09:44:56.443Z</time></trkpt><trkpt lat="42.0184137" lon="12.6646304"><ele>77.0</ele><time>2026-05-03T09:45:00.443Z</time></trkpt><trkpt lat="42.0183373" lon="12.6646077"><ele>77.0</ele><time>2026-05-03T09:45:05.443Z</time></trkpt><trkpt lat="42.0182629" lon="12.6646043"><ele>77.0</ele><time>2026-05-03T09:45:08.442Z</time></trkpt><trkpt lat="42.018199" lon="12.6645972"><ele>77.0</ele><time>2026-05-03T09:45:10.443Z</time></trkpt><trkpt lat="42.0181312" lon="12.6646047"><ele>77.0</ele><time>2026-05-03T09:45:12.443Z</time></trkpt><trkpt lat="42.0180655" lon="12.6646052"><ele>77.0</ele><time>2026-05-03T09:45:14.442Z</time></trkpt><trkpt lat="42.0179826" lon="12.6646032"><ele>77.0</ele><time>2026-05-03T09:45:17.442Z</time></trkpt><trkpt lat="42.0179033" lon="12.6646144"><ele>77.0</ele><time>2026-05-03T09:45:20.443Z</time></trkpt><trkpt lat="42.0178368" lon="12.6646514"><ele>77.0</ele><time>2026-05-03T09:45:24.442Z</time></trkpt><trkpt lat="42.0178473" lon="12.6647396"><ele>77.0</ele><time>2026-05-03T09:45:27.443Z</time></trkpt><trkpt lat="42.0179091" lon="12.6648099"><ele>77.0</ele><time>2026-05-03T09:45:30.442Z</time></trkpt><trkpt lat="42.0179654" lon="12.6648709"><ele>77.0</ele><time>2026-05-03T09:45:33.442Z</time></trkpt><trkpt lat="42.0179225" lon="12.6647886"><ele>77.0</ele><time>2026-05-03T09:45:46.442Z</time></trkpt><trkpt lat="42.0178445" lon="12.664712"><ele>77.0</ele><time>2026-05-03T09:45:49.443Z</time></trkpt><trkpt lat="42.0177569" lon="12.6646416"><ele>77.0</ele><time>2026-05-03T09:45:51.442Z</time></trkpt><trkpt lat="42.0176796" lon="12.6645488"><ele>77.0</ele><time>2026-05-03T09:45:53.442Z</time></trkpt><trkpt lat="42.0175994" lon="12.664484"><ele>76.8</ele><time>2026-05-03T09:45:55.442Z</time></trkpt><trkpt lat="42.0175147" lon="12.6644199"><ele>76.6</ele><time>2026-05-03T09:45:57.443Z</time></trkpt><trkpt lat="42.0174389" lon="12.6643502"><ele>76.39999999999999</ele><time>2026-05-03T09:45:59.442Z</time></trkpt><trkpt lat="42.0173542" lon="12.6642844"><ele>76.2</ele><time>2026-05-03T09:46:01.443Z</time></trkpt><trkpt lat="42.0172572" lon="12.6642221"><ele>76.0</ele><time>2026-05-03T09:46:03.442Z</time></trkpt><trkpt lat="42.0171461" lon="12.6641694"><ele>75.83333333333333</ele><time>2026-05-03T09:46:05.443Z</time></trkpt><trkpt lat="42.0170322" lon="12.6641297"><ele>75.66666666666666</ele><time>2026-05-03T09:46:07.442Z</time></trkpt><trkpt lat="42.0169506" lon="12.6641107"><ele>75.5</ele><time>2026-05-03T09:46:09.442Z</time></trkpt><trkpt lat="42.0168783" lon="12.6640587"><ele>75.33333333333333</ele><time>2026-05-03T09:46:12.443Z</time></trkpt><trkpt lat="42.016868" lon="12.6639645"><ele>75.16666666666667</ele><time>2026-05-03T09:46:14.443Z</time></trkpt><trkpt lat="42.016909" lon="12.6638499"><ele>75.0</ele><time>2026-05-03T09:46:16.443Z</time></trkpt><trkpt lat="42.0169601" lon="12.6637265"><ele>75.25</ele><time>2026-05-03T09:46:18.442Z</time></trkpt><trkpt lat="42.017019" lon="12.6635917"><ele>75.5</ele><time>2026-05-03T09:46:20.443Z</time></trkpt><trkpt lat="42.0170818" lon="12.6634607"><ele>75.75</ele><time>2026-05-03T09:46:22.443Z</time></trkpt><trkpt lat="42.0171473" lon="12.6633184"><ele>76.0</ele><time>2026-05-03T09:46:24.443Z</time></trkpt><trkpt lat="42.0172137" lon="12.663185"><ele>76.0</ele><time>2026-05-03T09:46:26.442Z</time></trkpt><trkpt lat="42.0172493" lon="12.663109"><ele>76.0</ele><time>2026-05-03T09:46:27.442Z</time></trkpt><trkpt lat="42.01731" lon="12.6629786"><ele>76.0</ele><time>2026-05-03T09:46:29.443Z</time></trkpt><trkpt lat="42.0173574" lon="12.6628611"><ele>76.0</ele><time>2026-05-03T09:46:31.442Z</time></trkpt><trkpt lat="42.017425" lon="12.6627772"><ele>76.0</ele><time>2026-05-03T09:46:33.442Z</time></trkpt><trkpt lat="42.0175205" lon="12.6627367"><ele>76.0</ele><time>2026-05-03T09:46:35.443Z</time></trkpt><trkpt lat="42.0176403" lon="12.6626958"><ele>76.0</ele><time>2026-05-03T09:46:37.442Z</time></trkpt><trkpt lat="42.0177048" lon="12.6626741"><ele>76.0</ele><time>2026-05-03T09:46:38.442Z</time></trkpt><trkpt lat="42.0177683" lon="12.6626443"><ele>76.0</ele><time>2026-05-03T09:46:39.442Z</time></trkpt><trkpt lat="42.017835" lon="12.6624895"><ele>76.0</ele><time>2026-05-03T09:46:41.443Z</time></trkpt><trkpt lat="42.0178595" lon="12.6624013"><ele>76.0</ele><time>2026-05-03T09:46:42.443Z</time></trkpt><trkpt lat="42.0178902" lon="12.6623045"><ele>76.0</ele><time>2026-05-03T09:46:43.443Z</time></trkpt><trkpt lat="42.0179296" lon="12.6622096"><ele>76.0</ele><time>2026-05-03T09:46:44.442Z</time></trkpt><trkpt lat="42.0179737" lon="12.6621189"><ele>76.0</ele><time>2026-05-03T09:46:45.442Z</time></trkpt><trkpt lat="42.018016" lon="12.6620271"><ele>76.0</ele><time>2026-05-03T09:46:46.442Z</time></trkpt><trkpt lat="42.0180631" lon="12.6619385"><ele>76.0</ele><time>2026-05-03T09:46:47.443Z</time></trkpt><trkpt lat="42.0181078" lon="12.661839"><ele>76.2</ele><time>2026-05-03T09:46:48.443Z</time></trkpt><trkpt lat="42.0181572" lon="12.6617406"><ele>76.39999999999999</ele><time>2026-05-03T09:46:49.443Z</time></trkpt><trkpt lat="42.0182093" lon="12.6616482"><ele>76.6</ele><time>2026-05-03T09:46:50.443Z</time></trkpt><trkpt lat="42.0182637" lon="12.6615479"><ele>76.8</ele><time>2026-05-03T09:46:51.443Z</time></trkpt><trkpt lat="42.0183193" lon="12.6614435"><ele>77.0</ele><time>2026-05-03T09:46:52.443Z</time></trkpt><trkpt lat="42.0183755" lon="12.6613432"><ele>78.0</ele><time>2026-05-03T09:46:53.443Z</time></trkpt><trkpt lat="42.0184269" lon="12.6612336"><ele>79.0</ele><time>2026-05-03T09:46:54.442Z</time></trkpt><trkpt lat="42.0184569" lon="12.6611164"><ele>80.0</ele><time>2026-05-03T09:46:55.442Z</time></trkpt><trkpt lat="42.0184779" lon="12.6609971"><ele>81.0</ele><time>2026-05-03T09:46:56.443Z</time></trkpt><trkpt lat="42.0185145" lon="12.6608879"><ele>82.0</ele><time>2026-05-03T09:46:57.443Z</time></trkpt><trkpt lat="42.018554" lon="12.6607847"><ele>82.33333333333333</ele><time>2026-05-03T09:46:58.443Z</time></trkpt><trkpt lat="42.0185896" lon="12.6606846"><ele>82.66666666666666</ele><time>2026-05-03T09:46:59.443Z</time></trkpt><trkpt lat="42.0186276" lon="12.6605833"><ele>83.0</ele><time>2026-05-03T09:47:00.443Z</time></trkpt><trkpt lat="42.0186669" lon="12.660483"><ele>83.33333333333333</ele><time>2026-05-03T09:47:01.442Z</time></trkpt><trkpt lat="42.0187067" lon="12.6603878"><ele>83.66666666666667</ele><time>2026-05-03T09:47:02.443Z</time></trkpt><trkpt lat="42.0187592" lon="12.660287"><ele>84.0</ele><time>2026-05-03T09:47:03.443Z</time></trkpt><trkpt lat="42.0188049" lon="12.6601815"><ele>84.66666666666667</ele><time>2026-05-03T09:47:04.443Z</time></trkpt><trkpt lat="42.0188504" lon="12.6600866"><ele>85.33333333333333</ele><time>2026-05-03T09:47:05.443Z</time></trkpt><trkpt lat="42.0188921" lon="12.6599896"><ele>86.0</ele><time>2026-05-03T09:47:06.442Z</time></trkpt><trkpt lat="42.0189336" lon="12.6599026"><ele>86.66666666666666</ele><time>2026-05-03T09:47:07.442Z</time></trkpt><trkpt lat="42.018973" lon="12.6598103"><ele>87.33333333333333</ele><time>2026-05-03T09:47:08.442Z</time></trkpt><trkpt lat="42.0190059" lon="12.6597134"><ele>88.0</ele><time>2026-05-03T09:47:09.443Z</time></trkpt><trkpt lat="42.0190421" lon="12.6596267"><ele>88.0</ele><time>2026-05-03T09:47:10.443Z</time></trkpt><trkpt lat="42.0190777" lon="12.6595365"><ele>88.0</ele><time>2026-05-03T09:47:11.443Z</time></trkpt><trkpt lat="42.0191012" lon="12.6594383"><ele>88.0</ele><time>2026-05-03T09:47:12.442Z</time></trkpt><trkpt lat="42.0191327" lon="12.6593337"><ele>88.0</ele><time>2026-05-03T09:47:13.443Z</time></trkpt><trkpt lat="42.0191621" lon="12.6592314"><ele>88.0</ele><time>2026-05-03T09:47:14.443Z</time></trkpt><trkpt lat="42.0191884" lon="12.6591345"><ele>88.0</ele><time>2026-05-03T09:47:15.442Z</time></trkpt><trkpt lat="42.0192201" lon="12.6590328"><ele>89.2</ele><time>2026-05-03T09:47:16.443Z</time></trkpt><trkpt lat="42.0192602" lon="12.6589273"><ele>90.4</ele><time>2026-05-03T09:47:17.442Z</time></trkpt><trkpt lat="42.0193027" lon="12.6588231"><ele>91.60000000000001</ele><time>2026-05-03T09:47:18.443Z</time></trkpt><trkpt lat="42.0193464" lon="12.6587177"><ele>92.80000000000001</ele><time>2026-05-03T09:47:19.443Z</time></trkpt><trkpt lat="42.0193946" lon="12.6586146"><ele>94.0</ele><time>2026-05-03T09:47:20.442Z</time></trkpt><trkpt lat="42.0194417" lon="12.6585047"><ele>94.4</ele><time>2026-05-03T09:47:21.442Z</time></trkpt><trkpt lat="42.0194904" lon="12.6583964"><ele>94.80000000000001</ele><time>2026-05-03T09:47:22.443Z</time></trkpt><trkpt lat="42.0195464" lon="12.6583008"><ele>95.19999999999999</ele><time>2026-05-03T09:47:23.443Z</time></trkpt><trkpt lat="42.0196083" lon="12.6582106"><ele>95.6</ele><time>2026-05-03T09:47:24.443Z</time></trkpt><trkpt lat="42.0196796" lon="12.658123"><ele>96.0</ele><time>2026-05-03T09:47:25.443Z</time></trkpt><trkpt lat="42.0182093" lon="12.6616482"><ele>93.19999999999999</ele><time>2026-05-03T09:46:50.443Z</time></trkpt><trkpt lat="42.0182637" lon="12.6615479"><ele>90.39999999999999</ele><time>2026-05-03T09:46:51.443Z</time></trkpt><trkpt lat="42.0183193" lon="12.6614435"><ele>87.6</ele><time>2026-05-03T09:46:52.443Z</time></trkpt><trkpt lat="42.0183755" lon="12.6613432"><ele>84.8</ele><time>2026-05-03T09:46:53.443Z</time></trkpt><trkpt lat="42.0184269" lon="12.6612336"><ele>82.0</ele><time>2026-05-03T09:46:54.442Z</time></trkpt><trkpt lat="42.0184569" lon="12.6611164"><ele>82.33333333333333</ele><time>2026-05-03T09:46:55.442Z</time></trkpt><trkpt lat="42.0184779" lon="12.6609971"><ele>82.66666666666666</ele><time>2026-05-03T09:46:56.443Z</time></trkpt><trkpt lat="42.0185145" lon="12.6608879"><ele>83.0</ele><time>2026-05-03T09:46:57.443Z</time></trkpt><trkpt lat="42.018554" lon="12.6607847"><ele>83.33333333333333</ele><time>2026-05-03T09:46:58.443Z</time></trkpt><trkpt lat="42.0185896" lon="12.6606846"><ele>83.66666666666667</ele><time>2026-05-03T09:46:59.443Z</time></trkpt><trkpt lat="42.0186276" lon="12.6605833"><ele>84.0</ele><time>2026-05-03T09:47:00.443Z</time></trkpt><trkpt lat="42.0186669" lon="12.660483"><ele>84.0</ele><time>2026-05-03T09:47:01.442Z</time></trkpt><trkpt lat="42.0187067" lon="12.6603878"><ele>84.0</ele><time>2026-05-03T09:47:02.443Z</time></trkpt><trkpt lat="42.0187592" lon="12.660287"><ele>84.0</ele><time>2026-05-03T09:47:03.443Z</time></trkpt><trkpt lat="42.0188049" lon="12.6601815"><ele>84.0</ele><time>2026-05-03T09:47:04.443Z</time></trkpt><trkpt lat="42.0188504" lon="12.6600866"><ele>84.0</ele><time>2026-05-03T09:47:05.443Z</time></trkpt><trkpt lat="42.0188921" lon="12.6599896"><ele>84.0</ele><time>2026-05-03T09:47:06.442Z</time></trkpt><trkpt lat="42.0189336" lon="12.6599026"><ele>84.66666666666667</ele><time>2026-05-03T09:47:07.442Z</time></trkpt><trkpt lat="42.018973" lon="12.6598103"><ele>85.33333333333333</ele><time>2026-05-03T09:47:08.442Z</time></trkpt><trkpt lat="42.0190059" lon="12.6597134"><ele>86.0</ele><time>2026-05-03T09:47:09.443Z</time></trkpt><trkpt lat="42.0190421" lon="12.6596267"><ele>86.66666666666666</ele><time>2026-05-03T09:47:10.443Z</time></trkpt><trkpt lat="42.0190777" lon="12.6595365"><ele>87.33333333333333</ele><time>2026-05-03T09:47:11.443Z</time></trkpt><trkpt lat="42.0191012" lon="12.6594383"><ele>88.0</ele><time>2026-05-03T09:47:12.442Z</time></trkpt><trkpt lat="42.0191327" lon="12.6593337"><ele>89.0</ele><time>2026-05-03T09:47:13.443Z</time></trkpt><trkpt lat="42.0191621" lon="12.6592314"><ele>90.0</ele><time>2026-05-03T09:47:14.443Z</time></trkpt><trkpt lat="42.0191884" lon="12.6591345"><ele>91.0</ele><time>2026-05-03T09:47:15.442Z</time></trkpt><trkpt lat="42.0192201" lon="12.6590328"><ele>92.0</ele><time>2026-05-03T09:47:16.443Z</time></trkpt><trkpt lat="42.0192602" lon="12.6589273"><ele>93.0</ele><time>2026-05-03T09:47:17.442Z</time></trkpt><trkpt lat="42.0193027" lon="12.6588231"><ele>94.0</ele><time>2026-05-03T09:47:18.443Z</time></trkpt><trkpt lat="42.0193464" lon="12.6587177"><ele>94.4</ele><time>2026-05-03T09:47:19.443Z</time></trkpt><trkpt lat="42.0193946" lon="12.6586146"><ele>94.80000000000001</ele><time>2026-05-03T09:47:20.442Z</time></trkpt><trkpt lat="42.0194417" lon="12.6585047"><ele>95.19999999999999</ele><time>2026-05-03T09:47:21.442Z</time></trkpt><trkpt lat="42.0194904" lon="12.6583964"><ele>95.6</ele><time>2026-05-03T09:47:22.443Z</time></trkpt><trkpt lat="42.0195464" lon="12.6583008"><ele>96.0</ele><time>2026-05-03T09:47:23.443Z</time></trkpt><trkpt lat="42.0196083" lon="12.6582106"><ele>96.0</ele><time>2026-05-03T09:47:24.443Z</time></trkpt><trkpt lat="42.0196796" lon="12.658123"><ele>96.0</ele><time>2026-05-03T09:47:25.443Z</time></trkpt><trkpt lat="42.0197522" lon="12.6580427"><ele>96.0</ele><time>2026-05-03T09:47:26.442Z</time></trkpt><trkpt lat="42.019816" lon="12.6579655"><ele>96.0</ele><time>2026-05-03T09:47:27.442Z</time></trkpt><trkpt lat="42.01989" lon="12.6578741"><ele>96.0</ele><time>2026-05-03T09:47:29.442Z</time></trkpt><trkpt lat="42.0199995" lon="12.6577672"><ele>97.0</ele><time>2026-05-03T09:47:31.443Z</time></trkpt><trkpt lat="42.020064" lon="12.657696"><ele>98.0</ele><time>2026-05-03T09:47:32.443Z</time></trkpt><trkpt lat="42.020131" lon="12.6576345"><ele>99.0</ele><time>2026-05-03T09:47:33.442Z</time></trkpt><trkpt lat="42.0201965" lon="12.6575719"><ele>100.0</ele><time>2026-05-03T09:47:34.443Z</time></trkpt><trkpt lat="42.020266" lon="12.6575074"><ele>101.0</ele><time>2026-05-03T09:47:35.443Z</time></trkpt><trkpt lat="42.0203374" lon="12.6574416"><ele>102.0</ele><time>2026-05-03T09:47:36.442Z</time></trkpt><trkpt lat="42.0204112" lon="12.6573824"><ele>102.0</ele><time>2026-05-03T09:47:37.442Z</time></trkpt><trkpt lat="42.0204823" lon="12.6573228"><ele>102.0</ele><time>2026-05-03T09:47:38.443Z</time></trkpt><trkpt lat="42.0205557" lon="12.6572609"><ele>102.0</ele><time>2026-05-03T09:47:39.442Z</time></trkpt><trkpt lat="42.0206386" lon="12.6572122"><ele>102.0</ele><time>2026-05-03T09:47:40.443Z</time></trkpt><trkpt lat="42.0207108" lon="12.6571568"><ele>102.0</ele><time>2026-05-03T09:47:41.442Z</time></trkpt><trkpt lat="42.0207681" lon="12.6570964"><ele>102.0</ele><time>2026-05-03T09:47:42.443Z</time></trkpt><trkpt lat="42.0208291" lon="12.6570285"><ele>104.33333333333333</ele><time>2026-05-03T09:47:43.442Z</time></trkpt><trkpt lat="42.0208865" lon="12.6569535"><ele>106.66666666666666</ele><time>2026-05-03T09:47:44.443Z</time></trkpt><trkpt lat="42.0209374" lon="12.6568662"><ele>109.0</ele><time>2026-05-03T09:47:45.443Z</time></trkpt><trkpt lat="42.0209864" lon="12.6567734"><ele>111.33333333333333</ele><time>2026-05-03T09:47:46.442Z</time></trkpt><trkpt lat="42.0210444" lon="12.6566823"><ele>113.66666666666666</ele><time>2026-05-03T09:47:47.443Z</time></trkpt><trkpt lat="42.0211" lon="12.6565921"><ele>116.0</ele><time>2026-05-03T09:47:48.442Z</time></trkpt><trkpt lat="42.0211592" lon="12.6565115"><ele>115.99999999999999</ele><time>2026-05-03T09:47:49.442Z</time></trkpt><trkpt lat="42.0212131" lon="12.6564344"><ele>116.0</ele><time>2026-05-03T09:47:50.443Z</time></trkpt><trkpt lat="42.0212683" lon="12.6563601"><ele>116.0</ele><time>2026-05-03T09:47:51.442Z</time></trkpt><trkpt lat="42.0213335" lon="12.6562938"><ele>116.0</ele><time>2026-05-03T09:47:52.443Z</time></trkpt><trkpt lat="42.0214001" lon="12.6562109"><ele>115.99999999999999</ele><time>2026-05-03T09:47:53.443Z</time></trkpt><trkpt lat="42.0214691" lon="12.6561223"><ele>116.0</ele><time>2026-05-03T09:47:54.442Z</time></trkpt><trkpt lat="42.0215386" lon="12.6560192"><ele>116.4</ele><time>2026-05-03T09:47:55.442Z</time></trkpt><trkpt lat="42.021615" lon="12.6559169"><ele>116.8</ele><time>2026-05-03T09:47:56.443Z</time></trkpt><trkpt lat="42.0216944" lon="12.6558117"><ele>117.20000000000002</ele><time>2026-05-03T09:47:57.443Z</time></trkpt><trkpt lat="42.0217796" lon="12.6557089"><ele>117.60000000000001</ele><time>2026-05-03T09:47:58.442Z</time></trkpt><trkpt lat="42.0218612" lon="12.6556042"><ele>118.0</ele><time>2026-05-03T09:47:59.443Z</time></trkpt><trkpt lat="42.0219463" lon="12.6555184"><ele>118.5</ele><time>2026-05-03T09:48:00.443Z</time></trkpt><trkpt lat="42.0220427" lon="12.6554385"><ele>119.0</ele><time>2026-05-03T09:48:01.442Z</time></trkpt><trkpt lat="42.0221493" lon="12.6553756"><ele>119.5</ele><time>2026-05-03T09:48:02.443Z</time></trkpt><trkpt lat="42.02226" lon="12.6553227"><ele>120.0</ele><time>2026-05-03T09:48:03.443Z</time></trkpt><trkpt lat="42.0223654" lon="12.6552728"><ele>120.75</ele><time>2026-05-03T09:48:04.443Z</time></trkpt><trkpt lat="42.0224698" lon="12.6552004"><ele>121.5</ele><time>2026-05-03T09:48:05.443Z</time></trkpt><trkpt lat="42.0225834" lon="12.6551291"><ele>122.25</ele><time>2026-05-03T09:48:06.443Z</time></trkpt><trkpt lat="42.0226936" lon="12.6550655"><ele>123.0</ele><time>2026-05-03T09:48:07.442Z</time></trkpt><trkpt lat="42.0228004" lon="12.6549888"><ele>124.0</ele><time>2026-05-03T09:48:08.443Z</time></trkpt><trkpt lat="42.0229062" lon="12.654922"><ele>125.0</ele><time>2026-05-03T09:48:09.443Z</time></trkpt><trkpt lat="42.0230181" lon="12.6548613"><ele>126.0</ele><time>2026-05-03T09:48:10.442Z</time></trkpt><trkpt lat="42.0231236" lon="12.6547983"><ele>127.0</ele><time>2026-05-03T09:48:11.442Z</time></trkpt><trkpt lat="42.0232227" lon="12.6547444"><ele>130.75</ele><time>2026-05-03T09:48:12.443Z</time></trkpt><trkpt lat="42.0233328" lon="12.6546955"><ele>134.5</ele><time>2026-05-03T09:48:13.443Z</time></trkpt><trkpt lat="42.0234379" lon="12.6546496"><ele>138.25</ele><time>2026-05-03T09:48:14.443Z</time></trkpt><trkpt lat="42.0235444" lon="12.6546075"><ele>142.0</ele><time>2026-05-03T09:48:15.442Z</time></trkpt><trkpt lat="42.023653" lon="12.6545579"><ele>142.0</ele><time>2026-05-03T09:48:16.443Z</time></trkpt><trkpt lat="42.0237436" lon="12.654529"><ele>142.0</ele><time>2026-05-03T09:48:17.442Z</time></trkpt><trkpt lat="42.0238192" lon="12.6545002"><ele>142.0</ele><time>2026-05-03T09:48:18.443Z</time></trkpt><trkpt lat="42.023904" lon="12.6544209"><ele>142.0</ele><time>2026-05-03T09:48:20.442Z</time></trkpt><trkpt lat="42.023985" lon="12.6543025"><ele>142.0</ele><time>2026-05-03T09:48:22.442Z</time></trkpt><trkpt lat="42.0240342" lon="12.6542205"><ele>141.2</ele><time>2026-05-03T09:48:23.443Z</time></trkpt><trkpt lat="42.0240891" lon="12.6541238"><ele>140.39999999999998</ele><time>2026-05-03T09:48:24.443Z</time></trkpt><trkpt lat="42.0241545" lon="12.6540355"><ele>139.60000000000002</ele><time>2026-05-03T09:48:25.443Z</time></trkpt><trkpt lat="42.0242195" lon="12.6539394"><ele>138.8</ele><time>2026-05-03T09:48:26.443Z</time></trkpt><trkpt lat="42.0242791" lon="12.6538462"><ele>138.0</ele><time>2026-05-03T09:48:27.443Z</time></trkpt><trkpt lat="42.0243177" lon="12.6537239"><ele>141.0</ele><time>2026-05-03T09:48:28.443Z</time></trkpt><trkpt lat="42.0243529" lon="12.6535967"><ele>144.0</ele><time>2026-05-03T09:48:29.443Z</time></trkpt><trkpt lat="42.0243846" lon="12.6534578"><ele>147.0</ele><time>2026-05-03T09:48:30.442Z</time></trkpt><trkpt lat="42.0244132" lon="12.6533173"><ele>150.0</ele><time>2026-05-03T09:48:31.443Z</time></trkpt><trkpt lat="42.0244404" lon="12.653177"><ele>153.0</ele><time>2026-05-03T09:48:32.442Z</time></trkpt><trkpt lat="42.0244657" lon="12.6530405"><ele>153.0</ele><time>2026-05-03T09:48:33.443Z</time></trkpt><trkpt lat="42.0244877" lon="12.6529024"><ele>153.0</ele><time>2026-05-03T09:48:34.443Z</time></trkpt><trkpt lat="42.0245059" lon="12.6527641"><ele>153.0</ele><time>2026-05-03T09:48:35.442Z</time></trkpt><trkpt lat="42.024519" lon="12.6526224"><ele>153.0</ele><time>2026-05-03T09:48:36.443Z</time></trkpt><trkpt lat="42.0245206" lon="12.6524733"><ele>153.0</ele><time>2026-05-03T09:48:37.443Z</time></trkpt><trkpt lat="42.0245221" lon="12.6523236"><ele>155.0</ele><time>2026-05-03T09:48:38.443Z</time></trkpt><trkpt lat="42.0245228" lon="12.6521772"><ele>157.0</ele><time>2026-05-03T09:48:39.443Z</time></trkpt><trkpt lat="42.0245241" lon="12.6520331"><ele>159.0</ele><time>2026-05-03T09:48:40.442Z</time></trkpt><trkpt lat="42.0245237" lon="12.6518843"><ele>161.0</ele><time>2026-05-03T09:48:41.443Z</time></trkpt><trkpt lat="42.0245224" lon="12.6517375"><ele>163.0</ele><time>2026-05-03T09:48:42.443Z</time></trkpt><trkpt lat="42.0245243" lon="12.6515869"><ele>165.5</ele><time>2026-05-03T09:48:43.443Z</time></trkpt><trkpt lat="42.0245277" lon="12.6514337"><ele>168.0</ele><time>2026-05-03T09:48:44.442Z</time></trkpt><trkpt lat="42.0245341" lon="12.651281"><ele>170.5</ele><time>2026-05-03T09:48:45.442Z</time></trkpt><trkpt lat="42.0245468" lon="12.6511256"><ele>173.0</ele><time>2026-05-03T09:48:46.443Z</time></trkpt><trkpt lat="42.0245569" lon="12.6509717"><ele>176.0</ele><time>2026-05-03T09:48:47.443Z</time></trkpt><trkpt lat="42.024568" lon="12.650824"><ele>179.0</ele><time>2026-05-03T09:48:48.442Z</time></trkpt><trkpt lat="42.0245804" lon="12.650683"><ele>182.0</ele><time>2026-05-03T09:48:49.442Z</time></trkpt><trkpt lat="42.0245929" lon="12.6505719"><ele>185.0</ele><time>2026-05-03T09:48:50.443Z</time></trkpt><trkpt lat="42.024596" lon="12.6504602"><ele>188.0</ele><time>2026-05-03T09:48:52.443Z</time></trkpt><trkpt lat="42.0246149" lon="12.6503274"><ele>189.16666666666666</ele><time>2026-05-03T09:48:55.443Z</time></trkpt><trkpt lat="42.024647" lon="12.6502536"><ele>190.33333333333331</ele><time>2026-05-03T09:48:56.443Z</time></trkpt><trkpt lat="42.0246849" lon="12.6501584"><ele>191.5</ele><time>2026-05-03T09:48:57.443Z</time></trkpt><trkpt lat="42.0247292" lon="12.6500515"><ele>192.66666666666666</ele><time>2026-05-03T09:48:58.443Z</time></trkpt><trkpt lat="42.0247784" lon="12.6499348"><ele>193.83333333333334</ele><time>2026-05-03T09:48:59.443Z</time></trkpt><trkpt lat="42.0248429" lon="12.6498375"><ele>195.0</ele><time>2026-05-03T09:49:00.443Z</time></trkpt><trkpt lat="42.0249207" lon="12.6497401"><ele>194.2</ele><time>2026-05-03T09:49:01.443Z</time></trkpt><trkpt lat="42.025006" lon="12.649659"><ele>193.4</ele><time>2026-05-03T09:49:02.442Z</time></trkpt><trkpt lat="42.0250949" lon="12.6495938"><ele>192.60000000000002</ele><time>2026-05-03T09:49:03.442Z</time></trkpt><trkpt lat="42.0251984" lon="12.6495501"><ele>191.8</ele><time>2026-05-03T09:49:04.442Z</time></trkpt><trkpt lat="42.0253006" lon="12.6495279"><ele>191.0</ele><time>2026-05-03T09:49:05.442Z</time></trkpt><trkpt lat="42.0254025" lon="12.6495187"><ele>191.0</ele><time>2026-05-03T09:49:06.442Z</time></trkpt><trkpt lat="42.0255051" lon="12.6495086"><ele>191.0</ele><time>2026-05-03T09:49:07.442Z</time></trkpt><trkpt lat="42.0256076" lon="12.6494894"><ele>191.0</ele><time>2026-05-03T09:49:08.442Z</time></trkpt><trkpt lat="42.0257068" lon="12.6494608"><ele>191.0</ele><time>2026-05-03T09:49:09.443Z</time></trkpt><trkpt lat="42.025806" lon="12.6494187"><ele>191.0</ele><time>2026-05-03T09:49:10.442Z</time></trkpt><trkpt lat="42.0258979" lon="12.6493737"><ele>191.33333333333331</ele><time>2026-05-03T09:49:11.443Z</time></trkpt><trkpt lat="42.0259969" lon="12.6493192"><ele>191.66666666666666</ele><time>2026-05-03T09:49:12.443Z</time></trkpt><trkpt lat="42.026088" lon="12.6492552"><ele>192.0</ele><time>2026-05-03T09:49:13.442Z</time></trkpt><trkpt lat="42.0261645" lon="12.6491996"><ele>192.33333333333331</ele><time>2026-05-03T09:49:14.442Z</time></trkpt><trkpt lat="42.0262364" lon="12.6491566"><ele>192.66666666666666</ele><time>2026-05-03T09:49:15.443Z</time></trkpt><trkpt lat="42.0262998" lon="12.6491235"><ele>193.0</ele><time>2026-05-03T09:49:16.442Z</time></trkpt><trkpt lat="42.0263554" lon="12.649068"><ele>193.0</ele><time>2026-05-03T09:49:17.442Z</time></trkpt><trkpt lat="42.026411" lon="12.6490042"><ele>193.0</ele><time>2026-05-03T09:49:18.442Z</time></trkpt><trkpt lat="42.0265034" lon="12.6489353"><ele>193.0</ele><time>2026-05-03T09:49:20.443Z</time></trkpt><trkpt lat="42.0265834" lon="12.6488548"><ele>193.0</ele><time>2026-05-03T09:49:22.443Z</time></trkpt><trkpt lat="42.0266929" lon="12.6487531"><ele>193.0</ele><time>2026-05-03T09:49:24.443Z</time></trkpt><trkpt lat="42.0267584" lon="12.648694"><ele>192.99999999999997</ele><time>2026-05-03T09:49:25.442Z</time></trkpt><trkpt lat="42.0268278" lon="12.6486283"><ele>193.0</ele><time>2026-05-03T09:49:26.442Z</time></trkpt><trkpt lat="42.0268996" lon="12.6485545"><ele>193.0</ele><time>2026-05-03T09:49:27.442Z</time></trkpt><trkpt lat="42.0269664" lon="12.6484748"><ele>193.0</ele><time>2026-05-03T09:49:28.443Z</time></trkpt><trkpt lat="42.0270229" lon="12.6483951"><ele>192.99999999999997</ele><time>2026-05-03T09:49:29.443Z</time></trkpt><trkpt lat="42.0270757" lon="12.648318"><ele>193.0</ele><time>2026-05-03T09:49:30.442Z</time></trkpt><trkpt lat="42.0271363" lon="12.6482304"><ele>193.0</ele><time>2026-05-03T09:49:31.442Z</time></trkpt><trkpt lat="42.0272042" lon="12.6481523"><ele>193.0</ele><time>2026-05-03T09:49:32.442Z</time></trkpt><trkpt lat="42.0272686" lon="12.6480698"><ele>193.0</ele><time>2026-05-03T09:49:33.442Z</time></trkpt><trkpt lat="42.0273419" lon="12.6479894"><ele>193.0</ele><time>2026-05-03T09:49:34.443Z</time></trkpt><trkpt lat="42.0274043" lon="12.6478948"><ele>193.0</ele><time>2026-05-03T09:49:35.443Z</time></trkpt><trkpt lat="42.0274797" lon="12.647806"><ele>193.2</ele><time>2026-05-03T09:49:36.443Z</time></trkpt><trkpt lat="42.0275504" lon="12.6477181"><ele>193.4</ele><time>2026-05-03T09:49:37.443Z</time></trkpt><trkpt lat="42.027624" lon="12.6476307"><ele>193.6</ele><time>2026-05-03T09:49:38.443Z</time></trkpt><trkpt lat="42.0276939" lon="12.6475306"><ele>193.79999999999998</ele><time>2026-05-03T09:49:39.443Z</time></trkpt><trkpt lat="42.027767" lon="12.6474306"><ele>194.0</ele><time>2026-05-03T09:49:40.443Z</time></trkpt><trkpt lat="42.0278392" lon="12.6473344"><ele>194.0</ele><time>2026-05-03T09:49:41.442Z</time></trkpt><trkpt lat="42.0279155" lon="12.6472337"><ele>194.0</ele><time>2026-05-03T09:49:42.442Z</time></trkpt><trkpt lat="42.027992" lon="12.6471454"><ele>194.0</ele><time>2026-05-03T09:49:43.442Z</time></trkpt><trkpt lat="42.0280657" lon="12.6470471"><ele>194.0</ele><time>2026-05-03T09:49:44.443Z</time></trkpt><trkpt lat="42.0281363" lon="12.646954"><ele>194.0</ele><time>2026-05-03T09:49:45.442Z</time></trkpt><trkpt lat="42.02822" lon="12.6468739"><ele>194.5</ele><time>2026-05-03T09:49:46.443Z</time></trkpt><trkpt lat="42.0283106" lon="12.6467961"><ele>195.0</ele><time>2026-05-03T09:49:47.442Z</time></trkpt><trkpt lat="42.0284135" lon="12.646719"><ele>195.5</ele><time>2026-05-03T09:49:48.443Z</time></trkpt><trkpt lat="42.0285084" lon="12.6466407"><ele>196.0</ele><time>2026-05-03T09:49:49.442Z</time></trkpt><trkpt lat="42.0286064" lon="12.6465603"><ele>196.0</ele><time>2026-05-03T09:49:50.442Z</time></trkpt><trkpt lat="42.0287047" lon="12.6464799"><ele>196.0</ele><time>2026-05-03T09:49:51.443Z</time></trkpt><trkpt lat="42.0288027" lon="12.6463972"><ele>196.0</ele><time>2026-05-03T09:49:52.443Z</time></trkpt><trkpt lat="42.028903" lon="12.6463251"><ele>196.0</ele><time>2026-05-03T09:49:53.442Z</time></trkpt><trkpt lat="42.0290009" lon="12.6462547"><ele>196.0</ele><time>2026-05-03T09:49:54.442Z</time></trkpt><trkpt lat="42.0290978" lon="12.6462032"><ele>196.0</ele><time>2026-05-03T09:49:55.443Z</time></trkpt><trkpt lat="42.029211" lon="12.646162"><ele>196.0</ele><time>2026-05-03T09:49:56.443Z</time></trkpt><trkpt lat="42.0293161" lon="12.646127"><ele>196.0</ele><time>2026-05-03T09:49:57.443Z</time></trkpt><trkpt lat="42.0294215" lon="12.6461037"><ele>196.0</ele><time>2026-05-03T09:49:58.443Z</time></trkpt><trkpt lat="42.0295281" lon="12.646089"><ele>194.20000000000002</ele><time>2026-05-03T09:49:59.443Z</time></trkpt><trkpt lat="42.0296319" lon="12.6460741"><ele>192.4</ele><time>2026-05-03T09:50:00.442Z</time></trkpt><trkpt lat="42.0297364" lon="12.6460594"><ele>190.6</ele><time>2026-05-03T09:50:01.442Z</time></trkpt><trkpt lat="42.0298411" lon="12.646033"><ele>188.8</ele><time>2026-05-03T09:50:02.442Z</time></trkpt><trkpt lat="42.0299494" lon="12.6460006"><ele>187.0</ele><time>2026-05-03T09:50:03.442Z</time></trkpt><trkpt lat="42.0300545" lon="12.6459547"><ele>186.25</ele><time>2026-05-03T09:50:04.443Z</time></trkpt><trkpt lat="42.0301576" lon="12.6459016"><ele>185.5</ele><time>2026-05-03T09:50:05.442Z</time></trkpt><trkpt lat="42.0302617" lon="12.6458398"><ele>184.75</ele><time>2026-05-03T09:50:06.443Z</time></trkpt><trkpt lat="42.0303677" lon="12.6457694"><ele>184.0</ele><time>2026-05-03T09:50:07.443Z</time></trkpt><trkpt lat="42.0304709" lon="12.6456932"><ele>184.0</ele><time>2026-05-03T09:50:08.443Z</time></trkpt><trkpt lat="42.030571" lon="12.6456016"><ele>184.0</ele><time>2026-05-03T09:50:09.443Z</time></trkpt><trkpt lat="42.0306662" lon="12.6455026"><ele>184.0</ele><time>2026-05-03T09:50:10.442Z</time></trkpt><trkpt lat="42.0307597" lon="12.6453923"><ele>184.0</ele><time>2026-05-03T09:50:11.442Z</time></trkpt><trkpt lat="42.0308513" lon="12.6452775"><ele>181.0</ele><time>2026-05-03T09:50:12.443Z</time></trkpt><trkpt lat="42.0309452" lon="12.6451669"><ele>178.0</ele><time>2026-05-03T09:50:13.442Z</time></trkpt><trkpt lat="42.031039" lon="12.6450573"><ele>175.0</ele><time>2026-05-03T09:50:14.442Z</time></trkpt><trkpt lat="42.0311351" lon="12.644954"><ele>172.0</ele><time>2026-05-03T09:50:15.442Z</time></trkpt><trkpt lat="42.0312328" lon="12.6448483"><ele>172.0</ele><time>2026-05-03T09:50:16.442Z</time></trkpt><trkpt lat="42.0313316" lon="12.6447382"><ele>172.0</ele><time>2026-05-03T09:50:17.442Z</time></trkpt><trkpt lat="42.0314293" lon="12.6446415"><ele>172.0</ele><time>2026-05-03T09:50:18.443Z</time></trkpt><trkpt lat="42.0315371" lon="12.644564"><ele>172.0</ele><time>2026-05-03T09:50:19.443Z</time></trkpt><trkpt lat="42.0316558" lon="12.6445217"><ele>173.2</ele><time>2026-05-03T09:50:20.443Z</time></trkpt><trkpt lat="42.0317763" lon="12.6445076"><ele>174.39999999999998</ele><time>2026-05-03T09:50:21.443Z</time></trkpt><trkpt lat="42.0318911" lon="12.6445249"><ele>175.60000000000002</ele><time>2026-05-03T09:50:22.442Z</time></trkpt><trkpt lat="42.0319994" lon="12.644553"><ele>176.8</ele><time>2026-05-03T09:50:23.442Z</time></trkpt><trkpt lat="42.0320934" lon="12.6445973"><ele>178.0</ele><time>2026-05-03T09:50:24.442Z</time></trkpt><trkpt lat="42.0321798" lon="12.644645"><ele>178.0</ele><time>2026-05-03T09:50:25.443Z</time></trkpt><trkpt lat="42.0322506" lon="12.6446914"><ele>178.0</ele><time>2026-05-03T09:50:26.443Z</time></trkpt><trkpt lat="42.0323166" lon="12.644724"><ele>178.0</ele><time>2026-05-03T09:50:27.443Z</time></trkpt><trkpt lat="42.0324178" lon="12.6447749"><ele>178.0</ele><time>2026-05-03T09:50:29.443Z</time></trkpt><trkpt lat="42.0324843" lon="12.6448106"><ele>178.0</ele><time>2026-05-03T09:50:32.442Z</time></trkpt><trkpt lat="42.0325694" lon="12.6448448"><ele>178.0</ele><time>2026-05-03T09:50:54.443Z</time></trkpt><trkpt lat="42.0326831" lon="12.6448499"><ele>178.0</ele><time>2026-05-03T09:50:56.442Z</time></trkpt><trkpt lat="42.0327507" lon="12.6448312"><ele>178.0</ele><time>2026-05-03T09:50:57.443Z</time></trkpt><trkpt lat="42.0328297" lon="12.6448147"><ele>178.0</ele><time>2026-05-03T09:50:58.443Z</time></trkpt><trkpt lat="42.0329178" lon="12.6448021"><ele>178.0</ele><time>2026-05-03T09:50:59.443Z</time></trkpt><trkpt lat="42.0330184" lon="12.6447782"><ele>178.0</ele><time>2026-05-03T09:51:00.443Z</time></trkpt><trkpt lat="42.033124" lon="12.6447581"><ele>178.0</ele><time>2026-05-03T09:51:01.443Z</time></trkpt><trkpt lat="42.0332308" lon="12.644739"><ele>176.5</ele><time>2026-05-03T09:51:02.443Z</time></trkpt><trkpt lat="42.0333273" lon="12.6447216"><ele>175.0</ele><time>2026-05-03T09:51:03.443Z</time></trkpt><trkpt lat="42.0334142" lon="12.6447096"><ele>173.5</ele><time>2026-05-03T09:51:04.443Z</time></trkpt><trkpt lat="42.0334908" lon="12.6447012"><ele>172.0</ele><time>2026-05-03T09:51:05.442Z</time></trkpt><trkpt lat="42.0335673" lon="12.6446918"><ele>170.5</ele><time>2026-05-03T09:51:06.443Z</time></trkpt><trkpt lat="42.0336449" lon="12.6446778"><ele>169.0</ele><time>2026-05-03T09:51:07.442Z</time></trkpt><trkpt lat="42.0337166" lon="12.6446681"><ele>169.0</ele><time>2026-05-03T09:51:08.442Z</time></trkpt><trkpt lat="42.0337862" lon="12.6446646"><ele>169.0</ele><time>2026-05-03T09:51:09.443Z</time></trkpt><trkpt lat="42.0338945" lon="12.6447165"><ele>169.0</ele><time>2026-05-03T09:51:11.442Z</time></trkpt><trkpt lat="42.0339616" lon="12.6448131"><ele>169.0</ele><time>2026-05-03T09:51:13.443Z</time></trkpt><trkpt lat="42.0339849" lon="12.6449561"><ele>169.0</ele><time>2026-05-03T09:51:15.443Z</time></trkpt><trkpt lat="42.0340761" lon="12.6449678"><ele>169.0</ele><time>2026-05-03T09:51:17.443Z</time></trkpt><trkpt lat="42.0341142" lon="12.6448975"><ele>169.0</ele><time>2026-05-03T09:51:18.442Z</time></trkpt><trkpt lat="42.0341121" lon="12.6448079"><ele>169.0</ele><time>2026-05-03T09:51:19.443Z</time></trkpt><trkpt lat="42.0341064" lon="12.6447142"><ele>169.0</ele><time>2026-05-03T09:51:20.443Z</time></trkpt><trkpt lat="42.0340992" lon="12.6446212"><ele>169.0</ele><time>2026-05-03T09:51:21.442Z</time></trkpt><trkpt lat="42.0340934" lon="12.6445293"><ele>169.0</ele><time>2026-05-03T09:51:22.442Z</time></trkpt><trkpt lat="42.0340897" lon="12.6444334"><ele>169.0</ele><time>2026-05-03T09:51:23.442Z</time></trkpt><trkpt lat="42.0340919" lon="12.6443342"><ele>168.79999999999998</ele><time>2026-05-03T09:51:24.442Z</time></trkpt><trkpt lat="42.0341008" lon="12.6442205"><ele>168.6</ele><time>2026-05-03T09:51:25.442Z</time></trkpt><trkpt lat="42.0341248" lon="12.6441035"><ele>168.4</ele><time>2026-05-03T09:51:26.443Z</time></trkpt><trkpt lat="42.0341611" lon="12.6439802"><ele>168.2</ele><time>2026-05-03T09:51:27.443Z</time></trkpt><trkpt lat="42.0341957" lon="12.6438631"><ele>168.0</ele><time>2026-05-03T09:51:28.442Z</time></trkpt><trkpt lat="42.0342312" lon="12.6437418"><ele>167.0</ele><time>2026-05-03T09:51:29.442Z</time></trkpt><trkpt lat="42.0342672" lon="12.6436207"><ele>166.0</ele><time>2026-05-03T09:51:30.442Z</time></trkpt><trkpt lat="42.0343101" lon="12.643497"><ele>165.0</ele><time>2026-05-03T09:51:31.443Z</time></trkpt><trkpt lat="42.0343495" lon="12.6433739"><ele>164.0</ele><time>2026-05-03T09:51:32.443Z</time></trkpt><trkpt lat="42.0343934" lon="12.6432419"><ele>163.0</ele><time>2026-05-03T09:51:33.443Z</time></trkpt><trkpt lat="42.0344309" lon="12.643113"><ele>163.0</ele><time>2026-05-03T09:51:34.443Z</time></trkpt><trkpt lat="42.0344732" lon="12.6429876"><ele>163.0</ele><time>2026-05-03T09:51:35.443Z</time></trkpt><trkpt lat="42.0345218" lon="12.6428607"><ele>163.0</ele><time>2026-05-03T09:51:36.443Z</time></trkpt><trkpt lat="42.0345765" lon="12.6427382"><ele>163.0</ele><time>2026-05-03T09:51:37.442Z</time></trkpt><trkpt lat="42.0346273" lon="12.6426171"><ele>163.0</ele><time>2026-05-03T09:51:38.442Z</time></trkpt><trkpt lat="42.0346803" lon="12.642494"><ele>163.4</ele><time>2026-05-03T09:51:39.443Z</time></trkpt><trkpt lat="42.0347295" lon="12.642376"><ele>163.8</ele><time>2026-05-03T09:51:40.443Z</time></trkpt><trkpt lat="42.0347764" lon="12.6422554"><ele>164.2</ele><time>2026-05-03T09:51:41.442Z</time></trkpt><trkpt lat="42.0348231" lon="12.6421336"><ele>164.6</ele><time>2026-05-03T09:51:42.442Z</time></trkpt><trkpt lat="42.0348729" lon="12.6420143"><ele>165.0</ele><time>2026-05-03T09:51:43.442Z</time></trkpt><trkpt lat="42.0349195" lon="12.6418946"><ele>164.71428571428572</ele><time>2026-05-03T09:51:44.442Z</time></trkpt><trkpt lat="42.0349637" lon="12.6417922"><ele>164.42857142857144</ele><time>2026-05-03T09:51:45.442Z</time></trkpt><trkpt lat="42.0349953" lon="12.6417036"><ele>164.14285714285717</ele><time>2026-05-03T09:51:46.442Z</time></trkpt><trkpt lat="42.0350277" lon="12.6416257"><ele>163.85714285714286</ele><time>2026-05-03T09:51:47.442Z</time></trkpt><trkpt lat="42.0350678" lon="12.6415547"><ele>163.57142857142856</ele><time>2026-05-03T09:51:48.443Z</time></trkpt><trkpt lat="42.035108" lon="12.6414616"><ele>163.2857142857143</ele><time>2026-05-03T09:51:49.442Z</time></trkpt><trkpt lat="42.0351524" lon="12.6413796"><ele>163.0</ele><time>2026-05-03T09:51:50.442Z</time></trkpt><trkpt lat="42.0351978" lon="12.6412814"><ele>163.0</ele><time>2026-05-03T09:51:51.443Z</time></trkpt><trkpt lat="42.0352317" lon="12.641187"><ele>163.0</ele><time>2026-05-03T09:51:52.442Z</time></trkpt><trkpt lat="42.0352768" lon="12.6410902"><ele>163.0</ele><time>2026-05-03T09:51:53.443Z</time></trkpt><trkpt lat="42.0353113" lon="12.6409859"><ele>163.0</ele><time>2026-05-03T09:51:54.442Z</time></trkpt><trkpt lat="42.0353445" lon="12.6408799"><ele>163.0</ele><time>2026-05-03T09:51:55.443Z</time></trkpt><trkpt lat="42.0353926" lon="12.6407839"><ele>163.0</ele><time>2026-05-03T09:51:56.443Z</time></trkpt><trkpt lat="42.0354379" lon="12.6407017"><ele>163.4</ele><time>2026-05-03T09:51:57.441Z</time></trkpt><trkpt lat="42.0354913" lon="12.6405929"><ele>163.8</ele><time>2026-05-03T09:51:59.441Z</time></trkpt><trkpt lat="42.0355497" lon="12.6404574"><ele>164.2</ele><time>2026-05-03T09:52:01.442Z</time></trkpt><trkpt lat="42.0355851" lon="12.6403755"><ele>164.6</ele><time>2026-05-03T09:52:02.442Z</time></trkpt><trkpt lat="42.0356252" lon="12.6402764"><ele>165.0</ele><time>2026-05-03T09:52:03.441Z</time></trkpt><trkpt lat="42.0356726" lon="12.6401689"><ele>165.66666666666666</ele><time>2026-05-03T09:52:04.441Z</time></trkpt><trkpt lat="42.0357207" lon="12.640063"><ele>166.33333333333334</ele><time>2026-05-03T09:52:05.441Z</time></trkpt><trkpt lat="42.0357653" lon="12.6399705"><ele>167.0</ele><time>2026-05-03T09:52:06.441Z</time></trkpt><trkpt lat="42.0358084" lon="12.6398779"><ele>167.66666666666669</ele><time>2026-05-03T09:52:07.442Z</time></trkpt><trkpt lat="42.0358454" lon="12.6397993"><ele>168.33333333333334</ele><time>2026-05-03T09:52:08.441Z</time></trkpt><trkpt lat="42.0358819" lon="12.6397279"><ele>169.0</ele><time>2026-05-03T09:52:09.441Z</time></trkpt><trkpt lat="42.0359311" lon="12.6396231"><ele>168.16666666666669</ele><time>2026-05-03T09:52:11.441Z</time></trkpt><trkpt lat="42.0359699" lon="12.6395467"><ele>167.33333333333334</ele><time>2026-05-03T09:52:13.442Z</time></trkpt><trkpt lat="42.0359985" lon="12.6394548"><ele>166.5</ele><time>2026-05-03T09:52:16.441Z</time></trkpt><trkpt lat="42.0360426" lon="12.6393089"><ele>165.66666666666666</ele><time>2026-05-03T09:52:23.441Z</time></trkpt><trkpt lat="42.0360899" lon="12.6392191"><ele>164.83333333333331</ele><time>2026-05-03T09:52:25.442Z</time></trkpt><trkpt lat="42.0361353" lon="12.6391135"><ele>164.0</ele><time>2026-05-03T09:52:27.441Z</time></trkpt><trkpt lat="42.036181" lon="12.6389635"><ele>164.0</ele><time>2026-05-03T09:52:29.442Z</time></trkpt><trkpt lat="42.036239" lon="12.6388379"><ele>164.0</ele><time>2026-05-03T09:52:31.442Z</time></trkpt><trkpt lat="42.0363063" lon="12.6387314"><ele>164.0</ele><time>2026-05-03T09:52:33.441Z</time></trkpt><trkpt lat="42.0363617" lon="12.6385881"><ele>164.0</ele><time>2026-05-03T09:52:35.441Z</time></trkpt><trkpt lat="42.0363992" lon="12.6385041"><ele>164.0</ele><time>2026-05-03T09:52:36.442Z</time></trkpt><trkpt lat="42.0364432" lon="12.6384094"><ele>163.66666666666666</ele><time>2026-05-03T09:52:37.442Z</time></trkpt><trkpt lat="42.0364783" lon="12.6383013"><ele>163.33333333333331</ele><time>2026-05-03T09:52:38.441Z</time></trkpt><trkpt lat="42.0365088" lon="12.6382074"><ele>163.0</ele><time>2026-05-03T09:52:39.442Z</time></trkpt><trkpt lat="42.0365339" lon="12.6381203"><ele>162.66666666666666</ele><time>2026-05-03T09:52:40.442Z</time></trkpt><trkpt lat="42.0365458" lon="12.6380366"><ele>162.33333333333334</ele><time>2026-05-03T09:52:41.442Z</time></trkpt><trkpt lat="42.0365387" lon="12.6379013"><ele>162.0</ele><time>2026-05-03T09:52:43.441Z</time></trkpt><trkpt lat="42.0365002" lon="12.6377924"><ele>159.6</ele><time>2026-05-03T09:52:45.441Z</time></trkpt><trkpt lat="42.0364498" lon="12.6377208"><ele>157.2</ele><time>2026-05-03T09:52:47.441Z</time></trkpt><trkpt lat="42.0363172" lon="12.6376976"><ele>154.8</ele><time>2026-05-03T09:52:49.441Z</time></trkpt><trkpt lat="42.0362301" lon="12.6377051"><ele>152.4</ele><time>2026-05-03T09:52:50.442Z</time></trkpt><trkpt lat="42.0361538" lon="12.63772"><ele>150.0</ele><time>2026-05-03T09:52:51.441Z</time></trkpt><trkpt lat="42.0360569" lon="12.6377293"><ele>150.0</ele><time>2026-05-03T09:52:52.442Z</time></trkpt><trkpt lat="42.035967" lon="12.6377332"><ele>150.0</ele><time>2026-05-03T09:52:53.442Z</time></trkpt><trkpt lat="42.0358765" lon="12.637739"><ele>150.0</ele><time>2026-05-03T09:52:54.441Z</time></trkpt><trkpt lat="42.0357996" lon="12.6377486"><ele>150.0</ele><time>2026-05-03T09:52:55.441Z</time></trkpt><trkpt lat="42.0357153" lon="12.6377625"><ele>150.0</ele><time>2026-05-03T09:52:56.441Z</time></trkpt><trkpt lat="42.0356444" lon="12.63777"><ele>150.0</ele><time>2026-05-03T09:52:57.442Z</time></trkpt><trkpt lat="42.0355286" lon="12.6377966"><ele>149.6</ele><time>2026-05-03T09:52:59.442Z</time></trkpt><trkpt lat="42.0354099" lon="12.637792"><ele>149.2</ele><time>2026-05-03T09:53:01.441Z</time></trkpt><trkpt lat="42.0352807" lon="12.6377661"><ele>148.8</ele><time>2026-05-03T09:53:03.441Z</time></trkpt><trkpt lat="42.0352007" lon="12.6377611"><ele>148.4</ele><time>2026-05-03T09:53:04.442Z</time></trkpt><trkpt lat="42.035135" lon="12.6377612"><ele>148.0</ele><time>2026-05-03T09:53:05.442Z</time></trkpt><trkpt lat="42.0350663" lon="12.6377583"><ele>148.0</ele><time>2026-05-03T09:53:06.442Z</time></trkpt><trkpt lat="42.0349971" lon="12.6377622"><ele>148.0</ele><time>2026-05-03T09:53:07.441Z</time></trkpt><trkpt lat="42.0349277" lon="12.6377694"><ele>148.0</ele><time>2026-05-03T09:53:08.441Z</time></trkpt><trkpt lat="42.0348617" lon="12.6377729"><ele>148.0</ele><time>2026-05-03T09:53:09.442Z</time></trkpt><trkpt lat="42.0347401" lon="12.6377751"><ele>148.0</ele><time>2026-05-03T09:53:11.442Z</time></trkpt><trkpt lat="42.0346371" lon="12.6377623"><ele>148.0</ele><time>2026-05-03T09:53:13.442Z</time></trkpt><trkpt lat="42.0345653" lon="12.6376774"><ele>149.33333333333334</ele><time>2026-05-03T09:53:16.441Z</time></trkpt><trkpt lat="42.0345346" lon="12.6375978"><ele>150.66666666666669</ele><time>2026-05-03T09:53:18.441Z</time></trkpt><trkpt lat="42.0345715" lon="12.6375178"><ele>152.0</ele><time>2026-05-03T09:53:21.442Z</time></trkpt><trkpt lat="42.0346365" lon="12.6375339"><ele>153.33333333333334</ele><time>2026-05-03T09:53:23.442Z</time></trkpt><trkpt lat="42.0347272" lon="12.6375403"><ele>154.66666666666666</ele><time>2026-05-03T09:53:25.442Z</time></trkpt><trkpt lat="42.0348047" lon="12.6374598"><ele>156.0</ele><time>2026-05-03T09:53:27.441Z</time></trkpt><trkpt lat="42.0348574" lon="12.6373548"><ele>156.0</ele><time>2026-05-03T09:53:29.441Z</time></trkpt><trkpt lat="42.0348792" lon="12.6372461"><ele>156.0</ele><time>2026-05-03T09:53:31.441Z</time></trkpt><trkpt lat="42.0348423" lon="12.6371233"><ele>156.0</ele><time>2026-05-03T09:53:33.442Z</time></trkpt><trkpt lat="42.0347831" lon="12.6369807"><ele>156.0</ele><time>2026-05-03T09:53:35.441Z</time></trkpt><trkpt lat="42.0347466" lon="12.6369059"><ele>156.0</ele><time>2026-05-03T09:53:36.442Z</time></trkpt><trkpt lat="42.0347128" lon="12.6368332"><ele>156.0</ele><time>2026-05-03T09:53:37.441Z</time></trkpt><trkpt lat="42.034658" lon="12.6366942"><ele>152.6</ele><time>2026-05-03T09:53:39.442Z</time></trkpt><trkpt lat="42.0346189" lon="12.6365662"><ele>149.2</ele><time>2026-05-03T09:53:41.441Z</time></trkpt><trkpt lat="42.0345808" lon="12.636455"><ele>145.8</ele><time>2026-05-03T09:53:43.442Z</time></trkpt><trkpt lat="42.034521" lon="12.6363479"><ele>142.4</ele><time>2026-05-03T09:53:45.441Z</time></trkpt><trkpt lat="42.0344613" lon="12.6362494"><ele>139.0</ele><time>2026-05-03T09:53:47.442Z</time></trkpt><trkpt lat="42.0344051" lon="12.6361629"><ele>133.2</ele><time>2026-05-03T09:53:49.442Z</time></trkpt><trkpt lat="42.034337" lon="12.6360817"><ele>127.4</ele><time>2026-05-03T09:53:51.442Z</time></trkpt><trkpt lat="42.0342429" lon="12.6360303"><ele>121.6</ele><time>2026-05-03T09:53:53.441Z</time></trkpt><trkpt lat="42.0341356" lon="12.6359873"><ele>115.8</ele><time>2026-05-03T09:53:55.442Z</time></trkpt><trkpt lat="42.0340313" lon="12.6359466"><ele>110.0</ele><time>2026-05-03T09:53:57.441Z</time></trkpt><trkpt lat="42.0339273" lon="12.6358881"><ele>109.4</ele><time>2026-05-03T09:53:59.441Z</time></trkpt><trkpt lat="42.0338388" lon="12.6358204"><ele>108.8</ele><time>2026-05-03T09:54:01.442Z</time></trkpt><trkpt lat="42.0337394" lon="12.6357553"><ele>108.19999999999999</ele><time>2026-05-03T09:54:03.441Z</time></trkpt><trkpt lat="42.0336408" lon="12.635714"><ele>107.6</ele><time>2026-05-03T09:54:05.442Z</time></trkpt><trkpt lat="42.033564" lon="12.635686"><ele>107.0</ele><time>2026-05-03T09:54:07.442Z</time></trkpt><trkpt lat="42.0334999" lon="12.6356297"><ele>106.99999999999999</ele><time>2026-05-03T09:54:09.441Z</time></trkpt><trkpt lat="42.0334643" lon="12.6355319"><ele>107.0</ele><time>2026-05-03T09:54:11.442Z</time></trkpt><trkpt lat="42.0334579" lon="12.6354085"><ele>107.0</ele><time>2026-05-03T09:54:13.441Z</time></trkpt><trkpt lat="42.0334576" lon="12.6352962"><ele>107.0</ele><time>2026-05-03T09:54:15.441Z</time></trkpt><trkpt lat="42.0334376" lon="12.6351797"><ele>106.99999999999999</ele><time>2026-05-03T09:54:18.442Z</time></trkpt><trkpt lat="42.0333782" lon="12.6351147"><ele>107.0</ele><time>2026-05-03T09:54:20.442Z</time></trkpt><trkpt lat="42.0333028" lon="12.6350333"><ele>104.6</ele><time>2026-05-03T09:54:22.441Z</time></trkpt><trkpt lat="42.0332011" lon="12.6349675"><ele>102.19999999999999</ele><time>2026-05-03T09:54:24.442Z</time></trkpt><trkpt lat="42.0330934" lon="12.6348886"><ele>99.8</ele><time>2026-05-03T09:54:26.441Z</time></trkpt><trkpt lat="42.032993" lon="12.6348254"><ele>97.4</ele><time>2026-05-03T09:54:28.442Z</time></trkpt><trkpt lat="42.0329009" lon="12.6347839"><ele>95.0</ele><time>2026-05-03T09:54:30.442Z</time></trkpt><trkpt lat="42.0328002" lon="12.6347518"><ele>95.0</ele><time>2026-05-03T09:54:32.442Z</time></trkpt><trkpt lat="42.0326785" lon="12.6347279"><ele>95.0</ele><time>2026-05-03T09:54:34.442Z</time></trkpt><trkpt lat="42.0325586" lon="12.6347212"><ele>95.0</ele><time>2026-05-03T09:54:36.442Z</time></trkpt><trkpt lat="42.032495" lon="12.6347135"><ele>95.0</ele><time>2026-05-03T09:54:37.441Z</time></trkpt><trkpt lat="42.0324312" lon="12.6347074"><ele>95.0</ele><time>2026-05-03T09:54:38.441Z</time></trkpt><trkpt lat="42.0323692" lon="12.6346907"><ele>95.0</ele><time>2026-05-03T09:54:39.441Z</time></trkpt><trkpt lat="42.0322559" lon="12.6346628"><ele>94.6</ele><time>2026-05-03T09:54:41.442Z</time></trkpt><trkpt lat="42.0321422" lon="12.6346529"><ele>94.2</ele><time>2026-05-03T09:54:43.441Z</time></trkpt><trkpt lat="42.0320413" lon="12.6346435"><ele>93.80000000000001</ele><time>2026-05-03T09:54:45.441Z</time></trkpt><trkpt lat="42.0319368" lon="12.6346532"><ele>93.4</ele><time>2026-05-03T09:54:47.441Z</time></trkpt><trkpt lat="42.0318381" lon="12.6346691"><ele>93.0</ele><time>2026-05-03T09:54:49.441Z</time></trkpt><trkpt lat="42.0317637" lon="12.6346598"><ele>93.0</ele><time>2026-05-03T09:54:51.442Z</time></trkpt><trkpt lat="42.0316818" lon="12.6346619"><ele>93.0</ele><time>2026-05-03T09:54:53.442Z</time></trkpt><trkpt lat="42.0316051" lon="12.6346682"><ele>93.0</ele><time>2026-05-03T09:54:56.442Z</time></trkpt><trkpt lat="42.0316813" lon="12.6346694"><ele>93.0</ele><time>2026-05-03T09:55:26.442Z</time></trkpt><trkpt lat="42.0317609" lon="12.6346699"><ele>93.0</ele><time>2026-05-03T09:55:29.441Z</time></trkpt><trkpt lat="42.0318471" lon="12.634671"><ele>93.0</ele><time>2026-05-03T09:55:32.442Z</time></trkpt><trkpt lat="42.0319435" lon="12.6346696"><ele>93.0</ele><time>2026-05-03T09:55:35.442Z</time></trkpt><trkpt lat="42.0320152" lon="12.6346666"><ele>93.0</ele><time>2026-05-03T09:55:38.441Z</time></trkpt><trkpt lat="42.0321691" lon="12.6346903"><ele>93.0</ele><time>2026-05-03T09:57:06.441Z</time></trkpt><trkpt lat="42.0322766" lon="12.6347078"><ele>93.0</ele><time>2026-05-03T09:57:08.441Z</time></trkpt><trkpt lat="42.0323413" lon="12.6347291"><ele>93.0</ele><time>2026-05-03T09:57:09.441Z</time></trkpt><trkpt lat="42.0324073" lon="12.634745"><ele>93.00000000000001</ele><time>2026-05-03T09:57:10.441Z</time></trkpt><trkpt lat="42.0324721" lon="12.6347557"><ele>93.0</ele><time>2026-05-03T09:57:11.441Z</time></trkpt><trkpt lat="42.0325352" lon="12.6347659"><ele>93.0</ele><time>2026-05-03T09:57:12.442Z</time></trkpt><trkpt lat="42.0326002" lon="12.6347736"><ele>93.0</ele><time>2026-05-03T09:57:13.442Z</time></trkpt><trkpt lat="42.0326643" lon="12.6347803"><ele>93.0</ele><time>2026-05-03T09:57:14.441Z</time></trkpt><trkpt lat="42.0327318" lon="12.6347912"><ele>93.00000000000001</ele><time>2026-05-03T09:57:15.442Z</time></trkpt><trkpt lat="42.032802" lon="12.6348029"><ele>93.0</ele><time>2026-05-03T09:57:16.442Z</time></trkpt><trkpt lat="42.032866" lon="12.6348139"><ele>93.33333333333333</ele><time>2026-05-03T09:57:17.442Z</time></trkpt><trkpt lat="42.0329859" lon="12.6348566"><ele>93.66666666666667</ele><time>2026-05-03T09:57:19.441Z</time></trkpt><trkpt lat="42.0330466" lon="12.6348829"><ele>94.0</ele><time>2026-05-03T09:57:20.442Z</time></trkpt><trkpt lat="42.0331072" lon="12.6349188"><ele>94.33333333333334</ele><time>2026-05-03T09:57:21.441Z</time></trkpt><trkpt lat="42.0331722" lon="12.6349575"><ele>94.66666666666667</ele><time>2026-05-03T09:57:22.442Z</time></trkpt><trkpt lat="42.0332331" lon="12.6350027"><ele>95.0</ele><time>2026-05-03T09:57:23.442Z</time></trkpt><trkpt lat="42.0332912" lon="12.6350527"><ele>96.2</ele><time>2026-05-03T09:57:24.441Z</time></trkpt><trkpt lat="42.0333836" lon="12.6351384"><ele>97.4</ele><time>2026-05-03T09:57:26.442Z</time></trkpt><trkpt lat="42.0334542" lon="12.6352159"><ele>98.6</ele><time>2026-05-03T09:57:28.442Z</time></trkpt><trkpt lat="42.0334747" lon="12.6353199"><ele>99.8</ele><time>2026-05-03T09:57:30.442Z</time></trkpt><trkpt lat="42.0334726" lon="12.6354507"><ele>101.0</ele><time>2026-05-03T09:57:32.441Z</time></trkpt><trkpt lat="42.0334821" lon="12.6355803"><ele>100.16666666666666</ele><time>2026-05-03T09:57:34.441Z</time></trkpt><trkpt lat="42.0334632" lon="12.6356983"><ele>99.33333333333333</ele><time>2026-05-03T09:57:36.441Z</time></trkpt><trkpt lat="42.0333758" lon="12.635796"><ele>98.5</ele><time>2026-05-03T09:57:38.441Z</time></trkpt><trkpt lat="42.033323" lon="12.6358481"><ele>97.66666666666666</ele><time>2026-05-03T09:57:39.442Z</time></trkpt><trkpt lat="42.0332726" lon="12.6359089"><ele>96.83333333333333</ele><time>2026-05-03T09:57:40.442Z</time></trkpt><trkpt lat="42.0332212" lon="12.6359665"><ele>96.0</ele><time>2026-05-03T09:57:41.442Z</time></trkpt><trkpt lat="42.0331266" lon="12.6360707"><ele>96.0</ele><time>2026-05-03T09:57:43.442Z</time></trkpt><trkpt lat="42.0330361" lon="12.6361538"><ele>96.0</ele><time>2026-05-03T09:57:45.442Z</time></trkpt><trkpt lat="42.0329573" lon="12.6362001"><ele>96.0</ele><time>2026-05-03T09:57:47.441Z</time></trkpt><trkpt lat="42.0329256" lon="12.6362756"><ele>96.0</ele><time>2026-05-03T09:58:00.441Z</time></trkpt><trkpt lat="42.0329895" lon="12.636233"><ele>96.0</ele><time>2026-05-03T09:58:03.442Z</time></trkpt><trkpt lat="42.0330518" lon="12.636148"><ele>96.0</ele><time>2026-05-03T09:58:05.442Z</time></trkpt><trkpt lat="42.033149" lon="12.6360497"><ele>96.0</ele><time>2026-05-03T09:58:07.442Z</time></trkpt><trkpt lat="42.0332333" lon="12.6359633"><ele>96.0</ele><time>2026-05-03T09:58:09.441Z</time></trkpt><trkpt lat="42.0333036" lon="12.6358753"><ele>96.0</ele><time>2026-05-03T09:58:11.442Z</time></trkpt><trkpt lat="42.0333631" lon="12.6358011"><ele>96.0</ele><time>2026-05-03T09:58:13.441Z</time></trkpt><trkpt lat="42.0334283" lon="12.6357234"><ele>96.0</ele><time>2026-05-03T09:58:16.442Z</time></trkpt><trkpt lat="42.033491" lon="12.6356824"><ele>96.0</ele><time>2026-05-03T09:58:18.442Z</time></trkpt><trkpt lat="42.0335941" lon="12.6356988"><ele>97.57142857142857</ele><time>2026-05-03T09:58:20.442Z</time></trkpt><trkpt lat="42.0336554" lon="12.6357282"><ele>99.14285714285714</ele><time>2026-05-03T09:58:21.441Z</time></trkpt><trkpt lat="42.0337154" lon="12.6357662"><ele>100.71428571428572</ele><time>2026-05-03T09:58:22.441Z</time></trkpt><trkpt lat="42.0337738" lon="12.6358031"><ele>102.28571428571428</ele><time>2026-05-03T09:58:23.442Z</time></trkpt><trkpt lat="42.0338297" lon="12.6358441"><ele>103.85714285714286</ele><time>2026-05-03T09:58:24.442Z</time></trkpt><trkpt lat="42.0338901" lon="12.6358912"><ele>105.42857142857143</ele><time>2026-05-03T09:58:25.441Z</time></trkpt><trkpt lat="42.0339572" lon="12.6359276"><ele>107.0</ele><time>2026-05-03T09:58:26.442Z</time></trkpt><trkpt lat="42.0340237" lon="12.6359627"><ele>106.99999999999999</ele><time>2026-05-03T09:58:27.442Z</time></trkpt><trkpt lat="42.0340909" lon="12.6359925"><ele>107.0</ele><time>2026-05-03T09:58:28.442Z</time></trkpt><trkpt lat="42.0341607" lon="12.6360233"><ele>107.0</ele><time>2026-05-03T09:58:29.441Z</time></trkpt><trkpt lat="42.0342245" lon="12.6360553"><ele>107.0</ele><time>2026-05-03T09:58:30.442Z</time></trkpt><trkpt lat="42.0342888" lon="12.6360893"><ele>106.99999999999999</ele><time>2026-05-03T09:58:31.442Z</time></trkpt><trkpt lat="42.0343898" lon="12.6361902"><ele>107.0</ele><time>2026-05-03T09:58:33.441Z</time></trkpt><trkpt lat="42.0344377" lon="12.6362592"><ele>111.57142857142858</ele><time>2026-05-03T09:58:34.441Z</time></trkpt><trkpt lat="42.0344787" lon="12.6363426"><ele>116.14285714285714</ele><time>2026-05-03T09:58:35.441Z</time></trkpt><trkpt lat="42.0345163" lon="12.6364232"><ele>120.71428571428572</ele><time>2026-05-03T09:58:36.441Z</time></trkpt><trkpt lat="42.034557" lon="12.6365075"><ele>125.28571428571429</ele><time>2026-05-03T09:58:37.442Z</time></trkpt><trkpt lat="42.0345878" lon="12.6365866"><ele>129.85714285714286</ele><time>2026-05-03T09:58:38.441Z</time></trkpt><trkpt lat="42.0346146" lon="12.6366716"><ele>134.42857142857142</ele><time>2026-05-03T09:58:39.441Z</time></trkpt><trkpt lat="42.034641" lon="12.6367689"><ele>139.0</ele><time>2026-05-03T09:58:40.442Z</time></trkpt><trkpt lat="42.0346661" lon="12.6368646"><ele>139.0</ele><time>2026-05-03T09:58:41.441Z</time></trkpt><trkpt lat="42.0346983" lon="12.6369557"><ele>139.0</ele><time>2026-05-03T09:58:42.442Z</time></trkpt><trkpt lat="42.0347359" lon="12.6370405"><ele>139.0</ele><time>2026-05-03T09:58:43.442Z</time></trkpt><trkpt lat="42.034778" lon="12.6371186"><ele>139.0</ele><time>2026-05-03T09:58:44.441Z</time></trkpt><trkpt lat="42.034817" lon="12.6371973"><ele>139.0</ele><time>2026-05-03T09:58:45.442Z</time></trkpt><trkpt lat="42.0348518" lon="12.6373023"><ele>139.0</ele><time>2026-05-03T09:58:47.442Z</time></trkpt><trkpt lat="42.0348041" lon="12.6374328"><ele>141.83333333333334</ele><time>2026-05-03T09:58:49.442Z</time></trkpt><trkpt lat="42.0347659" lon="12.6375023"><ele>144.66666666666669</ele><time>2026-05-03T09:58:50.441Z</time></trkpt><trkpt lat="42.0346534" lon="12.6375594"><ele>147.5</ele><time>2026-05-03T09:58:52.441Z</time></trkpt><trkpt lat="42.0345632" lon="12.6375371"><ele>150.33333333333334</ele><time>2026-05-03T09:58:54.442Z</time></trkpt><trkpt lat="42.0345089" lon="12.6376247"><ele>153.16666666666666</ele><time>2026-05-03T09:58:57.442Z</time></trkpt><trkpt lat="42.0345224" lon="12.6377274"><ele>156.0</ele><time>2026-05-03T09:58:59.442Z</time></trkpt><trkpt lat="42.0344487" lon="12.6378154"><ele>156.33333333333334</ele><time>2026-05-03T09:59:02.442Z</time></trkpt><trkpt lat="42.0343856" lon="12.6378386"><ele>156.66666666666666</ele><time>2026-05-03T09:59:03.441Z</time></trkpt><trkpt lat="42.0343191" lon="12.6378686"><ele>157.0</ele><time>2026-05-03T09:59:04.442Z</time></trkpt><trkpt lat="42.0342467" lon="12.6379023"><ele>157.33333333333331</ele><time>2026-05-03T09:59:05.442Z</time></trkpt><trkpt lat="42.0341672" lon="12.6379412"><ele>157.66666666666666</ele><time>2026-05-03T09:59:06.441Z</time></trkpt><trkpt lat="42.0340824" lon="12.6379832"><ele>158.0</ele><time>2026-05-03T09:59:07.442Z</time></trkpt><trkpt lat="42.0340042" lon="12.638025"><ele>155.57142857142858</ele><time>2026-05-03T09:59:08.442Z</time></trkpt><trkpt lat="42.0339297" lon="12.6380721"><ele>153.14285714285714</ele><time>2026-05-03T09:59:09.442Z</time></trkpt><trkpt lat="42.0338634" lon="12.6381092"><ele>150.71428571428572</ele><time>2026-05-03T09:59:10.441Z</time></trkpt><trkpt lat="42.033803" lon="12.6381415"><ele>148.28571428571428</ele><time>2026-05-03T09:59:11.442Z</time></trkpt><trkpt lat="42.0337399" lon="12.6381589"><ele>145.85714285714286</ele><time>2026-05-03T09:59:12.442Z</time></trkpt><trkpt lat="42.0336749" lon="12.6381722"><ele>143.42857142857144</ele><time>2026-05-03T09:59:13.441Z</time></trkpt><trkpt lat="42.0336078" lon="12.6381972"><ele>141.0</ele><time>2026-05-03T09:59:14.441Z</time></trkpt><trkpt lat="42.0335389" lon="12.6382075"><ele>141.0</ele><time>2026-05-03T09:59:15.441Z</time></trkpt><trkpt lat="42.0334683" lon="12.6382433"><ele>141.0</ele><time>2026-05-03T09:59:16.441Z</time></trkpt><trkpt lat="42.0334059" lon="12.6383152"><ele>141.0</ele><time>2026-05-03T09:59:17.441Z</time></trkpt><trkpt lat="42.0333461" lon="12.6383844"><ele>141.0</ele><time>2026-05-03T09:59:18.441Z</time></trkpt><trkpt lat="42.0332949" lon="12.6384597"><ele>141.0</ele><time>2026-05-03T09:59:19.441Z</time></trkpt><trkpt lat="42.0332435" lon="12.6385324"><ele>141.0</ele><time>2026-05-03T09:59:20.441Z</time></trkpt><trkpt lat="42.033185" lon="12.6386087"><ele>137.33333333333334</ele><time>2026-05-03T09:59:21.442Z</time></trkpt><trkpt lat="42.0331261" lon="12.638687"><ele>133.66666666666666</ele><time>2026-05-03T09:59:22.441Z</time></trkpt><trkpt lat="42.0330765" lon="12.6387653"><ele>130.0</ele><time>2026-05-03T09:59:23.441Z</time></trkpt><trkpt lat="42.0330299" lon="12.6388624"><ele>126.33333333333333</ele><time>2026-05-03T09:59:24.442Z</time></trkpt><trkpt lat="42.0329903" lon="12.6389636"><ele>122.66666666666666</ele><time>2026-05-03T09:59:25.442Z</time></trkpt><trkpt lat="42.0329618" lon="12.6390727"><ele>119.0</ele><time>2026-05-03T09:59:26.442Z</time></trkpt><trkpt lat="42.0329343" lon="12.6391804"><ele>118.99999999999999</ele><time>2026-05-03T09:59:27.442Z</time></trkpt><trkpt lat="42.0329051" lon="12.6392901"><ele>119.0</ele><time>2026-05-03T09:59:28.442Z</time></trkpt><trkpt lat="42.0328763" lon="12.6394035"><ele>119.0</ele><time>2026-05-03T09:59:29.442Z</time></trkpt><trkpt lat="42.0328479" lon="12.639522"><ele>119.0</ele><time>2026-05-03T09:59:30.441Z</time></trkpt><trkpt lat="42.0328172" lon="12.6396366"><ele>118.99999999999999</ele><time>2026-05-03T09:59:31.441Z</time></trkpt><trkpt lat="42.0327915" lon="12.6397465"><ele>119.0</ele><time>2026-05-03T09:59:32.442Z</time></trkpt><trkpt lat="42.0327719" lon="12.6398357"><ele>120.49999999999999</ele><time>2026-05-03T09:59:33.441Z</time></trkpt><trkpt lat="42.0327475" lon="12.6399192"><ele>122.0</ele><time>2026-05-03T09:59:35.441Z</time></trkpt><trkpt lat="42.0327802" lon="12.6400283"><ele>123.5</ele><time>2026-05-03T10:00:35.442Z</time></trkpt><trkpt lat="42.0327549" lon="12.640174"><ele>125.0</ele><time>2026-05-03T10:00:37.442Z</time></trkpt><trkpt lat="42.0327332" lon="12.6402613"><ele>126.49999999999999</ele><time>2026-05-03T10:00:38.441Z</time></trkpt><trkpt lat="42.0327085" lon="12.6403542"><ele>128.0</ele><time>2026-05-03T10:00:39.442Z</time></trkpt><trkpt lat="42.0326752" lon="12.640451"><ele>130.8</ele><time>2026-05-03T10:00:40.441Z</time></trkpt><trkpt lat="42.0326306" lon="12.6405566"><ele>133.60000000000002</ele><time>2026-05-03T10:00:41.441Z</time></trkpt><trkpt lat="42.0325868" lon="12.6406671"><ele>136.39999999999998</ele><time>2026-05-03T10:00:42.441Z</time></trkpt><trkpt lat="42.0325496" lon="12.640784"><ele>139.2</ele><time>2026-05-03T10:00:43.442Z</time></trkpt><trkpt lat="42.032511" lon="12.6409089"><ele>142.0</ele><time>2026-05-03T10:00:44.442Z</time></trkpt><trkpt lat="42.0324743" lon="12.6410321"><ele>140.2</ele><time>2026-05-03T10:00:45.442Z</time></trkpt><trkpt lat="42.0324302" lon="12.6411587"><ele>138.39999999999998</ele><time>2026-05-03T10:00:46.442Z</time></trkpt><trkpt lat="42.0323883" lon="12.6412893"><ele>136.60000000000002</ele><time>2026-05-03T10:00:47.441Z</time></trkpt><trkpt lat="42.0323467" lon="12.6414215"><ele>134.8</ele><time>2026-05-03T10:00:48.442Z</time></trkpt><trkpt lat="42.0323104" lon="12.6415528"><ele>133.0</ele><time>2026-05-03T10:00:49.441Z</time></trkpt><trkpt lat="42.0322768" lon="12.6416899"><ele>133.0</ele><time>2026-05-03T10:00:50.442Z</time></trkpt><trkpt lat="42.0322551" lon="12.6418335"><ele>133.0</ele><time>2026-05-03T10:00:51.442Z</time></trkpt><trkpt lat="42.0322498" lon="12.6419852"><ele>133.0</ele><time>2026-05-03T10:00:52.442Z</time></trkpt><trkpt lat="42.0322586" lon="12.6421283"><ele>133.0</ele><time>2026-05-03T10:00:53.442Z</time></trkpt><trkpt lat="42.0322727" lon="12.6422641"><ele>133.0</ele><time>2026-05-03T10:00:54.441Z</time></trkpt><trkpt lat="42.0322721" lon="12.6423801"><ele>134.83333333333334</ele><time>2026-05-03T10:00:55.442Z</time></trkpt><trkpt lat="42.0322526" lon="12.6424869"><ele>136.66666666666669</ele><time>2026-05-03T10:00:56.441Z</time></trkpt><trkpt lat="42.0322287" lon="12.642585"><ele>138.5</ele><time>2026-05-03T10:00:57.442Z</time></trkpt><trkpt lat="42.0321938" lon="12.6426687"><ele>140.33333333333334</ele><time>2026-05-03T10:00:58.442Z</time></trkpt><trkpt lat="42.0321374" lon="12.6427416"><ele>142.16666666666666</ele><time>2026-05-03T10:00:59.442Z</time></trkpt><trkpt lat="42.0320787" lon="12.6428161"><ele>144.0</ele><time>2026-05-03T10:01:00.442Z</time></trkpt><trkpt lat="42.0320287" lon="12.6428839"><ele>146.33333333333334</ele><time>2026-05-03T10:01:01.442Z</time></trkpt><trkpt lat="42.0319789" lon="12.6429573"><ele>148.66666666666666</ele><time>2026-05-03T10:01:02.442Z</time></trkpt><trkpt lat="42.0319266" lon="12.6430291"><ele>151.0</ele><time>2026-05-03T10:01:03.442Z</time></trkpt><trkpt lat="42.0318731" lon="12.6431045"><ele>153.33333333333331</ele><time>2026-05-03T10:01:04.441Z</time></trkpt><trkpt lat="42.0318184" lon="12.6431861"><ele>155.66666666666666</ele><time>2026-05-03T10:01:05.441Z</time></trkpt><trkpt lat="42.031765" lon="12.6432707"><ele>158.0</ele><time>2026-05-03T10:01:06.441Z</time></trkpt><trkpt lat="42.0317104" lon="12.6433625"><ele>158.0</ele><time>2026-05-03T10:01:07.44Z</time></trkpt><trkpt lat="42.0316541" lon="12.6434615"><ele>158.0</ele><time>2026-05-03T10:01:08.44Z</time></trkpt><trkpt lat="42.0315962" lon="12.6435609"><ele>158.0</ele><time>2026-05-03T10:01:09.441Z</time></trkpt><trkpt lat="42.0315394" lon="12.6436637"><ele>158.0</ele><time>2026-05-03T10:01:10.441Z</time></trkpt><trkpt lat="42.0314794" lon="12.6437657"><ele>158.0</ele><time>2026-05-03T10:01:11.441Z</time></trkpt><trkpt lat="42.0314194" lon="12.6438735"><ele>159.0</ele><time>2026-05-03T10:01:12.441Z</time></trkpt><trkpt lat="42.0313552" lon="12.6439893"><ele>160.0</ele><time>2026-05-03T10:01:13.44Z</time></trkpt><trkpt lat="42.0312901" lon="12.644104"><ele>161.0</ele><time>2026-05-03T10:01:14.441Z</time></trkpt><trkpt lat="42.0312187" lon="12.6442193"><ele>162.0</ele><time>2026-05-03T10:01:15.441Z</time></trkpt><trkpt lat="42.0311425" lon="12.6443347"><ele>163.0</ele><time>2026-05-03T10:01:16.441Z</time></trkpt><trkpt lat="42.0310702" lon="12.6444552"><ele>164.8</ele><time>2026-05-03T10:01:17.44Z</time></trkpt><trkpt lat="42.0309891" lon="12.644563"><ele>166.60000000000002</ele><time>2026-05-03T10:01:18.44Z</time></trkpt><trkpt lat="42.0309001" lon="12.6446659"><ele>168.39999999999998</ele><time>2026-05-03T10:01:19.441Z</time></trkpt><trkpt lat="42.0308171" lon="12.6447515"><ele>170.2</ele><time>2026-05-03T10:01:20.441Z</time></trkpt><trkpt lat="42.0307324" lon="12.6448181"><ele>172.0</ele><time>2026-05-03T10:01:21.44Z</time></trkpt><trkpt lat="42.0306593" lon="12.6448797"><ele>173.16666666666669</ele><time>2026-05-03T10:01:22.44Z</time></trkpt><trkpt lat="42.0305898" lon="12.6449344"><ele>174.33333333333334</ele><time>2026-05-03T10:01:23.441Z</time></trkpt><trkpt lat="42.0305237" lon="12.6449872"><ele>175.5</ele><time>2026-05-03T10:01:24.441Z</time></trkpt><trkpt lat="42.0304604" lon="12.6450313"><ele>176.66666666666666</ele><time>2026-05-03T10:01:25.441Z</time></trkpt><trkpt lat="42.0304041" lon="12.6450829"><ele>177.83333333333331</ele><time>2026-05-03T10:01:26.441Z</time></trkpt><trkpt lat="42.0303077" lon="12.6451566"><ele>179.0</ele><time>2026-05-03T10:01:28.441Z</time></trkpt><trkpt lat="42.0302494" lon="12.6451987"><ele>179.0</ele><time>2026-05-03T10:01:30.44Z</time></trkpt><trkpt lat="42.0301808" lon="12.6452448"><ele>179.0</ele><time>2026-05-03T10:01:32.44Z</time></trkpt><trkpt lat="42.0300973" lon="12.6453157"><ele>179.0</ele><time>2026-05-03T10:01:34.44Z</time></trkpt><trkpt lat="42.0299951" lon="12.6454104"><ele>179.0</ele><time>2026-05-03T10:01:36.441Z</time></trkpt><trkpt lat="42.029934" lon="12.6454675"><ele>179.0</ele><time>2026-05-03T10:01:37.441Z</time></trkpt><trkpt lat="42.0298649" lon="12.6455231"><ele>180.33333333333331</ele><time>2026-05-03T10:01:38.441Z</time></trkpt><trkpt lat="42.0297918" lon="12.6455736"><ele>181.66666666666666</ele><time>2026-05-03T10:01:39.441Z</time></trkpt><trkpt lat="42.0297173" lon="12.6456241"><ele>183.0</ele><time>2026-05-03T10:01:40.44Z</time></trkpt><trkpt lat="42.0296382" lon="12.6456784"><ele>184.33333333333334</ele><time>2026-05-03T10:01:41.441Z</time></trkpt><trkpt lat="42.0295642" lon="12.6457362"><ele>185.66666666666669</ele><time>2026-05-03T10:01:42.441Z</time></trkpt><trkpt lat="42.0294872" lon="12.6458001"><ele>187.0</ele><time>2026-05-03T10:01:43.44Z</time></trkpt><trkpt lat="42.0294095" lon="12.6458659"><ele>187.0</ele><time>2026-05-03T10:01:44.441Z</time></trkpt><trkpt lat="42.0293319" lon="12.6459262"><ele>187.0</ele><time>2026-05-03T10:01:45.441Z</time></trkpt><trkpt lat="42.0292627" lon="12.6459851"><ele>187.0</ele><time>2026-05-03T10:01:46.44Z</time></trkpt><trkpt lat="42.0292057" lon="12.6460245"><ele>187.0</ele><time>2026-05-03T10:01:47.441Z</time></trkpt><trkpt lat="42.0291145" lon="12.6460772"><ele>187.0</ele><time>2026-05-03T10:01:49.441Z</time></trkpt><trkpt lat="42.0290455" lon="12.6461488"><ele>187.0</ele><time>2026-05-03T10:01:51.44Z</time></trkpt><trkpt lat="42.0289364" lon="12.6462491"><ele>188.5</ele><time>2026-05-03T10:01:53.441Z</time></trkpt><trkpt lat="42.0288654" lon="12.6463079"><ele>190.0</ele><time>2026-05-03T10:01:54.44Z</time></trkpt><trkpt lat="42.0287939" lon="12.6463697"><ele>191.5</ele><time>2026-05-03T10:01:55.44Z</time></trkpt><trkpt lat="42.0287188" lon="12.6464324"><ele>193.0</ele><time>2026-05-03T10:01:56.441Z</time></trkpt><trkpt lat="42.0286379" lon="12.6464987"><ele>194.49999999999997</ele><time>2026-05-03T10:01:57.441Z</time></trkpt><trkpt lat="42.0285571" lon="12.6465651"><ele>196.0</ele><time>2026-05-03T10:01:58.44Z</time></trkpt><trkpt lat="42.0284746" lon="12.6466338"><ele>196.0</ele><time>2026-05-03T10:01:59.441Z</time></trkpt><trkpt lat="42.0283918" lon="12.6466998"><ele>196.0</ele><time>2026-05-03T10:02:00.441Z</time></trkpt><trkpt lat="42.0283111" lon="12.646765"><ele>196.0</ele><time>2026-05-03T10:02:01.441Z</time></trkpt><trkpt lat="42.0282295" lon="12.6468317"><ele>196.0</ele><time>2026-05-03T10:02:02.44Z</time></trkpt><trkpt lat="42.0281497" lon="12.6469028"><ele>196.0</ele><time>2026-05-03T10:02:03.44Z</time></trkpt><trkpt lat="42.0280792" lon="12.6469732"><ele>195.66666666666666</ele><time>2026-05-03T10:02:04.441Z</time></trkpt><trkpt lat="42.0280205" lon="12.6470467"><ele>195.33333333333331</ele><time>2026-05-03T10:02:05.44Z</time></trkpt><trkpt lat="42.0279611" lon="12.6471148"><ele>195.0</ele><time>2026-05-03T10:02:06.44Z</time></trkpt><trkpt lat="42.0279045" lon="12.6471806"><ele>194.66666666666669</ele><time>2026-05-03T10:02:07.441Z</time></trkpt><trkpt lat="42.0278551" lon="12.64725"><ele>194.33333333333334</ele><time>2026-05-03T10:02:08.441Z</time></trkpt><trkpt lat="42.0277731" lon="12.6473672"><ele>194.0</ele><time>2026-05-03T10:02:10.441Z</time></trkpt><trkpt lat="42.0276869" lon="12.6474741"><ele>194.00000000000003</ele><time>2026-05-03T10:02:12.441Z</time></trkpt><trkpt lat="42.0275994" lon="12.6475877"><ele>194.0</ele><time>2026-05-03T10:02:14.441Z</time></trkpt><trkpt lat="42.0275544" lon="12.6476482"><ele>194.0</ele><time>2026-05-03T10:02:15.441Z</time></trkpt><trkpt lat="42.0275062" lon="12.6477113"><ele>194.0</ele><time>2026-05-03T10:02:16.44Z</time></trkpt><trkpt lat="42.0274569" lon="12.6477755"><ele>194.00000000000003</ele><time>2026-05-03T10:02:17.441Z</time></trkpt><trkpt lat="42.0274045" lon="12.6478401"><ele>194.0</ele><time>2026-05-03T10:02:18.441Z</time></trkpt><trkpt lat="42.0273524" lon="12.6479056"><ele>193.85714285714286</ele><time>2026-05-03T10:02:19.44Z</time></trkpt><trkpt lat="42.0273014" lon="12.6479771"><ele>193.71428571428572</ele><time>2026-05-03T10:02:20.44Z</time></trkpt><trkpt lat="42.0272548" lon="12.6480379"><ele>193.57142857142858</ele><time>2026-05-03T10:02:21.441Z</time></trkpt><trkpt lat="42.0272101" lon="12.6480978"><ele>193.42857142857144</ele><time>2026-05-03T10:02:22.44Z</time></trkpt><trkpt lat="42.0271562" lon="12.648175"><ele>193.28571428571428</ele><time>2026-05-03T10:02:24.44Z</time></trkpt><trkpt lat="42.0271054" lon="12.6482392"><ele>193.14285714285717</ele><time>2026-05-03T10:02:27.44Z</time></trkpt><trkpt lat="42.0270473" lon="12.648304"><ele>193.0</ele><time>2026-05-03T10:02:30.44Z</time></trkpt><trkpt lat="42.0269958" lon="12.6483627"><ele>193.0</ele><time>2026-05-03T10:02:32.441Z</time></trkpt><trkpt lat="42.0269363" lon="12.6484175"><ele>193.0</ele><time>2026-05-03T10:02:34.441Z</time></trkpt><trkpt lat="42.0268695" lon="12.6484754"><ele>193.0</ele><time>2026-05-03T10:02:36.44Z</time></trkpt><trkpt lat="42.0268049" lon="12.6485436"><ele>193.0</ele><time>2026-05-03T10:02:38.44Z</time></trkpt><trkpt lat="42.0267255" lon="12.6486291"><ele>193.0</ele><time>2026-05-03T10:02:40.441Z</time></trkpt><trkpt lat="42.0266184" lon="12.6487075"><ele>192.99999999999997</ele><time>2026-05-03T10:02:42.441Z</time></trkpt><trkpt lat="42.0265607" lon="12.6487442"><ele>193.0</ele><time>2026-05-03T10:02:43.44Z</time></trkpt><trkpt lat="42.0264939" lon="12.6487754"><ele>193.0</ele><time>2026-05-03T10:02:44.441Z</time></trkpt><trkpt lat="42.0264284" lon="12.6487997"><ele>193.0</ele><time>2026-05-03T10:02:45.441Z</time></trkpt><trkpt lat="42.0263028" lon="12.6488284"><ele>192.99999999999997</ele><time>2026-05-03T10:02:47.441Z</time></trkpt><trkpt lat="42.0261997" lon="12.648835"><ele>193.0</ele><time>2026-05-03T10:02:49.44Z</time></trkpt><trkpt lat="42.0261344" lon="12.6488389"><ele>193.0</ele><time>2026-05-03T10:02:51.44Z</time></trkpt><trkpt lat="42.0260494" lon="12.6488396"><ele>193.0</ele><time>2026-05-03T10:02:53.44Z</time></trkpt><trkpt lat="42.0259225" lon="12.6488145"><ele>193.0</ele><time>2026-05-03T10:02:55.44Z</time></trkpt><trkpt lat="42.0258476" lon="12.6487957"><ele>193.0</ele><time>2026-05-03T10:02:56.44Z</time></trkpt><trkpt lat="42.025768" lon="12.6487746"><ele>193.0</ele><time>2026-05-03T10:02:57.44Z</time></trkpt><trkpt lat="42.0256876" lon="12.6487525"><ele>193.33333333333331</ele><time>2026-05-03T10:02:58.44Z</time></trkpt><trkpt lat="42.0256173" lon="12.6487291"><ele>193.66666666666666</ele><time>2026-05-03T10:02:59.44Z</time></trkpt><trkpt lat="42.025553" lon="12.6487147"><ele>194.0</ele><time>2026-05-03T10:03:00.441Z</time></trkpt><trkpt lat="42.0254237" lon="12.6487056"><ele>194.33333333333331</ele><time>2026-05-03T10:03:14.441Z</time></trkpt><trkpt lat="42.025353" lon="12.6487313"><ele>194.66666666666666</ele><time>2026-05-03T10:03:16.441Z</time></trkpt><trkpt lat="42.0252682" lon="12.6487541"><ele>195.0</ele><time>2026-05-03T10:03:18.441Z</time></trkpt><trkpt lat="42.0251873" lon="12.6487686"><ele>195.0</ele><time>2026-05-03T10:03:20.441Z</time></trkpt><trkpt lat="42.0251206" lon="12.6487945"><ele>195.0</ele><time>2026-05-03T10:03:22.441Z</time></trkpt><trkpt lat="42.0250403" lon="12.6488428"><ele>195.0</ele><time>2026-05-03T10:03:25.441Z</time></trkpt><trkpt lat="42.02498" lon="12.648871"><ele>195.0</ele><time>2026-05-03T10:03:27.441Z</time></trkpt><trkpt lat="42.0249064" lon="12.6488699"><ele>195.0</ele><time>2026-05-03T10:03:30.441Z</time></trkpt><trkpt lat="42.0248236" lon="12.6489038"><ele>195.0</ele><time>2026-05-03T10:03:33.44Z</time></trkpt><trkpt lat="42.0247498" lon="12.648945"><ele>195.4</ele><time>2026-05-03T10:03:35.44Z</time></trkpt><trkpt lat="42.0246449" lon="12.6490037"><ele>195.8</ele><time>2026-05-03T10:03:37.441Z</time></trkpt><trkpt lat="42.0245267" lon="12.6490484"><ele>196.2</ele><time>2026-05-03T10:03:39.44Z</time></trkpt><trkpt lat="42.0244503" lon="12.6490631"><ele>196.6</ele><time>2026-05-03T10:03:40.441Z</time></trkpt><trkpt lat="42.0243656" lon="12.6490786"><ele>197.0</ele><time>2026-05-03T10:03:41.44Z</time></trkpt><trkpt lat="42.0242922" lon="12.6490851"><ele>197.00000000000003</ele><time>2026-05-03T10:03:42.441Z</time></trkpt><trkpt lat="42.0242131" lon="12.6490754"><ele>197.0</ele><time>2026-05-03T10:03:43.441Z</time></trkpt><trkpt lat="42.0241366" lon="12.6490649"><ele>197.0</ele><time>2026-05-03T10:03:44.441Z</time></trkpt><trkpt lat="42.0240584" lon="12.6490478"><ele>197.0</ele><time>2026-05-03T10:03:45.441Z</time></trkpt><trkpt lat="42.0239798" lon="12.6490219"><ele>197.00000000000003</ele><time>2026-05-03T10:03:46.441Z</time></trkpt><trkpt lat="42.0238908" lon="12.6489711"><ele>197.0</ele><time>2026-05-03T10:03:47.44Z</time></trkpt><trkpt lat="42.0238046" lon="12.648895"><ele>196.6</ele><time>2026-05-03T10:03:48.44Z</time></trkpt><trkpt lat="42.0237145" lon="12.6488169"><ele>196.2</ele><time>2026-05-03T10:03:49.44Z</time></trkpt><trkpt lat="42.0236231" lon="12.648736"><ele>195.8</ele><time>2026-05-03T10:03:50.441Z</time></trkpt><trkpt lat="42.0235373" lon="12.6486538"><ele>195.4</ele><time>2026-05-03T10:03:51.44Z</time></trkpt><trkpt lat="42.0234534" lon="12.6485739"><ele>195.0</ele><time>2026-05-03T10:03:52.44Z</time></trkpt><trkpt lat="42.0233758" lon="12.6484889"><ele>195.8</ele><time>2026-05-03T10:03:53.441Z</time></trkpt><trkpt lat="42.0232981" lon="12.6484143"><ele>196.6</ele><time>2026-05-03T10:03:54.44Z</time></trkpt><trkpt lat="42.0232198" lon="12.6483411"><ele>197.39999999999998</ele><time>2026-05-03T10:03:55.44Z</time></trkpt><trkpt lat="42.0231372" lon="12.6482619"><ele>198.2</ele><time>2026-05-03T10:03:56.44Z</time></trkpt><trkpt lat="42.0230563" lon="12.6481859"><ele>199.0</ele><time>2026-05-03T10:03:57.44Z</time></trkpt><trkpt lat="42.0229696" lon="12.6481082"><ele>199.0</ele><time>2026-05-03T10:03:58.44Z</time></trkpt><trkpt lat="42.0228786" lon="12.6480296"><ele>199.0</ele><time>2026-05-03T10:03:59.441Z</time></trkpt><trkpt lat="42.022785" lon="12.6479489"><ele>199.0</ele><time>2026-05-03T10:04:00.44Z</time></trkpt><trkpt lat="42.0226906" lon="12.6478685"><ele>199.0</ele><time>2026-05-03T10:04:01.441Z</time></trkpt><trkpt lat="42.0225926" lon="12.6477886"><ele>199.0</ele><time>2026-05-03T10:04:02.441Z</time></trkpt><trkpt lat="42.0225006" lon="12.6477059"><ele>197.33333333333331</ele><time>2026-05-03T10:04:03.441Z</time></trkpt><trkpt lat="42.0224175" lon="12.6476297"><ele>195.66666666666666</ele><time>2026-05-03T10:04:04.44Z</time></trkpt><trkpt lat="42.0223425" lon="12.6475475"><ele>194.0</ele><time>2026-05-03T10:04:05.441Z</time></trkpt><trkpt lat="42.0222766" lon="12.6474717"><ele>192.33333333333331</ele><time>2026-05-03T10:04:06.441Z</time></trkpt><trkpt lat="42.0222166" lon="12.6474032"><ele>190.66666666666666</ele><time>2026-05-03T10:04:07.44Z</time></trkpt><trkpt lat="42.022159" lon="12.6473283"><ele>189.0</ele><time>2026-05-03T10:04:08.44Z</time></trkpt><trkpt lat="42.0221043" lon="12.6472528"><ele>189.0</ele><time>2026-05-03T10:04:09.44Z</time></trkpt><trkpt lat="42.0220551" lon="12.6471737"><ele>189.0</ele><time>2026-05-03T10:04:10.441Z</time></trkpt><trkpt lat="42.0220136" lon="12.6471075"><ele>189.0</ele><time>2026-05-03T10:04:11.441Z</time></trkpt><trkpt lat="42.0219642" lon="12.646999"><ele>189.0</ele><time>2026-05-03T10:04:13.44Z</time></trkpt><trkpt lat="42.0219073" lon="12.646894"><ele>189.0</ele><time>2026-05-03T10:04:15.44Z</time></trkpt><trkpt lat="42.0218342" lon="12.6467494"><ele>189.0</ele><time>2026-05-03T10:04:17.441Z</time></trkpt><trkpt lat="42.0217907" lon="12.6466588"><ele>189.0</ele><time>2026-05-03T10:04:18.441Z</time></trkpt><trkpt lat="42.0217444" lon="12.6465588"><ele>189.0</ele><time>2026-05-03T10:04:19.441Z</time></trkpt><trkpt lat="42.0216992" lon="12.6464527"><ele>189.0</ele><time>2026-05-03T10:04:20.441Z</time></trkpt><trkpt lat="42.0216649" lon="12.6463318"><ele>189.0</ele><time>2026-05-03T10:04:21.441Z</time></trkpt><trkpt lat="42.0216262" lon="12.6462008"><ele>189.75</ele><time>2026-05-03T10:04:22.44Z</time></trkpt><trkpt lat="42.021587" lon="12.646062"><ele>190.5</ele><time>2026-05-03T10:04:23.441Z</time></trkpt><trkpt lat="42.0215495" lon="12.6459169"><ele>191.25</ele><time>2026-05-03T10:04:24.441Z</time></trkpt><trkpt lat="42.0215164" lon="12.645764"><ele>192.0</ele><time>2026-05-03T10:04:25.44Z</time></trkpt><trkpt lat="42.0214871" lon="12.6456109"><ele>192.0</ele><time>2026-05-03T10:04:26.441Z</time></trkpt><trkpt lat="42.0214509" lon="12.6454487"><ele>192.0</ele><time>2026-05-03T10:04:27.44Z</time></trkpt><trkpt lat="42.0214132" lon="12.6452822"><ele>192.0</ele><time>2026-05-03T10:04:28.44Z</time></trkpt><trkpt lat="42.0213627" lon="12.6451162"><ele>192.0</ele><time>2026-05-03T10:04:29.441Z</time></trkpt><trkpt lat="42.0213028" lon="12.6449504"><ele>190.5</ele><time>2026-05-03T10:04:30.441Z</time></trkpt><trkpt lat="42.0212428" lon="12.6447817"><ele>189.0</ele><time>2026-05-03T10:04:31.441Z</time></trkpt><trkpt lat="42.0211804" lon="12.6446121"><ele>187.5</ele><time>2026-05-03T10:04:32.44Z</time></trkpt><trkpt lat="42.0211174" lon="12.6444382"><ele>186.0</ele><time>2026-05-03T10:04:33.441Z</time></trkpt><trkpt lat="42.0210573" lon="12.644258"><ele>184.75</ele><time>2026-05-03T10:04:34.44Z</time></trkpt><trkpt lat="42.0209979" lon="12.6440817"><ele>183.5</ele><time>2026-05-03T10:04:35.441Z</time></trkpt><trkpt lat="42.0209391" lon="12.6439082"><ele>182.25</ele><time>2026-05-03T10:04:36.44Z</time></trkpt><trkpt lat="42.0208783" lon="12.6437489"><ele>181.0</ele><time>2026-05-03T10:04:37.441Z</time></trkpt><trkpt lat="42.0208039" lon="12.6435965"><ele>179.25</ele><time>2026-05-03T10:04:38.44Z</time></trkpt><trkpt lat="42.0207161" lon="12.643468"><ele>177.5</ele><time>2026-05-03T10:04:39.441Z</time></trkpt><trkpt lat="42.0206074" lon="12.6433536"><ele>175.75</ele><time>2026-05-03T10:04:40.441Z</time></trkpt><trkpt lat="42.0204881" lon="12.6432554"><ele>174.0</ele><time>2026-05-03T10:04:41.441Z</time></trkpt><trkpt lat="42.0203667" lon="12.6431579"><ele>174.0</ele><time>2026-05-03T10:04:42.441Z</time></trkpt><trkpt lat="42.0202363" lon="12.6430629"><ele>174.0</ele><time>2026-05-03T10:04:43.441Z</time></trkpt><trkpt lat="42.0201078" lon="12.6429579"><ele>174.0</ele><time>2026-05-03T10:04:44.441Z</time></trkpt><trkpt lat="42.0199719" lon="12.6428585"><ele>169.33333333333334</ele><time>2026-05-03T10:04:45.44Z</time></trkpt><trkpt lat="42.0198284" lon="12.6427525"><ele>164.66666666666669</ele><time>2026-05-03T10:04:46.44Z</time></trkpt><trkpt lat="42.0196938" lon="12.6426542"><ele>160.0</ele><time>2026-05-03T10:04:47.441Z</time></trkpt><trkpt lat="42.0195558" lon="12.6425538"><ele>160.0</ele><time>2026-05-03T10:04:48.44Z</time></trkpt><trkpt lat="42.0194226" lon="12.642448"><ele>160.0</ele><time>2026-05-03T10:04:49.44Z</time></trkpt><trkpt lat="42.0193051" lon="12.6423269"><ele>160.0</ele><time>2026-05-03T10:04:50.441Z</time></trkpt><trkpt lat="42.0191825" lon="12.6421938"><ele>159.66666666666669</ele><time>2026-05-03T10:04:51.441Z</time></trkpt><trkpt lat="42.0190641" lon="12.6420546"><ele>159.33333333333334</ele><time>2026-05-03T10:04:52.44Z</time></trkpt><trkpt lat="42.0189472" lon="12.6419071"><ele>159.0</ele><time>2026-05-03T10:04:53.441Z</time></trkpt><trkpt lat="42.0188348" lon="12.641762"><ele>159.0</ele><time>2026-05-03T10:04:54.441Z</time></trkpt><trkpt lat="42.0187299" lon="12.6416086"><ele>159.0</ele><time>2026-05-03T10:04:55.44Z</time></trkpt><trkpt lat="42.0186236" lon="12.641455"><ele>159.0</ele><time>2026-05-03T10:04:56.44Z</time></trkpt><trkpt lat="42.0185235" lon="12.6413081"><ele>159.0</ele><time>2026-05-03T10:04:57.441Z</time></trkpt><trkpt lat="42.018432" lon="12.641169"><ele>159.0</ele><time>2026-05-03T10:04:58.441Z</time></trkpt><trkpt lat="42.0183252" lon="12.6410203"><ele>159.0</ele><time>2026-05-03T10:04:59.44Z</time></trkpt><trkpt lat="42.018227" lon="12.6408751"><ele>159.0</ele><time>2026-05-03T10:05:00.441Z</time></trkpt><trkpt lat="42.0181312" lon="12.6407369"><ele>165.0</ele><time>2026-05-03T10:05:01.441Z</time></trkpt><trkpt lat="42.0180348" lon="12.6406026"><ele>171.0</ele><time>2026-05-03T10:05:02.441Z</time></trkpt><trkpt lat="42.0179468" lon="12.6404754"><ele>177.0</ele><time>2026-05-03T10:05:03.441Z</time></trkpt><trkpt lat="42.0178545" lon="12.6403468"><ele>183.0</ele><time>2026-05-03T10:05:04.441Z</time></trkpt><trkpt lat="42.0177631" lon="12.6402128"><ele>183.25</ele><time>2026-05-03T10:05:05.44Z</time></trkpt><trkpt lat="42.0176625" lon="12.6400749"><ele>183.5</ele><time>2026-05-03T10:05:06.441Z</time></trkpt><trkpt lat="42.0175614" lon="12.6399352"><ele>183.75</ele><time>2026-05-03T10:05:07.441Z</time></trkpt><trkpt lat="42.0174533" lon="12.6398154"><ele>184.0</ele><time>2026-05-03T10:05:08.441Z</time></trkpt><trkpt lat="42.0173389" lon="12.6397221"><ele>186.25</ele><time>2026-05-03T10:05:09.441Z</time></trkpt><trkpt lat="42.0172109" lon="12.6396439"><ele>188.5</ele><time>2026-05-03T10:05:10.441Z</time></trkpt><trkpt lat="42.0170776" lon="12.6395867"><ele>190.75</ele><time>2026-05-03T10:05:11.44Z</time></trkpt><trkpt lat="42.0169501" lon="12.6395513"><ele>193.0</ele><time>2026-05-03T10:05:12.441Z</time></trkpt><trkpt lat="42.0168214" lon="12.6395204"><ele>193.0</ele><time>2026-05-03T10:05:13.441Z</time></trkpt><trkpt lat="42.0166891" lon="12.6394955"><ele>193.0</ele><time>2026-05-03T10:05:14.441Z</time></trkpt><trkpt lat="42.0165727" lon="12.6394743"><ele>193.0</ele><time>2026-05-03T10:05:15.44Z</time></trkpt><trkpt lat="42.0164344" lon="12.6394669"><ele>193.0</ele><time>2026-05-03T10:05:16.44Z</time></trkpt><trkpt lat="42.0163045" lon="12.6395027"><ele>191.75</ele><time>2026-05-03T10:05:17.441Z</time></trkpt><trkpt lat="42.0161855" lon="12.63954"><ele>190.5</ele><time>2026-05-03T10:05:18.441Z</time></trkpt><trkpt lat="42.0160699" lon="12.6395873"><ele>189.25</ele><time>2026-05-03T10:05:19.441Z</time></trkpt><trkpt lat="42.0159469" lon="12.6396418"><ele>188.0</ele><time>2026-05-03T10:05:20.44Z</time></trkpt><trkpt lat="42.0158235" lon="12.6396949"><ele>186.75</ele><time>2026-05-03T10:05:21.44Z</time></trkpt><trkpt lat="42.0157022" lon="12.6397414"><ele>185.5</ele><time>2026-05-03T10:05:22.441Z</time></trkpt><trkpt lat="42.0155746" lon="12.6397924"><ele>184.25</ele><time>2026-05-03T10:05:23.441Z</time></trkpt><trkpt lat="42.0154457" lon="12.6398202"><ele>183.0</ele><time>2026-05-03T10:05:24.441Z</time></trkpt><trkpt lat="42.0153107" lon="12.6398483"><ele>183.0</ele><time>2026-05-03T10:05:25.44Z</time></trkpt><trkpt lat="42.0151861" lon="12.6398626"><ele>183.0</ele><time>2026-05-03T10:05:26.441Z</time></trkpt><trkpt lat="42.0150672" lon="12.6398592"><ele>183.0</ele><time>2026-05-03T10:05:27.441Z</time></trkpt><trkpt lat="42.0149597" lon="12.6398138"><ele>183.0</ele><time>2026-05-03T10:05:28.441Z</time></trkpt><trkpt lat="42.0148553" lon="12.639757"><ele>183.4</ele><time>2026-05-03T10:05:29.441Z</time></trkpt><trkpt lat="42.014757" lon="12.6396837"><ele>183.8</ele><time>2026-05-03T10:05:30.44Z</time></trkpt><trkpt lat="42.0146667" lon="12.6396066"><ele>184.2</ele><time>2026-05-03T10:05:31.44Z</time></trkpt><trkpt lat="42.0145801" lon="12.6395223"><ele>184.6</ele><time>2026-05-03T10:05:32.44Z</time></trkpt><trkpt lat="42.0145012" lon="12.6394314"><ele>185.0</ele><time>2026-05-03T10:05:33.441Z</time></trkpt><trkpt lat="42.0144219" lon="12.6393313"><ele>185.0</ele><time>2026-05-03T10:05:34.441Z</time></trkpt><trkpt lat="42.0143438" lon="12.6392359"><ele>185.0</ele><time>2026-05-03T10:05:35.441Z</time></trkpt><trkpt lat="42.0142704" lon="12.6391347"><ele>185.0</ele><time>2026-05-03T10:05:36.44Z</time></trkpt><trkpt lat="42.0141933" lon="12.6390426"><ele>185.0</ele><time>2026-05-03T10:05:37.441Z</time></trkpt><trkpt lat="42.0141177" lon="12.6389515"><ele>185.0</ele><time>2026-05-03T10:05:38.44Z</time></trkpt><trkpt lat="42.0140405" lon="12.6388585"><ele>186.5</ele><time>2026-05-03T10:05:39.44Z</time></trkpt><trkpt lat="42.013953" lon="12.6387736"><ele>188.0</ele><time>2026-05-03T10:05:40.44Z</time></trkpt><trkpt lat="42.013854" lon="12.6386926"><ele>189.5</ele><time>2026-05-03T10:05:41.44Z</time></trkpt><trkpt lat="42.0137511" lon="12.6386157"><ele>191.0</ele><time>2026-05-03T10:05:42.441Z</time></trkpt><trkpt lat="42.0136413" lon="12.6385347"><ele>188.0</ele><time>2026-05-03T10:05:43.441Z</time></trkpt><trkpt lat="42.0135316" lon="12.638454"><ele>185.0</ele><time>2026-05-03T10:05:44.441Z</time></trkpt><trkpt lat="42.013417" lon="12.6383783"><ele>182.0</ele><time>2026-05-03T10:05:45.441Z</time></trkpt><trkpt lat="42.0133008" lon="12.6382979"><ele>179.0</ele><time>2026-05-03T10:05:46.441Z</time></trkpt><trkpt lat="42.0131746" lon="12.6382206"><ele>177.75</ele><time>2026-05-03T10:05:47.441Z</time></trkpt><trkpt lat="42.0130445" lon="12.6381542"><ele>176.5</ele><time>2026-05-03T10:05:48.44Z</time></trkpt><trkpt lat="42.0129234" lon="12.6380848"><ele>175.25</ele><time>2026-05-03T10:05:49.44Z</time></trkpt><trkpt lat="42.0127931" lon="12.6380292"><ele>174.0</ele><time>2026-05-03T10:05:50.44Z</time></trkpt><trkpt lat="42.012664" lon="12.6379844"><ele>174.0</ele><time>2026-05-03T10:05:51.441Z</time></trkpt><trkpt lat="42.0125347" lon="12.6379598"><ele>174.0</ele><time>2026-05-03T10:05:52.441Z</time></trkpt><trkpt lat="42.0124165" lon="12.6379637"><ele>174.0</ele><time>2026-05-03T10:05:53.441Z</time></trkpt><trkpt lat="42.0123094" lon="12.6379677"><ele>174.0</ele><time>2026-05-03T10:05:54.441Z</time></trkpt><trkpt lat="42.0122174" lon="12.6379723"><ele>174.0</ele><time>2026-05-03T10:05:55.441Z</time></trkpt><trkpt lat="42.012131" lon="12.6379898"><ele>172.0</ele><time>2026-05-03T10:05:56.44Z</time></trkpt><trkpt lat="42.0120404" lon="12.6380116"><ele>170.0</ele><time>2026-05-03T10:05:57.44Z</time></trkpt><trkpt lat="42.01195" lon="12.638044"><ele>168.0</ele><time>2026-05-03T10:05:58.44Z</time></trkpt><trkpt lat="42.0118557" lon="12.6380904"><ele>166.0</ele><time>2026-05-03T10:05:59.441Z</time></trkpt><trkpt lat="42.0117545" lon="12.6381328"><ele>164.0</ele><time>2026-05-03T10:06:00.44Z</time></trkpt><trkpt lat="42.0116567" lon="12.6381753"><ele>162.2</ele><time>2026-05-03T10:06:01.441Z</time></trkpt><trkpt lat="42.0115575" lon="12.6382204"><ele>160.39999999999998</ele><time>2026-05-03T10:06:02.44Z</time></trkpt><trkpt lat="42.011457" lon="12.6382628"><ele>158.6</ele><time>2026-05-03T10:06:03.441Z</time></trkpt><trkpt lat="42.0113535" lon="12.6383022"><ele>156.8</ele><time>2026-05-03T10:06:04.441Z</time></trkpt><trkpt lat="42.0112452" lon="12.6383371"><ele>155.0</ele><time>2026-05-03T10:06:05.441Z</time></trkpt><trkpt lat="42.0111286" lon="12.6383587"><ele>155.0</ele><time>2026-05-03T10:06:06.441Z</time></trkpt><trkpt lat="42.0110155" lon="12.638363"><ele>155.0</ele><time>2026-05-03T10:06:07.441Z</time></trkpt><trkpt lat="42.0109051" lon="12.6383433"><ele>155.0</ele><time>2026-05-03T10:06:08.44Z</time></trkpt><trkpt lat="42.0108047" lon="12.6382943"><ele>155.0</ele><time>2026-05-03T10:06:09.44Z</time></trkpt><trkpt lat="42.0107168" lon="12.6382249"><ele>155.0</ele><time>2026-05-03T10:06:10.44Z</time></trkpt><trkpt lat="42.0106335" lon="12.6381456"><ele>154.6</ele><time>2026-05-03T10:06:11.44Z</time></trkpt><trkpt lat="42.0105589" lon="12.6380453"><ele>154.2</ele><time>2026-05-03T10:06:12.44Z</time></trkpt><trkpt lat="42.0104895" lon="12.6379311"><ele>153.8</ele><time>2026-05-03T10:06:13.44Z</time></trkpt><trkpt lat="42.0104226" lon="12.6378187"><ele>153.4</ele><time>2026-05-03T10:06:14.44Z</time></trkpt><trkpt lat="42.0103584" lon="12.6377166"><ele>153.0</ele><time>2026-05-03T10:06:15.44Z</time></trkpt><trkpt lat="42.0102996" lon="12.6376157"><ele>151.6</ele><time>2026-05-03T10:06:16.441Z</time></trkpt><trkpt lat="42.010238" lon="12.6375111"><ele>150.20000000000002</ele><time>2026-05-03T10:06:17.44Z</time></trkpt><trkpt lat="42.0101756" lon="12.637405"><ele>148.8</ele><time>2026-05-03T10:06:18.441Z</time></trkpt><trkpt lat="42.0101084" lon="12.6373041"><ele>147.4</ele><time>2026-05-03T10:06:19.441Z</time></trkpt><trkpt lat="42.0100482" lon="12.6372038"><ele>146.0</ele><time>2026-05-03T10:06:20.44Z</time></trkpt><trkpt lat="42.0099897" lon="12.6371057"><ele>145.83333333333331</ele><time>2026-05-03T10:06:21.441Z</time></trkpt><trkpt lat="42.0099312" lon="12.637021"><ele>145.66666666666666</ele><time>2026-05-03T10:06:22.441Z</time></trkpt><trkpt lat="42.0098709" lon="12.6369373"><ele>145.5</ele><time>2026-05-03T10:06:23.44Z</time></trkpt><trkpt lat="42.0098083" lon="12.6368484"><ele>145.33333333333334</ele><time>2026-05-03T10:06:24.441Z</time></trkpt><trkpt lat="42.0097479" lon="12.6367661"><ele>145.16666666666669</ele><time>2026-05-03T10:06:25.441Z</time></trkpt><trkpt lat="42.0096835" lon="12.6366822"><ele>145.0</ele><time>2026-05-03T10:06:26.441Z</time></trkpt><trkpt lat="42.0096217" lon="12.6365926"><ele>145.0</ele><time>2026-05-03T10:06:27.441Z</time></trkpt><trkpt lat="42.0095548" lon="12.6365048"><ele>145.0</ele><time>2026-05-03T10:06:28.44Z</time></trkpt><trkpt lat="42.0094936" lon="12.6364166"><ele>145.0</ele><time>2026-05-03T10:06:29.44Z</time></trkpt><trkpt lat="42.0094241" lon="12.6363195"><ele>145.0</ele><time>2026-05-03T10:06:30.441Z</time></trkpt><trkpt lat="42.009352" lon="12.6362361"><ele>145.0</ele><time>2026-05-03T10:06:31.44Z</time></trkpt><trkpt lat="42.0092816" lon="12.6361504"><ele>145.8</ele><time>2026-05-03T10:06:32.44Z</time></trkpt><trkpt lat="42.0092103" lon="12.6360743"><ele>146.6</ele><time>2026-05-03T10:06:33.44Z</time></trkpt><trkpt lat="42.0091281" lon="12.6360083"><ele>147.4</ele><time>2026-05-03T10:06:34.44Z</time></trkpt><trkpt lat="42.0090487" lon="12.6359504"><ele>148.2</ele><time>2026-05-03T10:06:35.44Z</time></trkpt><trkpt lat="42.0089666" lon="12.6358987"><ele>149.0</ele><time>2026-05-03T10:06:36.441Z</time></trkpt><trkpt lat="42.0088863" lon="12.6358509"><ele>149.0</ele><time>2026-05-03T10:06:37.441Z</time></trkpt><trkpt lat="42.0088048" lon="12.6358184"><ele>149.0</ele><time>2026-05-03T10:06:38.44Z</time></trkpt><trkpt lat="42.0087252" lon="12.6357842"><ele>149.0</ele><time>2026-05-03T10:06:39.441Z</time></trkpt><trkpt lat="42.0086551" lon="12.6357569"><ele>149.0</ele><time>2026-05-03T10:06:40.441Z</time></trkpt><trkpt lat="42.008588" lon="12.6357324"><ele>149.0</ele><time>2026-05-03T10:06:41.441Z</time></trkpt><trkpt lat="42.0085216" lon="12.6356997"><ele>149.0</ele><time>2026-05-03T10:06:42.44Z</time></trkpt><trkpt lat="42.0084575" lon="12.6356709"><ele>149.0</ele><time>2026-05-03T10:06:43.441Z</time></trkpt><trkpt lat="42.0083868" lon="12.6356283"><ele>148.33333333333331</ele><time>2026-05-03T10:06:44.441Z</time></trkpt><trkpt lat="42.0083218" lon="12.6355846"><ele>147.66666666666666</ele><time>2026-05-03T10:06:45.44Z</time></trkpt><trkpt lat="42.0082415" lon="12.6355494"><ele>147.0</ele><time>2026-05-03T10:06:46.441Z</time></trkpt><trkpt lat="42.0081685" lon="12.6355266"><ele>146.33333333333334</ele><time>2026-05-03T10:06:47.441Z</time></trkpt><trkpt lat="42.0080957" lon="12.6354957"><ele>145.66666666666669</ele><time>2026-05-03T10:06:48.441Z</time></trkpt><trkpt lat="42.008017" lon="12.6354742"><ele>145.0</ele><time>2026-05-03T10:06:49.441Z</time></trkpt><trkpt lat="42.0079365" lon="12.6354345"><ele>145.0</ele><time>2026-05-03T10:06:50.441Z</time></trkpt><trkpt lat="42.0078532" lon="12.6353962"><ele>145.0</ele><time>2026-05-03T10:06:51.44Z</time></trkpt><trkpt lat="42.0077789" lon="12.6353628"><ele>145.0</ele><time>2026-05-03T10:06:52.441Z</time></trkpt><trkpt lat="42.0077072" lon="12.6353209"><ele>145.0</ele><time>2026-05-03T10:06:53.44Z</time></trkpt><trkpt lat="42.007631" lon="12.6352815"><ele>145.0</ele><time>2026-05-03T10:06:54.44Z</time></trkpt><trkpt lat="42.0075532" lon="12.6352392"><ele>145.0</ele><time>2026-05-03T10:06:55.441Z</time></trkpt><trkpt lat="42.0074835" lon="12.6351954"><ele>146.8</ele><time>2026-05-03T10:06:56.441Z</time></trkpt><trkpt lat="42.0074055" lon="12.6351462"><ele>148.6</ele><time>2026-05-03T10:06:57.441Z</time></trkpt><trkpt lat="42.0073261" lon="12.6350907"><ele>150.4</ele><time>2026-05-03T10:06:58.441Z</time></trkpt><trkpt lat="42.0072385" lon="12.6350387"><ele>152.2</ele><time>2026-05-03T10:06:59.44Z</time></trkpt><trkpt lat="42.0071495" lon="12.6349875"><ele>154.0</ele><time>2026-05-03T10:07:00.441Z</time></trkpt><trkpt lat="42.0070569" lon="12.6349351"><ele>154.0</ele><time>2026-05-03T10:07:01.441Z</time></trkpt><trkpt lat="42.0069598" lon="12.6348835"><ele>154.0</ele><time>2026-05-03T10:07:02.44Z</time></trkpt><trkpt lat="42.0068564" lon="12.6348393"><ele>154.0</ele><time>2026-05-03T10:07:03.44Z</time></trkpt><trkpt lat="42.0067518" lon="12.634799"><ele>154.0</ele><time>2026-05-03T10:07:04.441Z</time></trkpt><trkpt lat="42.0066432" lon="12.6347626"><ele>154.0</ele><time>2026-05-03T10:07:05.44Z</time></trkpt><trkpt lat="42.0065386" lon="12.6347297"><ele>154.8</ele><time>2026-05-03T10:07:06.44Z</time></trkpt><trkpt lat="42.0064303" lon="12.6347008"><ele>155.60000000000002</ele><time>2026-05-03T10:07:07.441Z</time></trkpt><trkpt lat="42.006326" lon="12.6346721"><ele>156.4</ele><time>2026-05-03T10:07:08.441Z</time></trkpt><trkpt lat="42.0062235" lon="12.6346503"><ele>157.20000000000002</ele><time>2026-05-03T10:07:09.44Z</time></trkpt><trkpt lat="42.0061196" lon="12.6346216"><ele>158.0</ele><time>2026-05-03T10:07:10.44Z</time></trkpt><trkpt lat="42.0060198" lon="12.6345893"><ele>158.0</ele><time>2026-05-03T10:07:11.44Z</time></trkpt><trkpt lat="42.0059202" lon="12.6345481"><ele>158.0</ele><time>2026-05-03T10:07:12.44Z</time></trkpt><trkpt lat="42.0058175" lon="12.6344997"><ele>158.0</ele><time>2026-05-03T10:07:13.44Z</time></trkpt><trkpt lat="42.0057155" lon="12.6344507"><ele>158.0</ele><time>2026-05-03T10:07:14.44Z</time></trkpt><trkpt lat="42.0056084" lon="12.6344053"><ele>158.0</ele><time>2026-05-03T10:07:15.44Z</time></trkpt><trkpt lat="42.0054995" lon="12.634354"><ele>156.0</ele><time>2026-05-03T10:07:16.441Z</time></trkpt><trkpt lat="42.0053912" lon="12.6342985"><ele>154.0</ele><time>2026-05-03T10:07:17.441Z</time></trkpt><trkpt lat="42.0052799" lon="12.6342395"><ele>152.0</ele><time>2026-05-03T10:07:18.44Z</time></trkpt><trkpt lat="42.0051595" lon="12.6341825"><ele>150.0</ele><time>2026-05-03T10:07:19.441Z</time></trkpt><trkpt lat="42.0050437" lon="12.6341261"><ele>149.25</ele><time>2026-05-03T10:07:20.44Z</time></trkpt><trkpt lat="42.0049241" lon="12.6340721"><ele>148.5</ele><time>2026-05-03T10:07:21.44Z</time></trkpt><trkpt lat="42.0048021" lon="12.6340169"><ele>147.75</ele><time>2026-05-03T10:07:22.44Z</time></trkpt><trkpt lat="42.0046805" lon="12.6339693"><ele>147.0</ele><time>2026-05-03T10:07:23.441Z</time></trkpt><trkpt lat="42.0045552" lon="12.6339349"><ele>147.0</ele><time>2026-05-03T10:07:24.441Z</time></trkpt><trkpt lat="42.0044287" lon="12.6339188"><ele>147.0</ele><time>2026-05-03T10:07:25.441Z</time></trkpt><trkpt lat="42.0043016" lon="12.6339068"><ele>147.0</ele><time>2026-05-03T10:07:26.44Z</time></trkpt><trkpt lat="42.0041832" lon="12.6338972"><ele>147.0</ele><time>2026-05-03T10:07:27.441Z</time></trkpt><trkpt lat="42.0040639" lon="12.6338862"><ele>148.0</ele><time>2026-05-03T10:07:28.44Z</time></trkpt><trkpt lat="42.0039467" lon="12.6338689"><ele>149.0</ele><time>2026-05-03T10:07:29.441Z</time></trkpt><trkpt lat="42.0038377" lon="12.6338472"><ele>150.0</ele><time>2026-05-03T10:07:30.44Z</time></trkpt><trkpt lat="42.0037345" lon="12.633811"><ele>151.0</ele><time>2026-05-03T10:07:31.441Z</time></trkpt><trkpt lat="42.003634" lon="12.6337594"><ele>152.0</ele><time>2026-05-03T10:07:32.441Z</time></trkpt><trkpt lat="42.0035394" lon="12.6336979"><ele>150.6</ele><time>2026-05-03T10:07:33.441Z</time></trkpt><trkpt lat="42.0034487" lon="12.6336241"><ele>149.2</ele><time>2026-05-03T10:07:34.441Z</time></trkpt><trkpt lat="42.0033576" lon="12.6335529"><ele>147.8</ele><time>2026-05-03T10:07:35.44Z</time></trkpt><trkpt lat="42.0032634" lon="12.6334918"><ele>146.4</ele><time>2026-05-03T10:07:36.44Z</time></trkpt><trkpt lat="42.0031763" lon="12.6334309"><ele>145.0</ele><time>2026-05-03T10:07:37.44Z</time></trkpt><trkpt lat="42.0030864" lon="12.6333771"><ele>145.0</ele><time>2026-05-03T10:07:38.441Z</time></trkpt><trkpt lat="42.0029917" lon="12.6333264"><ele>145.0</ele><time>2026-05-03T10:07:39.44Z</time></trkpt><trkpt lat="42.002889" lon="12.6332903"><ele>145.0</ele><time>2026-05-03T10:07:40.441Z</time></trkpt><trkpt lat="42.0027907" lon="12.6332532"><ele>145.0</ele><time>2026-05-03T10:07:41.44Z</time></trkpt><trkpt lat="42.0026991" lon="12.633217"><ele>145.0</ele><time>2026-05-03T10:07:42.441Z</time></trkpt><trkpt lat="42.0026258" lon="12.6331862"><ele>145.0</ele><time>2026-05-03T10:07:43.44Z</time></trkpt><trkpt lat="42.0025282" lon="12.6331474"><ele>145.0</ele><time>2026-05-03T10:07:45.44Z</time></trkpt><trkpt lat="42.0024617" lon="12.6331138"><ele>145.0</ele><time>2026-05-03T10:07:49.44Z</time></trkpt><trkpt lat="42.0024427" lon="12.6332325"><ele>145.0</ele><time>2026-05-03T10:07:52.44Z</time></trkpt><trkpt lat="42.0025329" lon="12.6333038"><ele>145.0</ele><time>2026-05-03T10:07:54.441Z</time></trkpt><trkpt lat="42.0026369" lon="12.6333574"><ele>145.0</ele><time>2026-05-03T10:07:56.44Z</time></trkpt><trkpt lat="42.0027302" lon="12.6333981"><ele>145.0</ele><time>2026-05-03T10:07:58.441Z</time></trkpt><trkpt lat="42.0028193" lon="12.6334383"><ele>145.0</ele><time>2026-05-03T10:08:00.441Z</time></trkpt><trkpt lat="42.0028757" lon="12.6334773"><ele>145.0</ele><time>2026-05-03T10:08:02.44Z</time></trkpt><trkpt lat="42.0029603" lon="12.6335019"><ele>145.0</ele><time>2026-05-03T10:08:05.441Z</time></trkpt><trkpt lat="42.0030203" lon="12.6335322"><ele>145.0</ele><time>2026-05-03T10:08:07.44Z</time></trkpt><trkpt lat="42.0030817" lon="12.6335561"><ele>145.0</ele><time>2026-05-03T10:08:10.44Z</time></trkpt></trkseg></trk></gpx>